[[{"header":{"parameterUnit":"m.s-1","parameterCategory":1,"la1":30.6,"la2":28.766,"lo1":-90.7593,"lo2":-88.6598,"dy":0.0162,"dx":0.0183,"nx":116,"ny":114,"refTime":"2023-05-10T00:00:00:Z","depth":0,"parameterNumber":2,"parameterNumberName":"U-component_of_WINDS"},"data":[0.0,0.0,0.0,0.0,0.0,0.0,0.0,0.0,0.0,0.0,0.0,0.0,0.0,0.0,0.0,0.0,0.0,0.0,0.0,0.0,0.0,0.0,0.0,0.0,0.0,0.0,0.0,0.0,0.0,0.0,0.0,0.0,0.0,0.0,0.0,0.0,0.0,0.0,0.0,0.0,0.0,0.0,0.0,0.0,0.0,0.0,0.0,0.0,0.0,0.0,0.0,0.0,0.0,0.0,0.0,0.0,0.0,0.0,0.0,0.0,0.0,0.0,0.0,0.0,0.0,0.0,0.0,0.0,0.0,0.0,0.0,0.0,0.0,0.0,0.0,0.0,0.0,0.0,0.0,0.0,0.0,0.0,0.0,0.0,0.0,0.0,0.0,0.0,0.0,0.0,0.0,0.0,0.0,0.0,0.0,0.0,0.0,0.0,0.0,0.0,0.0,0.0,0.0,0.0,0.0,0.0,0.0,0.0,0.0,0.0,0.0,0.0,0.0,0.0,0.0,0.0,0.0,0.0,0.0,0.0,0.0,0.0,0.0,0.0,0.0,0.0,0.0,0.0,0.0,0.0,0.0,0.0,0.0,0.0,0.0,0.0,0.0,0.0,0.0,0.0,0.0,0.0,0.0,0.0,0.0,0.0,0.0,0.0,0.0,0.0,0.0,0.0,0.0,0.0,0.0,0.0,0.0,0.0,0.0,0.0,0.0,0.0,0.0,0.0,0.0,0.0,0.0,0.0,0.0,0.0,0.0,0.0,0.0,0.0,0.0,0.0,0.0,0.0,0.0,0.0,0.0,0.0,0.0,0.0,0.0,0.0,0.0,0.0,0.0,0.0,0.0,0.0,0.0,0.0,0.0,0.0,0.0,0.0,0.0,0.0,0.0,0.0,0.0,0.0,0.0,0.0,0.0,0.0,0.0,0.0,0.0,0.0,0.0,0.0,0.0,0.0,0.0,0.0,0.0,0.0,0.0,0.0,0.0,0.0,0.0,0.0,0.0,0.0,0.0,0.0,0.0,0.0,0.0,0.0,0.0,0.0,0.0,0.0,0.0,0.0,0.0,0.0,0.0,0.0,0.0,0.0,0.0,0.0,0.0,0.0,0.0,0.0,0.0,0.0,0.0,0.0,0.0,0.0,0.0,0.0,0.0,0.0,0.0,0.0,0.0,0.0,0.0,0.0,0.0,0.0,0.0,0.0,0.0,0.0,0.0,0.0,0.0,0.0,0.0,0.0,0.0,0.0,0.0,0.0,0.0,0.0,0.0,0.0,0.0,0.0,0.0,0.0,0.0,0.0,0.0,0.0,0.0,0.0,0.0,0.0,0.0,0.0,0.0,0.0,0.0,0.0,0.0,0.0,0.0,0.0,0.0,0.0,0.0,0.0,0.0,0.0,0.0,0.0,0.0,0.0,0.0,0.0,0.0,0.0,0.0,0.0,0.0,0.0,0.0,0.0,0.0,0.0,0.0,0.0,0.0,0.0,0.0,0.0,0.0,0.0,0.0,0.0,0.0,0.0,0.0,0.0,0.0,0.0,0.0,0.0,0.0,0.0,0.0,0.0,0.0,0.0,0.0,0.0,0.0,0.0,0.0,0.0,0.0,0.0,0.0,0.0,0.0,0.0,0.0,0.0,0.0,0.0,0.0,0.0,0.0,0.0,0.0,0.0,0.0,0.0,0.0,0.0,0.0,0.0,0.0,0.0,0.0,0.0,0.0,0.0,0.0,0.0,0.0,0.0,0.0,0.0,0.0,0.0,0.0,0.0,0.0,0.0,0.0,0.0,0.0,0.0,0.0,0.0,0.0,0.0,0.0,0.0,0.0,0.0,0.0,0.0,0.0,0.0,0.0,0.0,0.0,0.0,0.0,0.0,0.0,0.0,0.0,0.0,0.0,0.0,0.0,0.0,0.0,0.0,0.0,0.0,0.0,0.0,0.0,0.0,0.0,0.0,0.0,0.0,0.0,0.0,0.0,0.0,0.0,0.0,0.0,0.0,0.0,0.0,0.0,0.0,0.0,0.0,0.0,0.0,0.0,0.0,0.0,0.0,0.0,0.0,0.0,0.0,0.0,0.0,0.0,0.0,0.0,0.0,0.0,0.0,0.0,0.0,0.0,0.0,0.0,0.0,0.0,0.0,0.0,0.0,0.0,0.0,0.0,0.0,0.0,0.0,0.0,0.0,0.0,0.0,0.0,0.0,0.0,0.0,0.0,0.0,0.0,0.0,0.0,0.0,0.0,0.0,0.0,0.0,0.0,0.0,0.0,0.0,0.0,0.0,0.0,0.0,0.0,0.0,0.0,0.0,0.0,0.0,0.0,0.0,0.0,0.0,0.0,0.0,0.0,0.0,0.0,0.0,0.0,0.0,0.0,0.0,0.0,0.0,0.0,0.0,0.0,0.0,0.0,0.0,0.0,0.0,0.0,0.0,0.0,0.0,0.0,0.0,0.0,0.0,0.0,0.0,0.0,0.0,0.0,0.0,0.0,0.0,0.0,0.0,0.0,0.0,0.0,0.0,0.0,0.0,0.0,0.0,0.0,0.0,0.0,0.0,0.0,0.0,0.0,0.0,0.0,0.0,0.0,0.0,0.0,0.0,0.0,0.0,0.0,0.0,0.0,0.0,0.0,0.0,0.0,0.0,0.0,0.0,0.0,0.0,0.0,0.0,0.0,0.0,0.0,0.0,0.0,0.0,0.0,0.0,0.0,0.0,0.0,0.0,0.0,0.0,0.0,0.0,0.0,0.0,0.0,0.0,0.0,0.0,0.0,0.0,0.0,0.0,0.0,0.0,0.0,0.0,0.0,0.0,0.0,0.0,0.0,0.0,0.0,0.0,0.0,0.0,0.0,0.0,0.0,0.0,0.0,0.0,0.0,0.0,0.0,0.0,0.0,0.0,0.0,0.0,0.0,0.0,0.0,0.0,0.0,0.0,0.0,0.0,0.0,0.0,0.0,0.0,0.0,0.0,0.0,0.0,0.0,0.0,0.0,0.0,0.0,0.0,0.0,0.0,0.0,0.0,0.0,0.0,0.0,0.0,0.0,0.0,0.0,0.0,0.0,0.0,0.0,0.0,0.0,0.0,0.0,0.0,0.0,0.0,0.0,0.0,0.0,0.0,0.0,0.0,0.0,0.0,0.0,0.0,0.0,0.0,0.0,0.0,0.0,0.0,0.0,0.0,0.0,0.0,0.0,0.0,0.0,0.0,0.0,0.0,0.0,0.0,0.0,0.0,0.0,0.0,0.0,0.0,0.0,0.0,0.0,0.0,0.0,0.0,0.0,0.0,0.0,0.0,0.0,0.0,0.0,0.0,0.0,0.0,0.0,0.0,0.0,0.0,0.0,0.0,0.0,0.0,0.0,0.0,0.0,0.0,0.0,0.0,0.0,0.0,0.0,0.0,0.0,0.0,0.0,0.0,0.0,0.0,0.0,0.0,0.0,0.0,0.0,0.0,0.0,0.0,0.0,0.0,0.0,0.0,0.0,0.0,0.0,0.0,0.0,0.0,0.0,0.0,0.0,0.0,0.0,0.0,0.0,0.0,0.0,0.0,0.0,0.0,0.0,0.0,0.0,0.0,0.0,0.0,0.0,0.0,0.0,0.0,0.0,0.0,0.0,0.0,0.0,0.0,0.0,0.0,0.0,0.0,0.0,0.0,0.0,0.0,0.0,0.0,0.0,0.0,0.0,0.0,0.0,0.0,0.0,0.0,0.0,0.0,0.0,0.0,0.0,0.0,0.0,0.0,0.0,0.0,0.0,0.0,0.0,0.0,0.0,0.0,0.0,0.0,0.0,0.0,0.0,0.0,0.0,0.0,0.0,0.0,0.0,0.0,0.0,0.0,0.0,0.0,0.0,0.0,0.0,0.0,0.0,0.0,0.0,0.0,0.0,0.0,0.0,0.0,0.0,0.0,0.0,0.0,0.0,0.0,0.0,0.0,0.0,0.0,0.0,0.0,0.0,0.0,0.0,0.0,0.0,0.0,0.0,0.0,0.0,0.0,0.0,0.0,0.0,0.0,0.0,0.0,0.0,0.0,0.0,0.0,0.0,0.0,0.0,0.0,0.0,0.0,0.0,0.0,0.0,0.0,0.0,0.0,0.0,0.0,0.0,0.0,0.0,0.0,0.0,0.0,0.0,0.0,0.0,0.0,0.0,0.0,0.0,0.0,0.0,0.0,0.0,0.0,0.0,0.0,0.0,0.0,0.0,0.0,0.0,0.0,0.0,0.0,0.0,0.0,0.0,0.0,0.0,0.0,0.0,0.0,0.0,0.0,0.0,0.0,0.0,0.0,0.0,0.0,0.0,0.0,0.0,0.0,0.0,0.0,0.0,0.0,0.0,0.0,0.0,0.0,0.0,0.0,0.0,0.0,0.0,0.0,0.0,0.0,0.0,0.0,0.0,0.0,0.0,0.0,0.0,0.0,0.0,0.0,0.0,0.0,0.0,0.0,0.0,0.0,0.0,0.0,0.0,0.0,0.0,0.0,0.0,0.0,0.0,0.0,0.0,0.0,0.0,0.0,0.0,0.0,0.0,0.0,0.0,0.0,0.0,0.0,0.0,0.0,0.0,0.0,0.0,0.0,0.0,0.0,0.0,0.0,0.0,0.0,0.0,0.0,0.0,0.0,0.0,0.0,0.0,0.0,0.0,0.0,0.0,0.0,0.0,0.0,0.0,0.0,0.0,0.0,0.0,0.0,0.0,0.0,0.0,0.0,0.0,0.0,0.0,0.0,0.0,0.0,0.0,0.0,0.0,0.0,0.0,0.0,0.0,0.0,0.0,0.0,0.0,0.0,0.0,0.0,0.0,0.0,0.0,0.0,0.0,0.0,0.0,0.0,0.0,0.0,0.0,0.0,0.0,0.0,0.0,0.0,0.0,0.0,0.0,0.0,0.0,0.0,0.0,0.0,0.0,0.0,0.0,0.0,0.0,0.0,0.0,0.0,0.0,0.0,0.0,0.0,0.0,0.0,0.0,0.0,0.0,0.0,0.0,0.0,0.0,0.0,0.0,0.0,0.0,0.0,0.0,0.0,0.0,0.0,0.0,0.0,0.0,0.0,0.0,0.0,0.0,0.0,0.0,0.0,0.0,0.0,0.0,0.0,0.0,0.0,0.0,0.0,0.0,0.0,0.0,0.0,0.0,0.0,0.0,0.0,0.0,0.0,0.0,0.0,0.0,0.0,0.0,0.0,0.0,0.0,0.0,0.0,0.0,0.0,0.0,0.0,0.0,0.0,0.0,0.0,0.0,0.0,0.0,0.0,0.0,0.0,0.0,0.0,0.0,0.0,0.0,0.0,0.0,0.0,0.0,0.0,0.0,0.0,0.0,0.0,0.0,0.0,0.0,0.0,0.0,0.0,0.0,0.0,0.0,0.0,0.0,0.0,0.0,0.0,0.0,0.0,0.0,0.0,0.0,0.0,0.0,0.0,0.0,0.0,0.0,0.0,0.0,0.0,0.0,0.0,0.0,0.0,0.0,0.0,0.0,0.0,0.0,0.0,0.0,0.0,0.0,0.0,0.0,0.0,0.0,0.0,0.0,0.0,0.0,0.0,0.0,0.0,0.0,0.0,0.0,0.0,0.0,0.0,0.0,0.0,0.0,0.0,0.0,0.0,0.0,0.0,0.0,0.0,0.0,0.0,0.0,0.0,0.0,0.0,0.0,0.0,0.0,0.0,0.0,0.0,0.0,0.0,0.0,0.0,0.0,0.0,0.0,0.0,0.0,0.0,0.0,0.0,0.0,0.0,0.0,0.0,0.0,0.0,0.0,0.0,0.0,0.0,0.0,0.0,0.0,0.0,0.0,0.0,0.0,0.0,0.0,0.0,0.0,0.0,0.0,0.0,0.0,0.0,0.0,0.0,0.0,0.0,0.0,0.0,0.0,0.0,0.0,0.0,0.0,0.0,0.0,0.0,0.0,0.0,0.0,0.0,0.0,0.0,0.0,0.0,0.0,0.0,0.0,0.0,0.0,0.0,0.0,0.0,0.0,0.0,0.0,0.0,0.0,0.0,0.0,0.0,0.0,0.0,0.0,0.0,0.0,0.0,0.0,0.0,0.0,0.0,0.0,0.0,0.0,0.0,0.0,0.0,-1.7278,0.0,0.0,0.0,0.0,0.0,0.0,0.0,0.0,0.0,0.0,0.0,0.0,0.0,0.0,0.0,0.0,0.0,0.0,0.0,0.0,0.0,0.0,0.0,0.0,0.0,0.0,0.0,0.0,0.0,0.0,0.0,0.0,0.0,0.0,0.0,0.0,0.0,0.0,-2.3933,-2.5581,-2.7561,-2.9676,-2.7873,-2.5888,-2.3782,0.0,0.0,0.0,0.0,0.0,0.0,0.0,0.0,0.0,0.0,0.0,0.0,0.0,0.0,0.0,0.0,0.0,0.0,0.0,0.0,0.0,0.0,0.0,0.0,0.0,0.0,0.0,0.0,0.0,0.0,0.0,0.0,0.0,0.0,0.0,0.0,0.0,0.0,0.0,0.0,0.0,0.0,0.0,0.0,0.0,0.0,0.0,0.0,0.0,0.0,0.0,0.0,0.0,0.0,0.0,0.0,0.0,0.0,0.0,0.0,0.0,0.0,0.0,0.0,0.0,0.0,0.0,0.0,0.0,0.0,0.0,-1.8494,0.0,0.0,0.0,0.0,0.0,0.0,0.0,0.0,0.0,0.0,0.0,0.0,0.0,0.0,0.0,0.0,0.0,0.0,0.0,0.0,0.0,0.0,0.0,-2.1362,-2.1785,-2.2651,-2.2133,-2.1592,0.0,0.0,0.0,0.0,0.0,0.0,0.0,-2.2441,-2.4158,-2.6571,-2.8944,-3.1348,-3.3863,-3.3727,-3.1902,-2.86,-2.6607,0.0,0.0,0.0,0.0,0.0,0.0,0.0,0.0,0.0,0.0,0.0,0.0,0.0,0.0,0.0,0.0,0.0,0.0,0.0,0.0,0.0,0.0,0.0,0.0,0.0,0.0,0.0,0.0,0.0,0.0,0.0,0.0,0.0,0.0,0.0,0.0,0.0,0.0,0.0,0.0,0.0,0.0,0.0,0.0,0.0,0.0,0.0,0.0,0.0,0.0,0.0,0.0,0.0,0.0,0.0,0.0,0.0,0.0,0.0,0.0,0.0,0.0,0.0,-2.9483,-2.9839,-2.988,-2.9437,-2.9315,-2.9274,-2.5212,-2.2831,-2.1697,-1.989,0.0,0.0,0.0,0.0,0.0,0.0,0.0,0.0,0.0,0.0,0.0,0.0,0.0,0.0,0.0,0.0,0.0,0.0,0.0,0.0,0.0,-2.2878,-2.3499,-2.4302,-2.3799,-2.345,-2.3393,0.0,0.0,0.0,0.0,0.0,-2.2928,-2.441,-2.6153,-2.8116,-3.3069,-3.5964,-3.6941,-3.7419,-3.7252,-3.6313,-3.2056,-2.9664,-2.8651,0.0,0.0,0.0,0.0,0.0,0.0,0.0,0.0,0.0,0.0,0.0,0.0,0.0,0.0,0.0,0.0,0.0,0.0,0.0,0.0,0.0,0.0,0.0,0.0,0.0,0.0,0.0,0.0,0.0,0.0,0.0,0.0,0.0,0.0,0.0,0.0,0.0,0.0,0.0,0.0,0.0,-2.3094,-2.2513,0.0,0.0,0.0,0.0,0.0,0.0,0.0,0.0,0.0,0.0,0.0,0.0,0.0,-2.9564,-3.1137,-3.1589,-3.2016,-3.2354,-3.2778,-3.3152,-3.3457,-3.3349,-3.311,-3.2718,-3.1897,0.0,-2.5074,-2.4131,0.0,0.0,0.0,0.0,0.0,0.0,0.0,0.0,0.0,0.0,0.0,0.0,0.0,0.0,0.0,0.0,0.0,0.0,0.0,0.0,0.0,-2.5071,-2.6248,-2.7055,-2.7601,-2.7425,-2.6293,-2.5956,0.0,0.0,0.0,-2.4595,-2.4512,-2.6873,-2.9926,-3.3627,-3.6745,-3.8866,-3.9953,-4.0041,-3.9929,-3.9588,-3.755,-3.5009,-3.2196,-2.9817,0.0,0.0,0.0,0.0,0.0,0.0,0.0,0.0,0.0,0.0,0.0,0.0,0.0,0.0,0.0,0.0,0.0,0.0,0.0,0.0,0.0,0.0,0.0,0.0,0.0,0.0,0.0,0.0,0.0,0.0,0.0,0.0,0.0,0.0,0.0,0.0,0.0,0.0,0.0,-2.3599,-2.4728,-2.4433,-2.43,-2.3525,0.0,0.0,0.0,0.0,0.0,0.0,0.0,0.0,0.0,-3.0942,-3.1349,-3.2146,-3.3495,-3.4059,-3.4472,-3.4615,-3.4905,-3.5087,-3.5236,-3.5107,-3.4934,-3.4717,-3.4393,-3.2757,-3.0278,-2.8138,-2.6032,-2.3991,0.0,0.0,0.0,0.0,-2.0205,-1.9836,0.0,0.0,0.0,0.0,0.0,0.0,0.0,0.0,0.0,0.0,0.0,0.0,-2.5582,-2.748,-2.9069,-3.0127,-3.0873,-3.0647,-2.9147,-2.8549,-2.7249,-2.5032,-2.5757,-2.6247,-2.6276,-2.9835,-3.3902,-3.8504,-4.0065,-4.1458,-4.2674,-4.2526,-4.2301,-4.2097,-4.1871,-3.9495,-3.5577,-3.3659,-3.0925,-2.7668,0.0,0.0,0.0,0.0,0.0,0.0,0.0,0.0,0.0,0.0,0.0,0.0,0.0,0.0,0.0,0.0,0.0,0.0,0.0,0.0,0.0,0.0,0.0,0.0,0.0,0.0,0.0,0.0,0.0,0.0,0.0,0.0,0.0,0.0,0.0,0.0,0.0,-2.5431,-2.6455,-2.6461,-2.6794,-2.6261,0.0,0.0,0.0,0.0,0.0,0.0,-2.9838,-2.9841,-3.0771,-3.2996,-3.3685,-3.4461,-3.5399,-3.596,-3.63,-3.6348,-3.6471,-3.6542,-3.6629,-3.6452,-3.6345,-3.6211,-3.5788,-3.5187,-3.4281,-3.1582,-2.9383,-2.763,-2.6641,-2.5653,-2.4676,-2.4173,-2.3718,-2.3338,0.0,0.0,0.0,0.0,0.0,0.0,0.0,0.0,0.0,0.0,0.0,-2.6418,-2.8466,-2.997,-3.1549,-3.3415,-3.2453,-3.1706,-3.1612,-2.9768,-2.8404,-2.7736,-2.7162,-2.7337,-2.8415,-3.34,-3.7519,-4.0635,-4.2819,-4.4177,-4.4767,-4.5125,-4.5237,-4.5046,-4.4233,-4.2122,-3.9116,-3.6841,-3.4516,-3.199,-2.7657,0.0,0.0,0.0,0.0,0.0,0.0,0.0,0.0,0.0,0.0,0.0,0.0,0.0,0.0,0.0,0.0,0.0,0.0,0.0,0.0,0.0,0.0,0.0,0.0,0.0,0.0,0.0,0.0,0.0,0.0,0.0,0.0,0.0,0.0,0.0,0.0,0.0,0.0,-2.9112,-2.9425,0.0,0.0,0.0,0.0,-2.9388,-2.8838,-2.9813,-3.3001,-3.2981,-3.3713,-3.5493,-3.6117,-3.6616,-3.7053,-3.7133,-3.73,-3.759,-3.7616,-3.7803,-3.8062,-3.8062,-3.7861,-3.7428,-3.7124,-3.656,-3.5674,-3.4065,-3.2481,-3.0907,-2.9697,-2.873,-2.7981,-2.7246,-2.6839,-2.6729,0.0,0.0,0.0,0.0,0.0,0.0,0.0,0.0,-2.1633,-2.2875,-2.5383,-2.7811,-2.9911,-3.2534,-3.4594,-3.5692,-3.6189,-3.5878,-3.4537,-3.3322,-3.1821,-2.9848,-2.9633,-3.0823,-3.3632,-3.7706,-4.0809,-4.292,-4.4666,-4.5487,-4.5481,-4.5492,-4.5371,-4.5082,-4.4788,-4.3716,-4.2067,-3.978,-3.7251,-3.4547,-3.1964,-2.9088,0.0,0.0,0.0,0.0,0.0,0.0,0.0,0.0,0.0,0.0,0.0,0.0,0.0,0.0,0.0,0.0,0.0,0.0,0.0,0.0,0.0,0.0,0.0,0.0,0.0,0.0,0.0,0.0,0.0,0.0,0.0,0.0,0.0,0.0,0.0,0.0,0.0,-3.1041,-3.1364,0.0,-3.0937,-3.0596,-3.0765,-3.1647,-3.2183,-3.3312,-3.5223,-3.5495,-3.606,-3.7098,-3.7531,-3.7838,-3.7968,-3.8216,-3.8353,-3.8452,-3.8166,-3.8092,-3.8213,-3.8057,-3.7946,-3.7762,-3.7459,-3.7099,-3.6636,-3.5907,-3.469,-3.3247,-3.243,-3.1724,-3.1129,-3.0572,-3.0071,-2.9725,0.0,0.0,0.0,0.0,0.0,0.0,0.0,0.0,-2.1896,-2.3703,-2.6483,-2.9266,-3.1814,-3.4545,-3.6628,-3.7685,-3.8366,-3.8024,-3.6445,-3.5485,-3.4027,-3.1765,-3.228,-3.4255,-3.7703,-4.0507,-4.297,-4.5023,-4.6021,-4.65,-4.6416,-4.619,-4.593,-4.5634,-4.5374,-4.4788,-4.388,-4.2106,-3.9794,-3.7146,-3.5345,-3.278,-2.9792,0.0,0.0,0.0,0.0,0.0,0.0,0.0,0.0,0.0,0.0,0.0,0.0,0.0,0.0,0.0,0.0,0.0,0.0,0.0,0.0,0.0,0.0,0.0,0.0,0.0,0.0,0.0,0.0,0.0,0.0,0.0,0.0,0.0,0.0,0.0,-3.1659,-3.2871,-3.3369,-3.3494,-3.322,-3.3276,-3.3537,-3.4067,-3.4962,-3.5986,-3.7063,-3.7442,-3.7798,-3.8209,-3.8526,-3.8722,-3.8722,-3.8898,-3.9042,-3.9042,-3.8711,-3.8485,-3.8349,-3.8194,-3.8037,-3.79,-3.7598,-3.7413,-3.7201,-3.6875,-3.6117,-3.514,-3.4435,-3.3793,-3.3268,-3.2779,-3.2333,-3.1931,0.0,0.0,0.0,0.0,0.0,0.0,0.0,-2.0547,-2.2394,-2.4854,-2.768,-3.0741,-3.422,-3.5888,-3.7497,-3.9339,-3.8742,-3.7969,-3.7296,-3.6011,-3.4728,-3.3525,-3.5086,-3.7335,-4.0303,-4.1829,-4.4029,-4.6908,-4.6908,-4.7208,-4.7671,-4.7336,-4.7098,-4.686,-4.6147,-4.5367,-4.449,-4.3814,-4.2238,-3.9966,-3.7677,-3.5763,-3.3936,0.0,0.0,0.0,0.0,0.0,0.0,0.0,0.0,0.0,0.0,0.0,0.0,0.0,0.0,0.0,0.0,0.0,0.0,0.0,0.0,0.0,0.0,0.0,0.0,0.0,0.0,0.0,0.0,0.0,0.0,0.0,0.0,0.0,-2.9518,-3.1809,-3.3765,-3.4572,-3.552,-3.5942,-3.5642,-3.5798,-3.6158,-3.6705,-3.7158,-3.7729,-3.8476,-3.8738,-3.8839,-3.8839,-3.9125,-3.9292,-3.9292,-3.9292,-3.9292,-3.9292,-3.9319,-3.9051,-3.8602,-3.8629,-3.8357,-3.79,-3.7598,-3.7505,-3.7459,-3.6922,-3.6709,-3.6611,-3.5615,-3.4903,-3.4384,-3.3873,-3.354,-3.3332,0.0,0.0,0.0,0.0,0.0,0.0,0.0,-2.0431,-2.2271,-2.4689,-2.7887,-3.1133,-3.4195,-3.66,-3.8417,-3.9431,-3.963,-3.9256,-3.8093,-3.7044,-3.6286,-3.5827,-3.7933,-3.9975,-4.1785,-4.3975,-4.557,-4.6552,-4.7144,-4.7407,-4.7336,-4.7235,-4.7098,-4.6894,-4.6666,-4.611,-4.523,-4.4422,-4.3325,-4.1979,-4.0324,-3.8421,-3.6348,0.0,0.0,0.0,0.0,0.0,0.0,0.0,0.0,0.0,0.0,0.0,0.0,0.0,0.0,0.0,0.0,0.0,0.0,0.0,0.0,0.0,0.0,0.0,0.0,0.0,0.0,0.0,0.0,0.0,0.0,0.0,0.0,-3.1754,-3.2108,-3.359,-3.5137,-3.6522,-3.7076,-3.7546,-3.793,-3.8261,-3.8519,-3.8488,-3.8999,-3.938,-3.9424,-3.9587,-3.966,-3.966,-3.9431,-3.9292,-3.9292,-3.9292,-3.9292,-3.9319,-3.9573,-3.9365,-3.88,-3.891,-3.8655,-3.8076,-3.7874,-3.767,-3.7459,-3.7108,-3.6875,-3.6662,-3.6018,-3.5685,-3.5517,-3.518,-3.4893,-3.4654,0.0,0.0,0.0,0.0,0.0,0.0,0.0,-2.0184,-2.2031,-2.438,-2.7582,-3.0853,-3.408,-3.6353,-3.8137,-3.9266,-3.9344,-3.8964,-3.8105,-3.7646,-3.7659,-3.8268,-4.0185,-4.1904,-4.3322,-4.5076,-4.6155,-4.6615,-4.7207,-4.7336,-4.7064,-4.6996,-4.6858,-4.6649,-4.6649,-4.6159,-4.528,-4.4507,-4.3669,-4.2736,-4.1594,-4.0198,-3.8587,-3.693,-3.5591,-3.4347,-3.2218,-3.0821,-2.9817,-2.89,0.0,0.0,0.0,0.0,0.0,0.0,0.0,0.0,0.0,0.0,0.0,0.0,0.0,0.0,0.0,0.0,0.0,0.0,0.0,0.0,0.0,0.0,0.0,0.0,-3.1982,-3.3931,-3.4909,-3.5691,-3.6633,-3.8044,-3.8485,-3.8851,-3.9225,-3.9671,-3.9829,-3.9584,-4.0151,-4.0365,-4.0196,-4.0062,-3.9996,-3.9996,-3.9513,-3.9292,-3.9292,-3.9292,-3.9427,-3.9671,-3.9888,-3.986,-3.9661,-3.9401,-3.9038,-3.8556,-3.807,-3.7808,-3.767,-3.7366,-3.7108,0.0,0.0,0.0,0.0,0.0,-3.5524,-3.538,0.0,0.0,0.0,0.0,0.0,0.0,0.0,-1.9806,-2.1648,-2.4059,-2.6879,-3.0027,-3.3658,-3.5339,-3.6935,-3.8669,-3.8226,-3.7782,-3.7639,-3.7963,-3.8903,-4.0501,-4.1859,-4.3242,-4.4776,-4.5442,-4.6142,-4.6823,-4.6996,-4.6996,-4.6823,-4.6617,-4.6474,-4.6298,-4.6298,-4.584,-4.5062,-4.4334,-4.3563,-4.2726,-4.1904,-4.1241,-4.0545,-3.8874,-3.7873,-3.7155,-3.5549,-3.4104,-3.2936,-3.2729,0.0,0.0,0.0,0.0,0.0,0.0,0.0,0.0,0.0,0.0,0.0,0.0,0.0,0.0,0.0,0.0,0.0,0.0,0.0,0.0,0.0,0.0,0.0,0.0,-3.4076,-3.5911,-3.751,-3.7777,-3.8189,-3.918,-3.9661,-3.9917,-3.9917,-4.04,-4.0567,-4.0277,-4.0759,-4.0916,-4.0688,0.0,0.0,0.0,0.0,-3.9319,-3.94,-3.94,-3.9699,-4.0296,-4.035,-4.0529,-4.0729,-3.994,-3.9415,-3.9078,-3.8274,-3.79,-3.7854,-3.7598,-3.7366,-3.7062,-3.6593,-3.6241,-3.6003,-3.5764,-3.5668,-3.562,0.0,0.0,0.0,0.0,0.0,0.0,0.0,-1.9495,-2.1125,-2.3999,-2.6004,-2.8479,-3.2055,-3.3663,-3.5064,-3.6493,-3.6718,-3.6933,-3.7267,-3.8452,-3.9737,-4.1066,-4.2582,-4.4071,-4.5534,-4.5746,-4.5992,-4.6404,-4.6439,-4.6439,-4.6404,-4.6369,-4.6333,-4.6298,-4.6298,-4.6127,-4.5794,-4.4556,-4.3783,-4.3421,-4.2094,-4.1525,-4.1271,-4.0158,-3.9589,-3.9338,-3.8145,-3.7215,-3.6353,-3.5245,-3.3712,-3.2066,-3.0779,-2.8751,0.0,0.0,0.0,0.0,0.0,0.0,0.0,0.0,0.0,0.0,0.0,0.0,0.0,0.0,0.0,0.0,0.0,0.0,0.0,-3.3421,-3.5048,-3.6713,-3.8196,-3.8953,-3.9524,-3.9876,-4.0325,-4.0689,-4.0821,-4.143,-4.16,-4.1182,-4.1268,-4.1142,-4.0688,-4.0257,-3.9996,-3.9996,-3.9513,-3.9536,-3.9997,-4.0024,-4.0323,-4.0947,0.0,0.0,-4.1017,-4.0462,-3.9907,-3.9382,-3.832,-3.79,-3.7854,-3.7598,-3.7366,-3.7062,-3.6593,-3.6358,-3.631,-3.6263,-3.6098,-3.5908,0.0,0.0,0.0,0.0,0.0,0.0,0.0,-1.9301,-2.0558,-2.2475,-2.4393,-2.6537,-2.9078,-3.0552,-3.2034,-3.3638,-3.4981,-3.5971,-3.6522,-3.8639,-4.0334,-4.1328,-4.3006,-4.4346,-4.5173,-4.5389,-4.5614,-4.5905,-4.6012,-4.6012,-4.5905,-4.6008,-4.6008,-4.59,-4.6008,-4.5818,-4.5334,-4.4288,-4.3619,-4.3105,-4.2031,-4.1588,-4.1524,-4.0913,-4.0653,-4.0522,-3.9882,-3.9159,-3.8415,-3.7738,-3.6322,-3.4726,-3.3786,-3.1819,-2.9569,0.0,0.0,0.0,0.0,0.0,0.0,0.0,0.0,0.0,0.0,0.0,0.0,0.0,0.0,-3.0026,0.0,0.0,-3.3648,-3.4992,-3.642,-3.7774,-3.9,-3.9728,-4.0251,-4.0543,-4.1111,-4.1476,-4.1599,-4.1889,-4.1926,-4.1438,-4.1396,-4.1185,-4.073,-4.0371,-4.0293,-4.0438,-4.0111,-4.0187,-4.0648,-4.0648,-4.0947,-4.1571,-4.1869,-4.2005,-4.1958,-4.1159,-4.0514,-3.9881,-3.8786,-3.8318,-3.8272,-3.8059,-3.7873,-3.7659,-3.6836,-3.6546,-3.6546,-3.6452,-3.631,-3.6193,0.0,0.0,0.0,0.0,0.0,0.0,0.0,-1.9072,-1.9996,-2.098,-2.2673,-2.443,-2.6243,-2.7375,-2.882,-3.0857,-3.3173,-3.4876,-3.5638,-3.8436,-4.0472,-4.1354,-4.3023,-4.4106,-4.4534,-4.4911,-4.5173,-4.5395,-4.5578,-4.5578,-4.5431,-4.5609,-4.5604,-4.5426,-4.552,-4.5182,-4.4583,-4.3829,-4.32,-4.2631,-4.1904,-4.1588,-4.1557,-4.1233,-4.1002,-4.0865,-4.0665,-4.0062,-3.9308,-3.9185,-3.8046,-3.663,-3.6162,-3.4425,-3.2273,-3.0672,-2.9555,0.0,0.0,0.0,0.0,0.0,0.0,0.0,0.0,0.0,-3.1221,-3.1527,-3.179,-3.2339,-3.3457,-3.4293,-3.5235,-3.6552,-3.7792,-3.8928,-3.9877,-4.0342,-4.0797,-4.1239,-4.1732,-4.2051,-4.2092,-4.2092,-4.1926,-4.1438,-4.1396,-4.1185,-4.073,-4.064,-4.0658,-4.088,-4.0821,-4.0905,-4.13,-4.13,-4.1598,-4.2168,-4.2168,-4.2439,-4.2873,-4.1769,-4.0994,-4.0467,-3.9365,-3.8893,-3.8846,-3.8704,-3.861,-3.851,-3.7446,-3.6981,-3.6934,-3.655,-3.6405,-3.6358,0.0,0.0,0.0,0.0,0.0,0.0,0.0,0.0,-1.9565,-2.0921,-2.1365,-2.2547,-2.5159,-2.5471,-2.6436,-2.8819,-3.1479,-3.3563,-3.4765,-3.7321,-3.9579,-4.1324,-4.2188,-4.3158,-4.4305,-4.4534,-4.4761,-4.4986,-4.5167,-4.5241,-4.5241,-4.5241,-4.5272,-4.521,-4.4768,-4.4495,-4.4373,-4.3289,-4.2758,-4.2631,-4.1904,-4.1588,-4.1525,-4.0698,-4.0346,-4.0179,-3.9982,-3.9351,-3.8539,-3.7923,-3.7584,-3.7245,-3.6441,-3.546,-3.4455,-3.3366,0.0,-3.0922,-3.0338,-3.0163,0.0,-3.0915,-3.1486,-3.2019,0.0,0.0,-3.3981,-3.388,-3.4329,-3.4955,-3.563,-3.6429,-3.7193,-3.794,-3.8939,-3.9905,-4.0591,-4.0885,-4.1268,-4.1918,-4.184,-4.1856,-4.2092,-4.2092,-4.1926,-4.1438,-4.1396,-4.1185,-4.073,-4.1032,-4.1074,-4.0907,-4.1233,-4.1579,-4.1896,-4.1896,-4.2195,-4.2792,-4.2792,-4.2819,-4.2873,-4.1962,-4.14,-4.1032,-3.9996,-3.952,-3.952,-3.9473,-3.9473,-3.9394,-3.8536,-3.8067,-3.7731,-3.6748,-3.6405,-3.6405,0.0,0.0,0.0,0.0,0.0,0.0,0.0,0.0,0.0,-1.9856,-2.0293,-2.0994,-2.2203,-2.2907,-2.3943,-2.5568,-2.8537,-3.1004,-3.2661,-3.6061,-3.8532,-3.9705,-4.0969,-4.1961,-4.2614,-4.2804,-4.303,-4.3216,-4.3402,-4.3507,-4.3544,-4.3764,-4.3837,-4.3873,-4.3742,-4.3541,-4.3207,-4.2711,-4.2273,-4.1864,-4.1549,-4.1137,-4.0694,-4.0313,-3.934,-3.8184,-3.8058,-3.7681,0.0,-3.6413,-3.6136,-3.6041,-3.5975,-3.5455,-3.4634,-3.3756,-3.3034,0.0,-3.2635,0.0,0.0,0.0,-3.4221,-3.4617,-3.5145,-3.5438,-3.5702,-3.5958,-3.6127,-3.6493,-3.7257,-3.7646,-3.8161,0.0,-3.9825,-4.0545,-4.0926,-4.1506,-4.1936,-4.2063,-4.2104,-4.2104,-4.2092,-4.2092,-4.1968,-4.1577,-4.148,-4.1412,-4.1438,-4.1474,-4.1597,-4.1957,-4.2095,-4.2301,-4.2521,-4.2521,-4.2629,-4.29,-4.29,-4.29,-4.2873,-4.2388,-4.1678,-4.0923,-4.032,-4.0069,-4.0069,-4.0069,-4.0069,-3.9969,-3.9154,-3.8501,-3.7881,-3.6937,-3.6499,-3.6405,0.0,0.0,0.0,0.0,0.0,0.0,0.0,0.0,0.0,0.0,-1.9508,-1.9885,-2.005,-2.1025,-2.2105,-2.3193,-2.6009,-2.8598,-3.0704,-3.4384,-3.7038,-3.8282,-3.9652,-4.0685,-4.1308,-4.1535,-4.1723,-4.191,-4.2132,-4.2206,-4.2206,-4.2571,-4.2747,-4.2716,-4.2781,-4.2583,-4.2219,-4.21,-4.1633,-4.0941,-4.0941,-4.0532,-3.9776,-3.9338,-3.809,-3.6506,-3.6506,-3.6045,-3.534,-3.4606,-3.4272,-3.4213,-3.4636,-3.4483,-3.412,-3.3697,-3.3722,-3.389,-3.4238,0.0,0.0,-3.602,-3.6335,-3.6577,-3.7094,-3.7014,-3.6902,-3.7281,-3.725,-3.7409,-3.8218,-3.8552,-3.9013,-3.9934,-4.0689,-4.1203,-4.1366,-4.1977,-4.231,-4.2133,-4.2269,-4.231,-4.2133,-4.2092,-4.198,-4.1744,-4.1493,-4.1596,-4.1979,-4.1915,-4.215,-4.2656,-4.2849,-4.2916,-4.2873,-4.29,-4.29,-4.29,-4.29,-4.29,-4.29,-4.2609,-4.2026,-4.1112,-4.0867,-4.072,-4.0671,-4.0671,-4.0671,-4.0569,-3.9849,-3.9139,-3.846,-3.7526,-3.6861,-3.6405,0.0,0.0,0.0,0.0,0.0,0.0,0.0,0.0,0.0,0.0,0.0,0.0,0.0,-2.0436,-2.1334,-2.2346,-2.4492,-2.6837,-2.9319,-3.2072,-3.4826,-3.7513,-3.8304,-3.9429,-4.108,-4.1308,-4.1535,-4.1693,-4.191,-4.1984,-4.2021,-4.2206,-4.2316,-4.2285,-4.197,-4.1837,-4.181,-4.1361,-4.0743,-4.0152,-4.0152,-3.9746,-3.8997,-3.7468,-3.6413,-3.5732,-3.5732,-3.4659,-3.32,-3.2497,-3.2198,-3.2083,-3.2114,-3.2485,0.0,-3.3608,-3.4412,-3.5169,-3.5166,0.0,-3.6139,-3.7256,-3.7572,-3.7602,-3.7832,-3.7863,-3.7787,-3.7625,-3.7586,-3.7758,-3.8464,-3.9212,-4.0003,-4.0677,-4.1505,-4.2063,-4.2063,-4.2269,-4.231,-4.2133,-4.2269,-4.231,0.0,-4.2092,-4.198,-4.1744,-4.1493,-4.1596,-4.1979,-4.2338,-4.2597,-4.2684,-4.3283,-4.3375,-4.2873,-4.29,-4.29,-4.29,-4.29,-4.29,-4.29,-4.2609,-4.2338,-4.2065,-4.1769,-4.1521,-4.1298,-4.1298,-4.1298,-4.1219,-4.0618,-4.0236,-3.991,-3.8769,-3.7548,-3.6405,0.0,0.0,0.0,0.0,0.0,0.0,0.0,0.0,0.0,0.0,0.0,0.0,0.0,0.0,0.0,0.0,-2.2312,-2.4451,-2.6675,-2.9694,-3.2481,-3.4797,-3.6009,-3.711,-3.8105,-3.8286,-3.8502,-3.8715,-3.8923,-3.9063,-3.9169,-3.9347,-3.952,-3.9654,-3.9545,-3.9591,-3.9794,-3.9643,-3.9425,-3.9209,-3.8743,-3.8089,-3.7219,-3.5827,-3.4253,-3.2712,0.0,-3.1044,-3.0373,-3.0054,-2.986,-2.9877,-3.0719,-3.153,-3.2371,-3.3577,-3.463,-3.5603,-3.657,0.0,-3.7588,-3.8375,-3.8392,-3.8201,-3.8285,-3.8081,-3.7891,-3.7815,-3.7358,-3.7234,-3.7978,-3.8726,-3.9477,-4.0202,-4.1326,-4.2092,-4.2092,-4.2392,-4.2474,-4.2133,-4.2392,0.0,0.0,0.0,0.0,-4.1939,-4.1731,-4.1952,-4.275,-4.2786,-4.2974,-4.3283,-4.3504,-4.3375,-4.2873,-4.29,-4.29,-4.29,-4.29,-4.29,-4.29,-4.2609,-4.2338,-4.2065,-4.1845,-4.1547,-4.1324,-4.1324,-4.1324,-4.1298,-4.1089,-4.0392,-3.9495,-3.9058,-3.7928,-3.6593,0.0,0.0,0.0,0.0,0.0,0.0,0.0,0.0,0.0,0.0,0.0,0.0,0.0,0.0,0.0,0.0,0.0,-2.2619,-2.4626,-2.7246,-2.9724,-3.1927,-3.3223,-3.4313,-3.5195,-3.5394,-3.541,-3.5373,-3.5773,-3.5842,-3.5767,-3.6202,-3.6639,-3.7044,-3.7172,-3.7488,-3.7928,-3.796,-3.7683,-3.7219,-3.6817,-3.5952,-3.4816,-3.3464,-3.1962,0.0,-2.9026,-2.8284,-2.7953,-2.8177,-2.857,-2.9192,-3.0111,-3.146,-3.2819,-3.3727,-3.4968,-3.6255,-3.7372,-3.7982,-3.843,-3.8977,-3.8833,-3.8575,-3.853,-3.8269,-3.8005,-3.7891,-3.7327,-3.7032,-3.7776,-3.8448,-3.9159,-3.9963,-4.1221,-4.2092,-4.2092,-4.2392,-4.2474,-4.2133,-4.2392,-4.2474,0.0,0.0,0.0,-4.2092,-4.1856,-4.2122,-4.3152,-4.3032,-4.3149,-4.3729,-4.3662,-4.3423,-4.3018,-4.2949,-4.29,-4.29,-4.29,-4.29,-4.29,-4.2706,-4.2435,-4.2065,-4.1944,-4.1647,-4.1324,-4.1324,-4.1324,-4.1298,-4.1089,-4.0441,-3.9592,-3.9177,-3.8221,-3.7108,0.0,0.0,0.0,0.0,0.0,0.0,0.0,0.0,0.0,0.0,0.0,0.0,0.0,0.0,0.0,0.0,0.0,0.0,-2.3141,-2.4722,-2.6638,-2.9088,-2.9985,-3.1094,-3.2535,-3.2564,-3.2335,-3.187,-3.252,-3.2552,-3.205,-3.2886,-3.3727,-3.4483,-3.4821,-3.534,-3.5982,-3.6137,-3.543,-3.426,-3.4229,-3.3343,-3.1885,-3.054,-2.9515,-2.8677,-2.7346,-2.6518,-2.6123,-2.694,-2.8373,-2.9913,-3.0357,-3.2216,-3.4179,-3.4181,-3.5549,-3.7157,-3.7654,-3.825,-3.8813,-3.902,-3.8921,-3.8701,-3.845,-3.8264,-3.804,-3.7814,-3.7258,-3.7037,0.0,0.0,-3.9015,-3.9857,-4.1175,-4.2075,-4.2075,-4.2298,-4.2409,0.0,0.0,0.0,0.0,0.0,0.0,-4.2133,0.0,-4.2165,-4.3195,-4.3032,-4.324,-4.3993,-4.3757,-4.3519,-4.3307,-4.3018,-4.29,-4.29,-4.29,-4.29,-4.29,-4.29,-4.2631,-4.2141,-4.2141,-4.1796,-4.1324,-4.1324,-4.1324,-4.1246,-4.0644,-4.0409,-4.0226,-3.9128,-3.8381,-3.783,0.0,0.0,0.0,0.0,0.0,0.0,0.0,0.0,0.0,0.0,0.0,0.0,0.0,0.0,0.0,0.0,0.0,0.0,-2.126,-2.2984,-2.4737,-2.6416,-2.7536,-2.857,-2.9434,-2.9463,-2.9233,-2.8736,-2.9023,-2.89,-2.8446,-2.8758,-2.9337,-3.0098,-3.0292,-3.0822,-3.1539,-3.168,-3.1521,-3.1185,-3.0666,-3.0243,-2.9759,-2.8362,-2.737,-2.667,-2.594,-2.5826,-2.6123,-2.694,0.0,0.0,0.0,-3.3833,-3.4604,-3.6137,-3.7142,-3.7889,-3.8625,-3.9122,-3.9365,-3.8928,-3.8555,-3.8115,-3.7464,-3.7025,-3.6707,-3.6526,-3.5518,-3.4909,0.0,0.0,0.0,-3.8068,-4.0091,0.0,-4.1781,-4.2836,0.0,-4.3301,0.0,-4.3507,-4.3301,-4.282,0.0,0.0,-4.2104,-4.2434,-4.3415,-4.3253,-4.3466,-4.4275,-4.4021,-4.3689,-4.3307,-4.3018,-4.29,-4.29,-4.29,-4.29,-4.29,-4.29,-4.2728,-4.2387,-4.219,-4.1895,-4.1597,-4.1374,-4.1324,-4.1246,-4.0644,-4.0174,-3.9681,-3.8808,-3.7981,-3.7266,0.0,0.0,0.0,0.0,0.0,0.0,0.0,0.0,0.0,0.0,0.0,0.0,0.0,0.0,0.0,0.0,0.0,0.0,0.0,-2.1109,-2.2312,-2.3712,-2.4401,-2.5058,-2.5738,-2.5714,-2.5397,-2.4919,-2.5283,-2.5259,-2.4844,-2.5233,-2.585,-2.6644,-2.6817,-2.73,-2.7981,-2.8132,-2.8031,0.0,0.0,-2.6983,-2.6542,-2.5508,-2.5032,-2.4837,-2.4389,-2.5142,0.0,0.0,0.0,-3.2866,-3.4953,-3.595,-3.66,-3.7743,0.0,-3.8825,-3.9497,-3.9817,-3.9758,-3.8887,-3.8217,-3.7491,-3.633,-3.5546,-3.4911,-3.4278,-3.3477,0.0,0.0,0.0,0.0,0.0,0.0,0.0,-4.2723,-4.3515,-4.4068,0.0,-4.4312,0.0,-4.4145,-4.3555,-4.3089,0.0,-4.2526,-4.2644,-4.3545,-4.3457,-4.3763,-4.4555,-4.4303,-4.3879,-4.3307,-4.3115,-4.3018,-4.29,-4.29,-4.29,-4.29,-4.29,-4.2755,-4.2511,0.0,-4.1944,-4.1696,-4.1398,-4.1324,-4.1246,-4.0383,-3.9886,-3.9446,-3.8376,-3.7624,-3.7062,0.0,0.0,0.0,0.0,0.0,0.0,0.0,0.0,0.0,0.0,0.0,0.0,0.0,0.0,0.0,0.0,0.0,0.0,0.0,0.0,-2.0069,-2.1166,-2.1279,-2.1585,-2.2175,-2.2061,-2.1727,-2.1173,-2.1693,-2.1798,-2.1477,-2.2048,-2.279,-2.3626,-2.3874,-2.4343,-2.4915,-2.5129,-2.4867,-2.4327,-2.4327,-2.3901,-2.3174,0.0,-2.282,-2.3233,-2.3151,-2.4727,0.0,0.0,-3.3799,-3.5354,-3.6839,-3.8185,-3.9152,-3.9115,-3.9351,-3.977,-4.0247,-4.0331,-4.0008,-3.8901,-3.7936,-3.6828,-3.5008,-3.3823,-3.2764,-3.1561,0.0,-3.126,-3.2165,-3.4054,-3.6172,-3.8237,0.0,-4.2404,-4.3928,-4.4197,-4.4493,-4.5239,-4.5161,-4.4993,-4.4951,-4.4359,-4.3945,-4.3862,-4.3154,-4.2998,-4.3661,-4.3632,-4.3986,-4.4741,-4.4518,-4.4021,-4.3355,-4.3307,-4.3163,-4.29,-4.29,-4.29,-4.29,-4.29,-4.2803,-4.256,-4.2239,0.0,-4.1746,-4.1398,-4.1324,-4.1219,-4.0148,-3.9677,-3.942,-3.8117,-3.7371,-3.7062,0.0,0.0,0.0,0.0,0.0,0.0,0.0,0.0,0.0,0.0,-1.8931,-1.8741,0.0,0.0,0.0,0.0,0.0,0.0,0.0,0.0,0.0,-1.9663,-2.0146,-2.0438,-2.0412,-2.0412,-2.0113,-1.9523,-1.9299,-1.9168,-1.9095,-1.8884,-1.9401,-2.0571,-2.0686,-2.1137,-2.1883,-2.1959,-2.1975,-2.1969,-2.1969,-2.1889,-2.175,-2.1652,0.0,0.0,-2.3362,0.0,-2.7922,-3.1035,-3.3128,-3.4991,-3.7963,-3.9439,-4.0159,-4.0587,-4.0637,-4.0591,-4.0715,-4.0505,-3.9921,-3.8497,-3.7446,-3.6099,-3.3234,-3.1832,0.0,0.0,-2.8557,-2.8836,-3.0154,-3.2371,0.0,-3.6378,0.0,0.0,0.0,0.0,-4.5734,0.0,0.0,0.0,0.0,0.0,0.0,0.0,0.0,-4.444,-4.4208,-4.3806,-4.3986,-4.4741,-4.4303,-4.3926,-4.3566,-4.3403,-4.3163,-4.29,-4.29,-4.29,-4.29,-4.29,-4.29,-4.2776,-4.2338,0.0,-4.1993,-4.1498,-4.1324,-4.1246,-4.054,-3.9991,-3.9473,-3.8605,-3.7753,-3.7062,0.0,0.0,0.0,0.0,0.0,0.0,0.0,-1.96,-1.996,-2.0088,-1.9622,-1.913,-1.8643,-1.8372,-1.8234,0.0,0.0,0.0,0.0,0.0,0.0,0.0,-1.9016,-1.91,-1.8948,-1.8934,-1.8632,0.0,0.0,-1.7635,-1.7404,0.0,-1.7764,-1.8645,-1.8464,-1.8777,-1.9479,-1.9508,-1.9613,-1.9767,-2.006,-2.0206,-2.0226,0.0,0.0,0.0,0.0,0.0,0.0,-2.8817,-3.098,-3.3292,-3.714,-3.9251,-4.0287,-4.0189,-4.0556,-4.0916,-4.0848,-4.0433,-3.9736,-3.8455,-3.7042,-3.5121,-3.202,0.0,0.0,0.0,-2.6522,-2.7286,-2.8706,0.0,0.0,0.0,0.0,0.0,0.0,0.0,0.0,0.0,0.0,0.0,0.0,0.0,0.0,0.0,0.0,-4.5077,-4.4834,-4.4675,-4.469,-4.4926,-4.4612,-4.4162,-4.3614,-4.3519,-4.3259,-4.29,-4.29,-4.29,-4.29,-4.29,-4.29,-4.29,-4.2338,0.0,-4.2065,-4.1498,-4.1324,-4.1246,-4.0644,-4.0252,-3.9916,-3.9103,-3.839,-3.7685,0.0,0.0,0.0,0.0,0.0,0.0,0.0,-1.9855,-2.0295,-2.0909,-2.0514,-1.9863,-1.9034,-1.8503,-1.8183,0.0,0.0,0.0,0.0,0.0,0.0,0.0,0.0,0.0,0.0,0.0,0.0,0.0,0.0,0.0,0.0,0.0,0.0,0.0,0.0,-1.7227,-1.7763,-1.7924,-1.8065,0.0,0.0,0.0,0.0,0.0,0.0,0.0,0.0,0.0,0.0,0.0,-2.8724,-3.1017,-3.4711,-3.7518,-3.9408,-3.9031,-3.9689,-4.0462,-4.0453,-4.0044,-3.9354,-3.8378,-3.6655,-3.4363,-3.1168,-2.9271,0.0,0.0,-2.4836,-2.5925,-2.7285,0.0,-3.379,0.0,0.0,0.0,0.0,0.0,0.0,0.0,0.0,0.0,0.0,0.0,0.0,0.0,0.0,0.0,-4.5317,-4.5473,-4.5458,-4.511,-4.4862,-4.435,-4.3586,-4.3566,-4.3328,-4.29,-4.29,-4.29,-4.29,-4.29,-4.29,-4.2873,-4.2387,0.0,0.0,-4.1647,-4.1448,-4.1421,-4.09,-4.0589,-4.0406,-3.9719,-3.9055,-3.8467,0.0,0.0,0.0,0.0,0.0,0.0,0.0,-2.0193,-2.0731,-2.0967,-2.124,-2.0976,-1.9847,-1.8815,-1.8135,0.0,0.0,0.0,0.0,0.0,0.0,0.0,0.0,0.0,0.0,0.0,0.0,0.0,0.0,0.0,0.0,0.0,0.0,0.0,0.0,0.0,0.0,-1.7634,0.0,0.0,0.0,0.0,0.0,0.0,0.0,0.0,0.0,0.0,0.0,0.0,0.0,-2.8388,-3.0078,-3.3406,-3.6882,-3.7512,0.0,0.0,-3.925,-3.9182,-3.8673,-3.7801,-3.6382,-3.4271,-3.0676,0.0,0.0,-2.367,-2.349,-2.4263,-2.5423,-2.8323,-3.1278,0.0,0.0,-4.0142,0.0,0.0,0.0,0.0,0.0,0.0,0.0,0.0,0.0,0.0,0.0,0.0,-4.5376,-4.5651,-4.564,-4.511,-4.4676,-4.4162,-4.3614,-4.3451,-4.3163,-4.29,-4.29,-4.29,-4.29,-4.29,-4.29,-4.29,-4.2609,0.0,0.0,-4.2141,-4.2043,-4.1967,-4.1693,-4.1251,-4.0728,-4.0406,-3.9797,-3.9062,0.0,0.0,0.0,0.0,0.0,0.0,-1.9754,-2.0352,-2.0991,-2.196,-2.1485,-2.0884,-2.039,-1.9079,-1.8234,-1.8115,0.0,0.0,0.0,0.0,0.0,0.0,0.0,0.0,0.0,0.0,0.0,-1.7055,0.0,0.0,0.0,0.0,0.0,0.0,0.0,0.0,0.0,0.0,0.0,0.0,0.0,0.0,0.0,0.0,0.0,0.0,0.0,0.0,0.0,0.0,0.0,0.0,-2.5796,-2.8046,0.0,0.0,-3.6603,-3.7991,-3.9031,-3.8905,-3.8372,-3.7776,-3.6261,-3.4046,-3.0796,0.0,-2.7037,-2.3911,-2.3723,-2.4458,-2.5546,-2.8275,-3.1122,-3.3517,-3.666,0.0,0.0,0.0,0.0,0.0,0.0,0.0,0.0,0.0,0.0,0.0,0.0,0.0,-4.6575,-4.6211,-4.5866,-4.5367,-4.4862,-4.4303,-4.3586,-4.3403,-4.3163,-4.29,-4.29,-4.29,-4.29,-4.29,-4.29,-4.29,-4.2609,0.0,0.0,-4.219,-4.2065,-4.2065,-4.1993,-4.1713,-4.1353,-4.1255,-4.0641,-3.9901,0.0,0.0,0.0,0.0,0.0,-1.8194,-1.9641,-2.0084,-2.0713,-2.2023,-2.1277,-2.0563,-2.0385,-1.9317,-1.8424,-1.7973,-1.7907,0.0,0.0,0.0,0.0,0.0,0.0,0.0,0.0,0.0,-1.7643,-1.7112,-1.6674,0.0,0.0,0.0,0.0,0.0,0.0,0.0,0.0,0.0,0.0,0.0,0.0,0.0,0.0,0.0,0.0,0.0,0.0,0.0,0.0,0.0,0.0,0.0,0.0,-2.4256,-2.6607,0.0,-3.4368,-3.6222,-3.7801,-3.7773,-3.7305,-3.7031,-3.5416,-3.3187,0.0,0.0,-2.6688,-2.419,-2.3827,-2.432,-2.557,-2.7691,-3.0128,-3.2668,-3.5707,-3.8835,0.0,0.0,0.0,0.0,0.0,0.0,0.0,0.0,0.0,0.0,0.0,0.0,-4.7568,-4.6887,-4.6225,-4.5504,-4.4954,-4.435,-4.3586,-4.3259,-4.3018,-4.29,-4.2852,-4.2852,-4.29,-4.29,-4.29,-4.29,-4.2706,0.0,0.0,-4.2435,-4.2338,-4.2338,-4.2239,-4.2092,-4.1895,-4.1746,-4.1334,-4.072,0.0,0.0,0.0,0.0,0.0,0.0,-1.8976,-1.9335,-1.9814,-2.0605,-2.0606,-2.0267,-1.9664,-1.9486,-1.8839,-1.742,-1.7196,0.0,0.0,0.0,0.0,0.0,0.0,0.0,0.0,0.0,-1.7643,-1.7112,-1.7085,-1.6537,-1.5491,-1.5491,0.0,0.0,0.0,0.0,0.0,0.0,0.0,0.0,0.0,0.0,0.0,0.0,0.0,0.0,0.0,0.0,0.0,0.0,0.0,0.0,0.0,-2.279,-2.4296,-2.8716,-3.1074,-3.2673,-3.4995,-3.5394,-3.5166,-3.5307,-3.354,-3.1452,0.0,0.0,-2.5265,-2.4294,-2.3456,-2.3429,-2.5086,-2.6081,-2.7525,-3.0191,-3.3301,0.0,0.0,0.0,0.0,0.0,0.0,0.0,0.0,0.0,0.0,0.0,0.0,0.0,-4.8007,-4.7568,-4.6712,-4.5549,-4.4769,-4.4162,-4.3614,-4.2873,-4.2658,-4.29,-4.2658,-4.2658,-4.29,-4.29,-4.29,0.0,0.0,0.0,0.0,-4.29,-4.29,-4.29,-4.2609,-4.2511,-4.2413,-4.1895,-4.1696,-4.1597,0.0,0.0,0.0,0.0,0.0,0.0,0.0,-1.9059,-1.951,-2.0366,-2.0083,-1.9744,-1.9636,-1.8745,-1.7916,-1.7365,-1.7253,0.0,0.0,0.0,0.0,0.0,0.0,0.0,0.0,-1.7935,-1.8125,-1.8466,-1.7774,-1.7516,-1.7646,-1.6377,-1.5656,-1.5438,0.0,0.0,0.0,0.0,0.0,0.0,0.0,0.0,0.0,0.0,0.0,0.0,0.0,0.0,0.0,0.0,0.0,0.0,0.0,0.0,0.0,-2.4813,-2.7359,0.0,-3.2108,-3.2673,-3.259,-3.2435,-3.1539,-3.012,-2.8085,0.0,-2.5206,-2.3886,-2.3425,-2.3641,-2.4962,-2.6082,-2.7689,-3.0434,-3.324,-3.6136,0.0,0.0,0.0,0.0,0.0,0.0,0.0,0.0,0.0,0.0,0.0,0.0,-4.8049,-4.7666,-4.7019,-4.6001,-4.5247,-4.4583,-4.3879,-4.3307,-4.297,-4.29,-4.2803,-4.2852,-4.29,-4.29,-4.29,0.0,0.0,0.0,0.0,-4.29,-4.29,-4.29,-4.2803,-4.2658,-4.2462,-4.2092,-4.1845,-4.1597,0.0,0.0,0.0,0.0,0.0,0.0,0.0,-1.8542,-1.8906,-1.951,-1.9263,-1.9079,-1.9119,-1.8199,-1.745,-1.7033,-1.6775,0.0,0.0,0.0,0.0,0.0,0.0,0.0,-1.7902,-1.8214,-1.8618,-1.9086,-1.8771,-1.8734,-1.9004,-1.7549,-1.6768,-1.6496,-1.549,-1.5368,0.0,0.0,0.0,0.0,0.0,0.0,-1.8827,0.0,0.0,0.0,0.0,0.0,0.0,0.0,0.0,0.0,0.0,0.0,0.0,0.0,-2.4092,-2.6314,0.0,-3.0211,-3.0188,-3.007,-2.9295,0.0,0.0,0.0,-2.4081,-2.3639,-2.3526,-2.3945,-2.533,-2.639,-2.785,-3.0262,-3.2933,0.0,0.0,0.0,0.0,0.0,0.0,0.0,0.0,0.0,0.0,0.0,0.0,0.0,-4.8049,-4.7595,-4.6933,-4.6021,-4.5405,-4.4769,-4.4021,-4.3403,-4.3067,-4.29,-4.302,-4.3128,-4.3226,-4.3226,-4.3226,0.0,0.0,0.0,0.0,-4.29,-4.29,-4.29,-4.29,-4.2803,-4.2609,-4.2239,-4.1993,-4.1796,0.0,0.0,0.0,0.0,0.0,0.0,0.0,-1.7855,-1.8055,-1.8183,-1.8254,-1.8285,-1.8305,-1.788,-1.7282,-1.6567,0.0,0.0,0.0,0.0,0.0,0.0,0.0,0.0,-1.7902,-1.8618,-1.9051,-1.919,-1.9927,-2.0098,-1.9721,-1.8979,-1.835,-1.7784,-1.6319,-1.5965,-1.6514,-1.7061,-1.7661,-1.8285,-1.8439,-1.8576,0.0,0.0,0.0,0.0,0.0,0.0,0.0,0.0,0.0,0.0,0.0,0.0,0.0,0.0,0.0,0.0,0.0,-2.7834,0.0,0.0,0.0,0.0,0.0,0.0,0.0,-2.3494,-2.3789,-2.4299,-2.5975,-2.6895,-2.8001,-2.9742,-3.244,0.0,0.0,0.0,0.0,0.0,0.0,0.0,0.0,0.0,0.0,0.0,0.0,0.0,-4.7988,-4.7338,-4.6557,-4.5561,-4.5252,-4.473,-4.4012,-4.328,-4.2949,-4.3003,-4.3278,-4.3598,-4.3823,-4.3823,-4.3823,0.0,0.0,0.0,0.0,-4.29,-4.29,-4.29,-4.29,-4.29,-4.2852,-4.2338,-4.2141,-4.2043,0.0,0.0,0.0,0.0,0.0,0.0,0.0,0.0,0.0,0.0,-1.8048,-1.8127,-1.8285,-1.7795,-1.7181,0.0,0.0,0.0,0.0,0.0,0.0,0.0,0.0,0.0,-1.7996,-1.87,-1.9377,-1.9927,-2.0715,-2.1078,-2.0953,-2.0331,-1.9434,-1.8266,-1.6846,-1.6224,-1.6236,-1.6818,-1.7534,-1.8242,-1.8262,-1.8439,0.0,0.0,0.0,0.0,-1.7453,-1.7661,0.0,0.0,0.0,0.0,0.0,0.0,0.0,0.0,-2.0799,-2.1737,-2.3397,0.0,-2.5059,-2.5091,-2.4817,-2.4335,0.0,0.0,0.0,0.0,0.0,0.0,0.0,-2.6856,-2.809,-2.9914,0.0,0.0,0.0,0.0,0.0,0.0,0.0,0.0,0.0,0.0,0.0,0.0,0.0,0.0,-4.7289,-4.7095,-4.6346,-4.4912,-4.5055,-4.4755,-4.385,-4.3582,-4.3575,-4.3901,-4.3764,-4.3963,-4.4474,-4.4474,-4.423,0.0,0.0,0.0,-4.29,-4.29,-4.29,-4.29,-4.29,-4.29,-4.2852,-4.2533,-4.2289,-4.2016,0.0,0.0,0.0,0.0,0.0,0.0,0.0,0.0,0.0,0.0,0.0,0.0,0.0,0.0,0.0,0.0,0.0,0.0,0.0,0.0,0.0,0.0,0.0,-1.8173,-1.8508,-1.9239,-2.0073,-2.103,-2.1805,-2.2348,-2.2649,-2.1722,-2.0768,-1.978,-1.8026,-1.6803,-1.62,-1.7033,-1.7683,-1.8115,-1.8183,0.0,0.0,0.0,0.0,0.0,-1.7566,-1.7794,0.0,-1.8755,-1.9223,-1.9611,0.0,0.0,0.0,0.0,-2.0533,-2.1387,-2.2176,-2.3342,-2.4358,-2.4409,-2.4428,-2.4239,-2.3512,0.0,0.0,0.0,0.0,0.0,0.0,0.0,0.0,0.0,0.0,0.0,0.0,0.0,0.0,0.0,0.0,0.0,0.0,0.0,0.0,0.0,0.0,0.0,-4.6548,-4.6275,-4.5503,-4.4234,-4.4555,-4.4457,-4.3806,-4.392,-4.4041,-4.4217,-4.4316,-4.4679,-4.5098,-4.5098,-4.4773,0.0,0.0,0.0,-4.29,-4.29,-4.29,-4.29,-4.29,-4.29,-4.29,-4.2609,-4.2338,-4.2065,0.0,0.0,0.0,0.0,0.0,0.0,0.0,0.0,0.0,0.0,0.0,0.0,0.0,0.0,0.0,0.0,0.0,0.0,0.0,0.0,0.0,0.0,-1.8361,-1.8589,-1.9107,-1.9989,-2.0974,-2.203,-2.3049,-2.3737,-2.4148,-2.3227,-2.224,-2.1213,-1.912,-1.751,-1.6382,-1.7371,-1.7854,-1.8008,-1.8163,0.0,0.0,0.0,0.0,0.0,0.0,0.0,0.0,-1.9148,-1.9501,-1.9611,-1.9672,0.0,0.0,0.0,0.0,0.0,-2.2198,-2.3679,-2.502,-2.5091,-2.51,-2.4963,-2.4516,0.0,0.0,0.0,0.0,0.0,0.0,0.0,0.0,0.0,0.0,0.0,0.0,0.0,0.0,0.0,0.0,0.0,0.0,0.0,0.0,0.0,0.0,-4.6251,-4.5849,-4.5253,-4.4519,-4.3702,-4.4027,-4.4037,-4.3851,-4.4311,-4.4494,-4.4404,-4.4957,-4.5407,-4.5723,-4.5723,-4.5397,-4.48,0.0,0.0,-4.3009,-4.2928,-4.29,-4.29,-4.29,-4.29,-4.29,-4.2658,-4.2387,-4.2141,0.0,0.0,0.0,0.0,0.0,0.0,0.0,0.0,0.0,0.0,0.0,0.0,0.0,0.0,0.0,0.0,0.0,0.0,0.0,0.0,0.0,-1.9195,-1.9031,-1.9066,-1.9252,-2.0868,-2.1885,-2.217,-2.439,-2.5006,-2.4132,-2.495,-2.3578,-2.032,-1.8864,-1.773,-1.6975,-1.7098,-1.7452,-1.8008,-1.8163,0.0,0.0,0.0,0.0,0.0,0.0,0.0,0.0,-1.9288,-1.9501,-1.9611,-1.9672,0.0,0.0,0.0,0.0,0.0,-2.2666,-2.4823,-2.6749,-2.6614,-2.6512,-2.6502,-2.6598,0.0,0.0,0.0,0.0,0.0,0.0,0.0,0.0,0.0,0.0,0.0,0.0,0.0,0.0,0.0,0.0,0.0,0.0,0.0,0.0,0.0,0.0,0.0,-4.5181,-4.466,-4.4195,-4.3691,-4.3887,-4.4022,-4.415,-4.4809,-4.5204,-4.5228,-4.566,-4.6007,-4.6347,-4.6347,-4.6021,-4.5424,0.0,-4.4203,-4.3655,-4.309,-4.29,-4.29,-4.29,-4.29,-4.29,-4.2852,-4.2706,-4.2364,0.0,0.0,0.0,0.0,0.0,0.0,0.0,0.0,0.0,0.0,0.0,0.0,0.0,0.0,0.0,0.0,0.0,0.0,0.0,0.0,-1.8691,-1.9376,-1.9691,-2.021,-2.0972,-2.1795,-2.2917,-2.432,-2.5452,-2.6046,-2.6075,-2.5288,-2.3463,-2.0728,-1.9329,-1.8321,-1.7683,-1.7554,-1.765,-1.7955,0.0,0.0,0.0,0.0,0.0,0.0,0.0,0.0,0.0,0.0,-1.9428,-1.952,-1.9629,0.0,0.0,0.0,0.0,0.0,-2.3658,-2.5887,-2.7915,-2.8707,-2.8662,-2.8451,-2.8621,-2.7924,0.0,0.0,0.0,0.0,0.0,0.0,0.0,0.0,0.0,0.0,0.0,0.0,0.0,0.0,0.0,0.0,0.0,0.0,0.0,0.0,0.0,0.0,-4.4482,-4.4018,-4.3756,-4.3691,-4.3844,-4.4152,-4.4681,-4.5449,-4.5679,-4.5415,-4.5949,-4.6326,-4.6482,-4.6482,-4.6157,-4.556,0.0,-4.4339,-4.3764,-4.3145,-4.29,-4.29,-4.29,-4.29,-4.2873,-4.2582,-4.2387,-4.219,0.0,0.0,0.0,0.0,0.0,0.0,0.0,0.0,0.0,0.0,0.0,0.0,0.0,0.0,0.0,0.0,0.0,0.0,0.0,-1.8285,-1.8687,-1.9551,-2.0154,-2.1109,-2.2379,-2.2857,-2.4131,-2.6179,-2.6605,-2.7173,-2.7793,-2.5427,-2.3375,-2.1659,-2.0206,-1.9218,-1.8617,-1.8413,-1.8249,-1.814,0.0,0.0,0.0,0.0,0.0,0.0,0.0,0.0,0.0,0.0,0.0,0.0,0.0,0.0,0.0,-2.0718,-2.1544,-2.2616,-2.4507,-2.6656,-2.8756,-3.0181,-3.039,-3.0298,-3.0629,-3.0249,-2.9872,0.0,0.0,0.0,0.0,0.0,0.0,0.0,0.0,0.0,0.0,0.0,0.0,0.0,0.0,0.0,0.0,0.0,0.0,0.0,0.0,0.0,-4.3783,-4.3388,-4.3397,-4.3897,-4.4065,-4.4538,-4.5338,-4.5974,-4.6132,-4.5636,-4.622,-4.6487,-4.6482,-4.6482,-4.6238,-4.575,-4.5017,-4.4447,-4.3932,-4.3199,-4.29,-4.29,-4.29,-4.2792,-4.2662,-4.2333,-4.2035,-4.1856,0.0,0.0,0.0,0.0,0.0,0.0,0.0,0.0,0.0,0.0,0.0,0.0,0.0,0.0,0.0,0.0,0.0,0.0,0.0,-1.8274,-1.8834,-2.0082,-2.0358,-2.1109,-2.2379,-2.4209,-2.5569,-2.6367,-2.8111,-2.8653,-2.7938,-2.5876,-2.4247,-2.2901,-2.1578,-2.0551,-1.986,-1.9707,-1.932,-1.8738,-1.8822,0.0,0.0,0.0,0.0,0.0,0.0,0.0,0.0,0.0,0.0,0.0,0.0,0.0,-2.0593,-2.1406,-2.2503,-2.3704,-2.4728,-2.6944,-2.9185,-3.0176,-3.0948,-3.172,-3.264,-3.2311,-3.2017,-3.284,0.0,0.0,0.0,0.0,0.0,0.0,0.0,0.0,0.0,0.0,0.0,0.0,0.0,0.0,0.0,0.0,0.0,0.0,0.0,0.0,-4.3047,-4.2872,-4.3278,-4.4516,-4.4831,-4.5338,-4.6024,-4.6504,-4.6623,-4.6349,-4.6699,-4.6742,-4.6482,-4.6482,-4.6455,-4.6347,-4.5207,-4.4691,-4.4556,-4.3362,-4.29,-4.29,-4.29,-4.2548,-4.2093,-4.2345,-4.1941,-4.1298,0.0,0.0,0.0,0.0,0.0,0.0,0.0,0.0,0.0,0.0,0.0,0.0,0.0,0.0,0.0,0.0,0.0,0.0,0.0,-1.8214,-1.8683,-1.967,-2.0295,-2.144,-2.3117,-2.4328,-2.5842,-2.7651,-2.8655,-2.8737,-2.7967,-2.6327,-2.487,-2.3532,-2.2062,-2.1061,-2.0388,-1.9947,-1.9609,-1.9342,-1.902,-1.8782,0.0,0.0,0.0,0.0,0.0,0.0,0.0,0.0,-1.9372,-1.9856,-2.0283,-2.1109,-2.1983,-2.2682,-2.352,-2.45,-2.5764,-2.7516,-2.9311,-3.0566,-3.1832,-3.2983,-3.3861,-3.4369,-3.4823,-3.5571,-3.5468,0.0,0.0,0.0,0.0,0.0,0.0,0.0,0.0,0.0,0.0,0.0,0.0,0.0,0.0,0.0,0.0,0.0,0.0,0.0,0.0,-4.311,-4.3926,-4.5151,-4.5133,-4.5795,-4.7224,-4.6805,-4.6699,-4.6956,-4.6919,-4.6796,-4.6482,-4.6482,-4.6265,-4.5885,-4.5071,-4.4474,-4.4067,-4.3226,-4.2683,-4.2304,-4.1924,-4.1558,-4.118,-4.1159,-4.1058,-4.0949,0.0,0.0,0.0,0.0,0.0,0.0,0.0,0.0,0.0,0.0,0.0,0.0,0.0,0.0,0.0,0.0,0.0,0.0,-1.8143,-1.8183,-1.8559,-1.9348,-2.0245,-2.1534,-2.332,-2.4072,-2.5654,-2.8166,-2.8656,-2.8511,-2.7826,-2.6551,-2.5372,-2.4254,-2.2893,-2.2031,-2.1595,-2.1094,-2.0619,-2.0188,-1.9848,-1.9374,0.0,0.0,0.0,0.0,0.0,0.0,0.0,0.0,-1.9382,-2.0146,-2.0813,-2.188,-2.3046,-2.3977,-2.4717,-2.5518,-2.6772,-2.8188,-2.9677,-3.1155,-3.264,-3.4073,-3.5302,-3.5975,-3.6621,-3.7651,-3.7613,-3.7543,0.0,0.0,0.0,0.0,0.0,0.0,0.0,0.0,0.0,0.0,0.0,0.0,0.0,0.0,0.0,0.0,0.0,0.0,0.0,-4.3426,-4.4326,-4.5727,-4.5722,-4.6405,-4.7791,-4.7075,-4.6901,-4.7288,-4.6925,-4.6692,-4.6482,-4.6482,-4.6157,-4.556,-4.4963,-4.4339,-4.3764,-4.2928,-4.2201,-4.1538,-4.1132,-4.0695,-4.0328,-4.0233,-4.0256,-4.0303,0.0,0.0,0.0,0.0,0.0,0.0,0.0,0.0,0.0,0.0,0.0,0.0,0.0,0.0,0.0,0.0,0.0,0.0,-1.8063,-1.8115,-1.8559,-1.9348,-2.0216,-2.1348,-2.2781,-2.3502,-2.5139,-2.7695,-2.8166,-2.8081,-2.7475,-2.6544,-2.5785,-2.5161,-2.4205,-2.3721,-2.359,-2.3463,-2.2651,-2.1412,-2.1412,-2.0397,-1.8904,0.0,0.0,0.0,0.0,0.0,0.0,0.0,-1.9117,-1.9908,-2.1787,-2.2832,-2.3622,-2.5156,-2.6093,-2.6776,-2.7585,-2.8884,-3.0377,-3.1857,0.0,0.0,-3.7061,-3.7094,-3.7219,-3.8968,-3.9409,-3.9503,-3.9503,0.0,0.0,0.0,0.0,0.0,0.0,0.0,0.0,0.0,0.0,0.0,0.0,0.0,0.0,0.0,0.0,0.0,0.0,-4.3634,-4.4405,-4.6151,-4.6724,-4.7222,-4.7603,-4.742,-4.7288,-4.7288,-4.6796,-4.6482,-4.6482,-4.6482,-4.6157,-4.556,-4.4963,-4.4339,-4.371,-4.2466,-4.1484,-4.0683,-4.0683,-4.0194,-3.9535,-3.9885,-3.9612,-3.9222,0.0,0.0,0.0,0.0,0.0,0.0,0.0,0.0,0.0,0.0,0.0,0.0,0.0,0.0,0.0,0.0,0.0,0.0,-1.892,-1.8524,-1.8456,-1.8897,-1.9652,-2.0689,-2.2089,-2.3705,-2.5346,-2.7055,-2.7639,-2.7759,-2.7475,-2.6544,-2.5731,-2.5033,-2.4415,-2.3899,-2.3515,-2.3228,-2.2881,-2.2451,-2.149,-2.0823,-2.0258,0.0,0.0,0.0,0.0,0.0,0.0,0.0,0.0,0.0,-2.117,-2.2981,-2.4752,-2.5277,-2.6599,-2.7935,-2.817,-2.9702,0.0,-3.3087,0.0,0.0,0.0,-3.8515,0.0,0.0,-4.0037,-4.0133,-4.0229,0.0,0.0,0.0,0.0,0.0,0.0,0.0,0.0,0.0,0.0,0.0,0.0,0.0,0.0,0.0,0.0,0.0,0.0,-4.4442,-4.5551,-4.6794,-4.7328,-4.782,-4.8226,-4.7615,-4.7288,-4.7288,-4.6796,-4.6482,-4.6482,-4.6482,-4.5912,-4.4963,-4.4773,-4.3877,-4.2439,-4.1031,-4.0206,-3.9833,-3.9406,-3.8956,-3.8595,-3.8708,-3.878,-3.8935,0.0,0.0,0.0,0.0,0.0,0.0,0.0,0.0,0.0,0.0,-2.1919,-2.2287,0.0,0.0,0.0,0.0,0.0,0.0,-1.9301,-1.8667,-1.845,-1.8721,-1.9427,-2.0473,-2.1867,-2.3554,-2.4849,-2.5658,-2.6533,-2.7031,-2.7211,-2.6565,-2.5978,-2.5505,-2.5104,-2.4694,-2.4283,-2.3933,-2.3581,-2.3205,-2.2326,-2.1506,-2.0716,0.0,0.0,0.0,0.0,0.0,0.0,0.0,0.0,0.0,-2.1017,-2.2944,-2.4804,-2.5815,-2.7157,-2.8459,-2.899,-3.0612,0.0,-3.391,-3.4881,-3.6071,-3.8366,0.0,0.0,0.0,0.0,0.0,0.0,0.0,0.0,0.0,0.0,0.0,0.0,0.0,0.0,0.0,0.0,0.0,0.0,0.0,0.0,0.0,0.0,0.0,0.0,-4.5247,-4.6358,-4.7143,-4.7635,-4.8027,-4.8358,-4.7647,-4.7288,-4.7288,-4.6796,-4.6294,-4.5973,-4.6077,-4.5562,-4.4486,-4.3683,-4.2447,-4.0965,-4.0053,-3.9413,-3.8944,-3.8599,-3.8285,-3.8103,-3.8103,-3.8129,-3.8361,0.0,0.0,0.0,0.0,0.0,0.0,0.0,0.0,0.0,0.0,-2.2249,-2.2569,0.0,0.0,0.0,0.0,0.0,0.0,0.0,-1.8771,-1.8517,-1.8798,-1.9495,-2.0563,-2.1888,-2.3165,-2.3862,-2.3978,-2.5197,-2.6123,-2.6733,-2.6575,-2.6445,-2.6313,-2.6043,-2.5743,-2.5494,-2.5131,-2.4497,-2.3708,-2.3433,-2.2243,-2.0602,-1.9804,0.0,0.0,0.0,0.0,0.0,0.0,0.0,0.0,-2.0966,-2.2611,-2.412,-2.6348,-2.7535,-2.8473,-2.9885,-3.1511,0.0,-3.4452,-3.5542,0.0,-3.7792,0.0,0.0,0.0,0.0,0.0,0.0,0.0,0.0,0.0,0.0,0.0,0.0,0.0,0.0,0.0,0.0,0.0,0.0,0.0,0.0,0.0,0.0,0.0,0.0,-4.6121,-4.6897,-4.7386,-4.7778,-4.8013,-4.8134,-4.7545,-4.7288,-4.7288,-4.6744,-4.6,-4.5173,-4.5432,-4.5026,-4.399,-4.1923,-4.044,-3.9455,-3.9401,-3.8872,-3.8167,-3.8167,-3.8057,-3.79,-3.79,-3.7716,-3.7661,0.0,0.0,0.0,0.0,0.0,0.0,0.0,0.0,0.0,0.0,0.0,0.0,0.0,0.0,0.0,0.0,0.0,0.0,0.0,-1.9544,-1.9055,-1.8798,-2.0036,-2.0889,-2.122,-2.2446,-2.3606,-2.4621,-2.54,-2.5865,-2.601,-2.6347,-2.6469,-2.6445,-2.6069,-2.5825,-2.5633,-2.5048,-2.454,-2.395,-2.3051,-2.2074,-2.0964,-1.9356,-1.8362,0.0,0.0,0.0,0.0,0.0,0.0,0.0,-1.8956,-2.129,-2.3736,-2.5019,-2.6546,-2.8146,-2.9717,-3.1634,0.0,0.0,-3.7361,-3.907,-3.8857,0.0,0.0,0.0,0.0,0.0,0.0,0.0,0.0,0.0,0.0,0.0,0.0,0.0,0.0,0.0,0.0,0.0,0.0,0.0,0.0,0.0,0.0,0.0,-4.6426,-4.6993,-4.757,-4.8067,-4.8514,-4.8518,-4.8134,-4.7545,-4.7288,0.0,-4.6508,-4.579,-4.5173,-4.5225,-4.4289,-4.2457,-4.0648,-3.9601,-3.9124,-3.8674,-3.8299,-3.7965,-3.7965,-3.7946,-3.79,-3.79,-3.7716,-3.7661,0.0,0.0,0.0,0.0,0.0,0.0,0.0,0.0,0.0,0.0,0.0,0.0,0.0,0.0,0.0,0.0,0.0,0.0,0.0,0.0,-1.9216,-1.8827,-2.022,-2.0988,-2.0988,-2.2556,-2.3693,-2.436,-2.5708,-2.6546,-2.6867,-2.7053,-2.7292,-2.7527,-2.6857,-2.6468,-2.6218,-2.5353,-2.4708,-2.4195,-2.3383,-2.2337,-2.112,-1.944,-1.8261,-1.7242,-1.5153,0.0,0.0,0.0,0.0,0.0,0.0,0.0,-2.1937,-2.3602,-2.529,-2.7093,-2.9371,0.0,0.0,-3.6007,0.0,-3.9546,-3.8852,0.0,0.0,0.0,0.0,0.0,0.0,0.0,0.0,0.0,0.0,0.0,0.0,0.0,0.0,0.0,0.0,0.0,0.0,0.0,0.0,0.0,0.0,-4.6062,-4.6697,-4.7539,-4.805,-4.8075,-4.8616,-4.866,-4.8134,-4.7545,-4.7288,-4.7288,-4.6157,-4.5042,-4.3955,-4.3661,-4.2628,-4.1041,-3.9706,-3.8879,-3.8477,-3.8188,-3.7965,-3.79,-3.79,-3.79,-3.79,-3.7762,-3.7551,-3.7423,0.0,0.0,0.0,0.0,0.0,0.0,0.0,0.0,0.0,0.0,0.0,0.0,0.0,0.0,0.0,0.0,0.0,0.0,0.0,0.0,0.0,-1.8865,-2.02,-2.0967,-2.0988,-2.2881,-2.3949,-2.4065,-2.6184,-2.7668,-2.8519,-2.8257,-2.8351,-2.8708,-2.7878,-2.7398,-2.706,-2.6048,-2.5264,-2.4669,-2.4024,-2.2803,-2.1241,-1.9743,-1.8392,-1.7025,-1.5033,-1.4305,-1.4235,-1.4267,0.0,0.0,0.0,0.0,-2.0061,-2.2305,-2.3922,-2.5654,-2.8794,0.0,-3.4135,-3.6892,-3.8422,0.0,0.0,0.0,0.0,0.0,0.0,0.0,0.0,0.0,0.0,0.0,0.0,0.0,0.0,0.0,0.0,0.0,0.0,0.0,0.0,0.0,0.0,0.0,0.0,-4.6734,-4.6948,-4.8054,-4.85,-4.8081,-4.8623,-4.866,-4.8134,-4.7545,-4.7288,-4.7288,-4.5698,-4.4086,-4.2433,-4.1673,-4.083,-3.9881,-3.8961,-3.8318,-3.79,-3.79,-3.79,-3.79,-3.79,-3.7854,-3.7808,-3.7551,-3.732,-3.7092,0.0,0.0,0.0,0.0,0.0,0.0,0.0,0.0,0.0,0.0,-2.2917,0.0,0.0,0.0,0.0,0.0,0.0,0.0,0.0,0.0,0.0,-1.8989,-2.016,-2.0885,-2.0988,-2.2814,-2.4033,-2.4679,-2.696,-2.8948,-3.066,-2.951,-2.8926,-2.8876,-2.8621,-2.8339,-2.7997,-2.7422,-2.6536,-2.5461,-2.4688,-2.336,-2.1666,-2.0133,-1.8703,-1.7342,-1.5845,-1.4754,-1.4002,-1.3839,-1.4387,0.0,0.0,0.0,-1.9615,-2.145,-2.2575,-2.4025,0.0,0.0,-3.4758,0.0,-3.8392,0.0,0.0,0.0,0.0,0.0,0.0,0.0,0.0,0.0,0.0,0.0,0.0,0.0,0.0,0.0,0.0,0.0,0.0,0.0,0.0,0.0,0.0,0.0,-4.7279,-4.8075,-4.8231,-4.8968,-4.9172,-4.8787,-4.8852,-4.866,-4.8134,-4.7545,-4.7288,-4.7288,-4.511,-4.3269,-4.1776,-4.0451,-3.9804,-3.9594,-3.8475,-3.7978,-3.79,-3.79,-3.79,-3.79,-3.79,-3.7762,-3.7551,-3.7505,-3.7155,-3.6857,0.0,0.0,0.0,0.0,0.0,0.0,0.0,0.0,0.0,0.0,0.0,-2.2758,0.0,0.0,0.0,0.0,0.0,0.0,0.0,0.0,0.0,-1.9944,-2.0775,-2.1284,-2.1327,-2.2896,-2.4043,-2.4726,-2.746,-2.9564,-3.1102,-3.1426,-3.1634,-3.1719,-3.0746,-2.9985,-2.9373,-2.8647,-2.7726,-2.6644,-2.5959,-2.464,-2.2937,-2.1613,-2.0037,-1.8368,-1.6979,-1.5837,-1.4907,-1.4623,-1.4799,-1.5197,-1.5515,0.0,0.0,0.0,-2.0499,-2.2459,-2.725,-3.1186,-3.4413,0.0,-3.7446,0.0,0.0,0.0,0.0,0.0,0.0,0.0,0.0,0.0,0.0,0.0,0.0,0.0,0.0,0.0,0.0,0.0,0.0,0.0,0.0,0.0,0.0,0.0,-4.7597,-4.8357,-4.8997,-4.921,-4.9222,-4.9128,-4.9009,-4.871,-4.8308,-4.7801,-4.6956,-4.5809,-4.4501,-4.2977,-4.1146,-4.0088,-3.932,-3.8886,-3.8219,-3.7808,-3.7716,-3.7854,-3.79,-3.79,-3.79,-3.7762,-3.7505,-3.732,-3.7015,-3.6713,0.0,0.0,0.0,0.0,0.0,0.0,0.0,0.0,0.0,0.0,0.0,0.0,0.0,0.0,0.0,0.0,0.0,0.0,0.0,0.0,0.0,-2.0726,-2.1283,-2.1604,-2.1604,-2.2901,-2.3971,-2.4706,-2.7498,-2.9599,-3.1132,-3.2705,-3.3715,-3.4168,-3.2623,-3.1587,-3.0877,-3.0144,-2.93,-2.8346,-2.7738,-2.6455,-2.4767,-2.3662,-2.2027,-2.0192,-1.8996,-1.7654,-1.6353,-1.5935,-1.5593,-1.5368,-1.5496,-1.5902,0.0,0.0,0.0,0.0,0.0,0.0,-3.2771,-3.4061,0.0,0.0,0.0,0.0,0.0,0.0,0.0,0.0,0.0,0.0,0.0,0.0,0.0,0.0,0.0,0.0,0.0,0.0,0.0,0.0,0.0,0.0,0.0,0.0,-4.7926,-4.8563,-4.9457,-4.9263,-4.9087,-4.9046,-4.885,-4.8603,-4.8254,-4.7679,-4.6542,-4.4788,-4.3913,-4.2472,-4.0685,-3.9795,-3.8908,-3.8148,-3.799,-3.7808,-3.7598,-3.7808,-3.79,-3.79,-3.7808,-3.7598,-3.7366,-3.7108,-3.6828,-3.6593,0.0,0.0,0.0,0.0,0.0,0.0,0.0,0.0,0.0,0.0,0.0,0.0,-2.3668,-2.3126,-2.2735,-2.2615,-2.2615,0.0,0.0,0.0,0.0,-2.083,-2.1305,0.0,-2.1604,-2.2738,-2.3778,-2.4706,-2.682,-2.899,-3.1132,-3.2614,-3.3858,-3.4784,-3.3488,-3.271,-3.2394,-3.2208,-3.1674,-3.0851,-3.0187,-2.8867,-2.7189,-2.6193,-2.4728,-2.3111,-2.2326,-2.0499,-1.8338,-1.7606,-1.6664,-1.5682,-1.5196,-1.5475,-1.6186,0.0,0.0,0.0,0.0,-2.7022,0.0,0.0,0.0,0.0,0.0,0.0,0.0,0.0,0.0,0.0,0.0,0.0,0.0,0.0,0.0,0.0,0.0,0.0,0.0,0.0,0.0,0.0,0.0,0.0,0.0,0.0,-4.8611,-4.9021,-4.9486,-4.9233,-4.8854,-4.8384,-4.8335,-4.8093,-4.7553,-4.6835,-4.5999,-4.5039,-4.3103,-4.1581,-4.036,-3.926,-3.8309,-3.7557,-3.7808,-3.79,-3.79,-3.79,-3.79,-3.7854,-3.7598,-3.7366,-3.7108,-3.6803,-3.6593,-3.6405,0.0,0.0,0.0,0.0,0.0,0.0,0.0,0.0,0.0,0.0,0.0,0.0,0.0,-2.4009,-2.3645,-2.3221,-2.2821,0.0,0.0,0.0,0.0,-2.1839,-2.1926,-2.1999,-2.1999,-2.247,-2.3103,-2.3927,-2.6181,-2.84,-3.057,-3.2526,-3.3951,-3.4872,-3.4401,-3.3827,-3.3122,-3.309,-3.2616,-3.1846,-3.1464,-3.0507,-2.9334,-2.9143,-2.7835,0.0,0.0,0.0,0.0,0.0,-1.8903,-1.7219,-1.6214,-1.6003,-1.6262,-1.7002,-1.8596,0.0,0.0,0.0,0.0,0.0,0.0,0.0,0.0,0.0,0.0,0.0,0.0,0.0,0.0,0.0,0.0,0.0,0.0,0.0,0.0,0.0,0.0,0.0,0.0,0.0,0.0,0.0,0.0,0.0,0.0,-4.9486,-4.985,-4.923,-4.8759,-4.8567,-4.8,-4.7463,-4.6931,-4.6194,-4.5443,-4.4759,-4.2959,-4.1501,-4.0354,-3.9207,-3.835,-3.7762,-3.7854,-3.7808,-3.7644,-3.7854,-3.79,-3.7854,-3.7598,-3.7366,-3.7062,-3.6828,-3.6593,-3.6405,0.0,0.0,0.0,0.0,0.0,0.0,0.0,0.0,0.0,-2.6566,0.0,0.0,0.0,0.0,-2.4273,-2.3328,-2.2677,-2.2385,-2.2477,-2.2385,-2.2446,-2.2691,-2.2423,-2.2437,-2.2812,-2.2536,-2.2875,-2.385,-2.5437,-2.7208,-2.9186,-3.1308,-3.2847,-3.3865,-3.4306,-3.4347,-3.4143,-3.4143,-3.396,-3.3594,-3.3197,-3.2582,-3.188,-3.1483,0.0,0.0,0.0,0.0,0.0,0.0,0.0,0.0,-1.7581,-1.6717,-1.6385,-1.696,-1.7736,0.0,-2.0815,0.0,0.0,0.0,0.0,0.0,0.0,0.0,0.0,0.0,0.0,0.0,0.0,0.0,0.0,0.0,0.0,0.0,0.0,0.0,0.0,0.0,0.0,0.0,0.0,0.0,0.0,0.0,0.0,0.0,-5.0057,-4.9029,-4.8304,-4.8054,-4.7365,-4.6871,-4.6736,-4.5811,-4.5065,-4.4602,-4.2689,-4.1271,-4.0354,-3.909,-3.8332,-3.79,-3.79,-3.7808,-3.7644,-3.7716,-3.7808,-3.7854,-3.7413,-3.7155,-3.7062,-3.6734,-3.6499,-3.6405,0.0,0.0,0.0,0.0,0.0,0.0,0.0,0.0,-2.8566,-2.89,0.0,0.0,0.0,0.0,0.0,-2.292,-2.2208,-2.1967,-2.2226,-2.225,-2.2578,-2.3291,0.0,0.0,-2.4075,-2.3017,-2.3131,-2.4508,-2.4661,-2.552,-2.7055,-2.8991,-3.0573,-3.1801,-3.3118,-3.4305,-3.5392,-3.5392,-3.577,-3.6222,-3.5443,-3.5037,-3.4746,0.0,0.0,0.0,-3.1807,-3.003,0.0,-2.6427,0.0,0.0,0.0,-1.7581,-1.6502,-1.6871,-1.7165,0.0,0.0,0.0,0.0,0.0,0.0,0.0,0.0,0.0,0.0,0.0,0.0,0.0,0.0,0.0,0.0,0.0,0.0,0.0,0.0,0.0,0.0,0.0,0.0,0.0,0.0,0.0,0.0,0.0,-4.9004,-4.9413,-5.0057,-4.8621,-4.7491,-4.6778,-4.6315,-4.6338,-4.6938,-4.5605,-4.4844,-4.4546,-4.2207,-4.085,-4.0354,-3.8879,-3.8103,-3.79,-3.79,-3.79,-3.7854,-3.7598,-3.7644,-3.7808,-3.7015,-3.6875,-3.7015,-3.6593,-3.6405,-3.6405,0.0,0.0,0.0,0.0,0.0,0.0,-2.9162,-2.9596,-2.9812,0.0,0.0,0.0,-2.8186,-2.6657,-2.5291,-2.4323,-2.3529,-2.3172,-2.3348,-2.3373,-2.3504,-2.3875,-2.3706,-2.379,-2.4078,-2.389,-2.4013,-2.4508,-2.5164,-2.6003,-2.7055,-2.9073,-3.0397,-3.1128,-3.2913,-3.4305,-3.5392,-3.5392,-3.577,-3.6286,-3.6041,-3.5876,0.0,0.0,0.0,0.0,0.0,-3.3392,-3.1267,0.0,-2.7287,-2.4632,0.0,0.0,-1.7147,-1.6923,-1.6759,0.0,-1.7874,0.0,0.0,0.0,0.0,0.0,0.0,0.0,0.0,0.0,0.0,0.0,0.0,0.0,0.0,0.0,0.0,0.0,0.0,0.0,0.0,0.0,0.0,0.0,0.0,0.0,0.0,0.0,-4.8834,-4.9289,-4.9786,-4.8526,-4.7288,-4.6185,-4.5625,-4.5481,-4.5624,-4.4734,-4.4252,-4.4129,-4.2109,-4.1036,-4.0842,-3.92,-3.8349,-3.8122,-3.8122,-3.792,-3.7598,-3.7505,-3.7551,-3.7551,-3.6968,-3.6756,-3.6781,-3.6499,-3.6405,-3.6455,0.0,0.0,0.0,0.0,0.0,-2.9777,-3.0703,-3.0927,-3.1102,0.0,0.0,0.0,-2.9435,-2.7229,-2.5603,-2.5105,-2.4141,-2.3644,-2.3824,-2.3875,-2.4114,-2.4549,-2.432,-2.4433,-2.4916,-2.4484,-2.4447,-2.4779,-2.5379,-2.5853,-2.6361,-2.8359,-2.9581,-3.0218,-3.2225,-3.3906,-3.5317,-3.5718,-3.6357,0.0,-3.6838,0.0,0.0,-3.667,-3.6507,0.0,0.0,0.0,-3.3576,-3.2426,-2.9746,0.0,0.0,0.0,0.0,0.0,0.0,0.0,0.0,0.0,0.0,0.0,0.0,0.0,-2.5526,-2.7909,0.0,0.0,0.0,0.0,0.0,0.0,0.0,0.0,0.0,0.0,0.0,0.0,0.0,0.0,0.0,0.0,0.0,-4.6315,-4.7502,-4.7717,-4.8238,-4.8552,-4.8478,-4.7782,-4.694,-4.5924,-4.5367,-4.511,-4.511,-4.449,-4.4115,-4.3974,-4.2352,-4.1379,-4.1028,-3.9563,-3.8621,-3.8213,-3.8213,-3.7939,-3.7505,-3.7366,-3.732,-3.7273,-3.6781,-3.6615,-3.6687,-3.6704,-3.6757,-3.6832,0.0,0.0,-2.7336,-2.8094,-2.9445,-3.0868,-3.2196,-3.228,-3.2574,0.0,-3.3205,-3.2199,-3.0561,-2.7882,-2.6106,-2.5883,-2.4694,-2.4032,-2.4293,-2.4423,-2.4749,-2.5362,-2.4878,-2.5048,-2.6069,-2.4994,-2.4708,-2.5303,-2.5434,-2.5512,-2.554,-2.7369,-2.854,-2.9284,-3.1447,-3.3412,-3.5177,-3.6254,0.0,-3.8414,-3.7862,-3.8007,0.0,0.0,-3.7126,-3.791,-3.766,-3.656,-3.5208,-3.4798,-3.1533,0.0,0.0,0.0,0.0,0.0,-1.8026,0.0,0.0,0.0,0.0,0.0,0.0,0.0,-2.4451,-2.5955,-2.7311,0.0,0.0,0.0,0.0,0.0,0.0,0.0,0.0,0.0,0.0,0.0,0.0,0.0,0.0,0.0,-4.4435,-4.5932,-4.6936,-4.7082,-4.748,-4.7398,-4.679,-4.6732,-4.6442,-4.5805,-4.5321,-4.5092,-4.5092,-4.463,-4.4228,-4.3909,-4.2785,-4.1809,-4.1012,-3.9852,-3.8935,-3.8304,-3.8258,-3.7939,-3.7459,-3.7201,-3.7062,-3.7015,-3.6593,-3.6524,-3.6767,-3.7081,-3.7236,-3.7362,0.0,0.0,-2.7494,-2.8704,-3.0559,-3.2165,-3.2961,-3.3932,-3.4554,-3.4519,-3.3847,-3.2914,-3.1838,-3.0303,-2.8991,-2.8155,-2.7134,-2.6631,-2.6775,-2.6803,-2.6721,-2.6497,-2.6357,-2.6188,-2.5935,-2.5789,-2.5786,-2.5926,-2.6034,-2.6114,-2.6142,-2.7569,-2.854,-2.9224,-3.1846,-3.3816,-3.5206,-3.6749,0.0,-4.0051,-3.9857,0.0,-4.0704,-4.0303,-4.0163,-4.0107,-3.935,-3.8456,-3.7331,-3.529,-3.2497,-2.9462,0.0,0.0,0.0,0.0,0.0,0.0,0.0,0.0,0.0,0.0,0.0,0.0,-2.2935,-2.4549,-2.6021,0.0,0.0,0.0,0.0,0.0,0.0,0.0,0.0,0.0,0.0,0.0,0.0,0.0,0.0,0.0,-4.3502,-4.432,-4.5223,-4.6257,-4.687,-4.6956,-4.6279,-4.625,-4.5935,-4.5276,-4.5,-4.489,-4.489,-4.4537,-4.4125,-4.3574,-4.2653,-4.1768,-4.0911,-4.0001,-3.9319,-3.8729,-3.8575,-3.8148,-3.7459,-3.7201,-3.6968,-3.6756,-3.6499,-3.6681,-3.7132,-3.7184,-3.7462,-3.7939,0.0,-2.705,-2.7942,-2.9398,-3.1121,-3.2766,-3.413,-3.5124,-3.571,-3.5819,-3.4851,-3.3904,-3.3268,-3.1767,-3.0582,-3.0052,-2.9151,-2.8551,-2.836,-2.836,-2.8048,-2.7427,-2.7004,-2.661,-2.6274,-2.5966,-2.5798,-2.5798,-2.5853,-2.5935,-2.6045,-2.7258,-2.8218,-2.9015,-3.1861,-3.3863,-3.5235,0.0,-3.9194,-4.0772,-4.051,0.0,-4.1895,-4.168,-4.1447,-4.1184,-4.0621,-3.9621,-3.8251,-3.599,-3.3891,0.0,0.0,-2.6954,-2.4731,0.0,-2.1534,-2.0735,0.0,0.0,0.0,-2.0576,0.0,0.0,0.0,-2.2807,-2.3898,0.0,0.0,0.0,0.0,0.0,0.0,0.0,0.0,0.0,0.0,0.0,0.0,0.0,0.0,0.0,-4.2353,-4.3211,-4.4138,-4.5081,-4.5452,-4.5624,-4.5624,-4.5624,-4.5452,-4.5138,-4.4908,-4.4797,-4.4797,-4.4255,-4.3807,-4.3497,-4.2379,-4.1541,-4.088,-4.0167,-3.9513,-3.8908,-3.8666,-3.8285,-3.769,-3.7248,-3.6968,-3.6687,-3.6754,-3.6935,-3.7262,-3.7814,-3.8191,-3.8517,-2.7231,0.0,-2.8486,-3.0141,-3.1564,-3.3145,-3.5078,-3.5975,-3.6615,-3.7124,-3.6321,-3.557,-3.525,-3.3691,-3.2634,-3.2423,-3.1499,-3.0654,-3.0033,-2.9768,-2.9275,-2.8473,-2.7507,-2.6886,-2.663,-2.5936,-2.5521,-2.5439,-2.5439,-2.5495,-2.5688,-2.6914,-2.8035,-2.9139,-3.1927,-3.4111,-3.5812,0.0,0.0,-4.1457,0.0,-4.1671,-4.2609,-4.2391,-4.2199,-4.209,-4.1566,-4.0404,-3.883,-3.671,0.0,-3.3784,-3.1102,-2.9009,0.0,0.0,0.0,0.0,0.0,0.0,0.0,0.0,0.0,-2.1437,0.0,0.0,0.0,-2.1524,0.0,0.0,0.0,0.0,0.0,0.0,0.0,0.0,0.0,0.0,0.0,0.0,0.0,0.0,0.0,-4.2081,-4.3022,-4.3491,-4.3747,-4.4089,-4.4601,-4.4858,-4.5,-4.5,-4.4815,-4.4694,-4.4553,-4.3842,-4.3385,-4.3132,-4.2048,-4.1251,-4.0714,-4.0173,-3.9601,-3.8953,-3.8737,-3.8376,-3.7893,-3.7387,-3.7092,-3.689,-3.7107,-3.7236,-3.7462,-3.8542,-3.8994,-3.9094,-2.8281,-2.8129,0.0,-3.0894,-3.2311,-3.3688,-3.5173,-3.65,-3.7487,-3.7841,-3.8517,-3.8831,-3.8493,-3.7893,-3.7213,-3.6448,0.0,0.0,-3.2897,0.0,-3.0853,-3.0015,-2.856,-2.7431,-2.6701,-2.6163,-2.5649,-2.5244,-2.5244,-2.5328,-2.555,-2.6884,-2.8449,-3.0243,-3.2686,-3.526,-3.7812,0.0,-4.1459,0.0,-4.3212,-4.3413,0.0,-4.3073,-4.3253,-4.3545,-4.1965,-4.0813,-3.9656,0.0,-3.6051,-3.4702,0.0,-3.101,-2.9382,0.0,0.0,0.0,0.0,0.0,0.0,0.0,-2.2321,0.0,0.0,0.0,-2.0617,-2.0626,0.0,0.0,0.0,0.0,0.0,0.0,0.0,0.0,0.0,0.0,0.0,0.0,0.0,0.0,0.0,-4.0351,-4.1027,-4.1083,-4.2125,-4.2801,-4.2857,-4.3899,-4.449,-4.449,-4.4472,-4.419,-4.3656,-4.3526,-4.2935,-4.184,-4.1479,-4.0924,-4.0106,-3.9859,-3.954,-3.9203,-3.8782,-3.8421,-3.8122,-3.7644,-3.7463,-3.7495,-3.7258,-3.7487,-3.799,-3.8693,-3.917,-3.9622,-2.969,-2.9783,0.0,-3.1801,-3.3065,-3.4225,-3.5236,-3.6853,-3.812,-3.8528,-3.8767,-3.8964,-3.9188,0.0,0.0,0.0,0.0,-3.6739,0.0,0.0,-3.3004,-3.1545,-2.9559,0.0,-2.7656,-2.6297,-2.5544,-2.542,-2.5124,-2.5267,-2.5877,-2.6906,-2.8669,-3.1101,-3.3431,0.0,-3.9051,0.0,-4.2623,0.0,0.0,0.0,0.0,-4.3889,-4.3632,-4.3705,-4.3212,-4.1753,-4.0009,0.0,-3.7597,0.0,0.0,0.0,0.0,0.0,0.0,0.0,0.0,0.0,0.0,0.0,0.0,0.0,0.0,0.0,-2.0867,0.0,0.0,0.0,0.0,0.0,0.0,0.0,0.0,0.0,0.0,0.0,0.0,0.0,0.0,0.0,0.0,0.0,0.0,0.0,-4.0041,-4.1278,-4.198,-4.3188,-4.4059,-4.4397,-4.4059,-4.375,-4.3497,-4.2767,-4.2149,-4.1615,-4.1016,-4.0491,-3.9996,-3.976,-3.954,-3.9292,-3.8935,-3.8666,-3.8421,-3.792,-3.7723,-3.7789,-3.783,-3.8163,-3.8567,-3.9145,-3.9496,-3.9697,-3.1182,0.0,0.0,0.0,-3.3636,-3.4707,-3.6001,-3.7897,-3.9282,-3.9559,-4.0044,0.0,-4.0738,-4.0576,0.0,0.0,-4.042,-3.9402,0.0,0.0,-3.5211,0.0,0.0,0.0,0.0,0.0,-2.6024,-2.5955,-2.5397,-2.552,-2.6219,-2.7028,-2.882,-3.1461,-3.3624,-3.6418,-3.9651,0.0,-4.3216,-4.4512,-4.5293,-4.5638,-4.561,-4.5011,-4.4559,-4.4267,-4.4416,-4.2965,-4.0915,-4.059,-3.8945,0.0,-3.6314,0.0,0.0,0.0,0.0,0.0,-2.7897,0.0,0.0,0.0,0.0,0.0,0.0,0.0,0.0,0.0,0.0,0.0,0.0,0.0,0.0,0.0,0.0,0.0,0.0,0.0,0.0,0.0,0.0,0.0,0.0,0.0,0.0,0.0,0.0,-3.9395,-4.0294,-4.2177,-4.3441,-4.3891,-4.3638,-4.3413,-4.3245,-4.2149,-4.1531,-4.1362,-4.0724,-4.0241,-3.9996,-3.976,-3.954,-3.9292,-3.8997,-3.88,-3.8557,-3.8306,-3.8236,-3.8309,-3.8809,-3.917,-3.9448,-3.9648,-3.9798,-3.9898,-3.2747,-3.2006,0.0,0.0,0.0,0.0,0.0,0.0,0.0,0.0,0.0,0.0,0.0,0.0,0.0,0.0,0.0,-4.2317,-4.0781,0.0,-3.7377,0.0,0.0,-3.1947,0.0,0.0,0.0,-2.6865,-2.6253,-2.6118,-2.6482,-2.7317,-2.888,-3.112,-3.293,-3.5798,-3.9392,-4.1136,-4.3027,-4.4917,-4.5384,-4.5713,-4.5969,0.0,-4.6359,-4.5792,-4.5321,0.0,0.0,-4.0576,-3.9732,0.0,0.0,0.0,0.0,0.0,0.0,0.0,0.0,0.0,0.0,-2.7699,0.0,0.0,0.0,0.0,-2.2637,0.0,0.0,0.0,0.0,0.0,-2.1207,-2.0625,0.0,0.0,0.0,0.0,0.0,0.0,0.0,0.0,0.0,0.0,0.0,0.0,0.0,0.0,-3.7119,-4.0603,-4.2626,-4.2654,-4.3188,-4.3216,-4.2598,-4.1952,-4.1306,-4.0716,-4.0529,-4.0241,-3.9996,-3.976,-3.954,-3.9292,-3.8997,-3.88,-3.861,-3.8939,-3.9097,-3.9217,-4.0104,-4.0593,-4.0741,-3.9976,-4.0023,-4.0425,0.0,0.0,0.0,0.0,0.0,0.0,0.0,-4.0352,0.0,0.0,0.0,0.0,0.0,-4.5327,-4.5454,0.0,0.0,-4.4013,-4.2828,-4.1544,0.0,0.0,0.0,-3.4075,0.0,0.0,0.0,0.0,-2.7078,-2.6912,-2.71,-2.7503,-2.9164,-3.188,-3.3564,-3.6445,0.0,0.0,0.0,0.0,0.0,-4.7449,-4.7695,0.0,0.0,-4.6413,-4.5981,-4.4967,0.0,-4.2636,-4.1137,-3.9704,-3.9283,-3.7938,-3.6308,-3.5424,-3.41,0.0,0.0,0.0,-2.9521,-2.9362,0.0,0.0,0.0,0.0,0.0,0.0,0.0,0.0,0.0,0.0,-2.315,-2.1375,-2.1096,-2.068,0.0,0.0,0.0,0.0,0.0,0.0,0.0,0.0,0.0,0.0,-3.2964,0.0,-3.6342,-3.9183,-4.1109,-4.1924,-4.2149,-4.2149,-4.1952,-4.1334,-4.0912,-4.0688,-4.0529,-4.0356,-4.0241,-4.0023,-3.976,-3.9567,-3.9452,-3.9158,-3.8827,-3.9169,-3.9333,-3.9485,-4.0206,-4.0848,-4.1324,-4.053,-4.035,-4.0425,-3.5577,0.0,0.0,0.0,0.0,0.0,0.0,0.0,0.0,0.0,-4.4699,0.0,-4.6164,0.0,-4.6204,0.0,-4.6022,-4.5359,-4.4578,-4.3625,0.0,-4.1225,-3.8797,0.0,0.0,0.0,0.0,0.0,0.0,-2.7845,-2.8045,-2.7889,-2.9225,-3.1818,0.0,-3.6236,-3.9876,0.0,-4.4536,0.0,0.0,-4.8803,0.0,0.0,-4.755,-4.7079,0.0,-4.5767,-4.4704,-4.3821,-4.243,-4.1053,-4.0772,-3.9452,-3.7863,-3.7158,-3.5986,-3.4765,-3.4307,-3.2905,0.0,-3.1418,-3.0039,0.0,-2.7833,0.0,0.0,0.0,0.0,0.0,0.0,0.0,-2.3623,-2.1499,-2.0976,-2.037,0.0,-1.9536,0.0,0.0,0.0,0.0,0.0,0.0,0.0,0.0,-3.0697,-3.2919,0.0,0.0,-3.9296,-4.0266,-4.0787,-4.1182,-4.1408,-4.0873,-4.0675,-4.0816,-4.0673,-4.0544,-4.0399,-4.0198,-4.0023,-3.9804,-3.9744,-3.9561,-3.9375,-3.96,-3.9944,-4.0353,-4.1001,-4.1618,-4.2014,-4.0883,-4.04,-4.0174,0.0,0.0,0.0,0.0,-3.7933,0.0,0.0,0.0,-4.4602,0.0,-4.6601,-4.8084,-4.7466,-4.7798,-4.794,-4.7714,-4.6959,-4.6386,-4.6142,-4.5122,0.0,0.0,-4.1736,-4.0166,-3.9662,0.0,0.0,0.0,0.0,0.0,-2.9255,-2.8498,-2.9152,-3.0997,-3.2694,0.0,-3.846,-4.0812,-4.3767,-4.7051,-4.9163,-4.9474,-4.874,-4.9378,-4.8885,-4.7764,-4.732,-4.6728,-4.5873,-4.4188,-4.3554,-4.3188,-4.139,-4.0628,-4.0161,-3.8936,-3.7965,-3.7125,-3.6518,-3.5471,-3.4369,-3.3817,0.0,0.0,0.0,0.0,-2.8864,0.0,0.0,0.0,0.0,0.0,0.0,-2.1048,-2.0606,-2.0082,-1.8919,0.0,0.0,0.0,0.0,0.0,0.0,0.0,0.0,-2.6599,-2.8627,-3.0387,0.0,0.0,-3.7275,-3.7833,-3.9235,-4.0321,-4.0944,-4.0586,-4.0586,-4.1001,-4.1001,-4.0816,-4.0399,-4.0399,-4.0241,-3.9996,-3.9859,-3.9922,-4.0196,-4.0308,-4.0861,-4.1779,-4.2372,-4.2729,-4.2741,-4.114,-4.0199,-3.9697,-3.6715,-3.7032,-3.7282,0.0,-3.865,-4.0086,0.0,0.0,0.0,0.0,-4.7325,-4.8192,-4.8741,-4.8761,-4.8849,-4.907,-4.8729,0.0,0.0,0.0,0.0,-4.5771,-4.4443,-4.2681,-4.0329,-3.8436,0.0,-3.4005,0.0,0.0,-2.9847,-2.9356,-2.9792,-3.0997,0.0,0.0,-3.8243,-4.0734,-4.3685,-4.6771,-4.8072,-4.8395,0.0,0.0,-4.8769,-4.8383,-4.7932,-4.7386,-4.6633,-4.5317,-4.4256,-4.3413,-4.2935,-4.1881,-4.0681,-4.0105,-3.9026,-3.797,-3.7537,-3.6088,-3.4726,-3.4717,-3.3357,-3.1823,0.0,0.0,0.0,0.0,0.0,0.0,0.0,0.0,0.0,0.0,-2.0896,0.0,0.0,0.0,0.0,-1.994,0.0,0.0,0.0,0.0,-2.4922,-2.5875,-2.7248,-2.891,0.0,0.0,0.0,-3.6731,-3.8014,-3.9297,-4.0542,-4.044,-4.0586,-4.1001,-4.1001,-4.0901,-4.063,-4.063,-4.0414,-4.0023,-4.0449,-4.0457,-4.0223,-4.0763,-4.1377,-4.2027,-4.2424,-4.2391,-4.2014,-4.1336,-4.0526,-3.9697,-3.8341,0.0,0.0,-3.9213,0.0,0.0,-4.216,-4.4006,0.0,-4.692,-4.8075,0.0,-4.9121,-4.9313,-4.9472,-4.9449,-4.9344,0.0,-4.9073,0.0,0.0,-4.7464,-4.624,-4.4734,-4.2897,-4.0643,0.0,-3.6623,0.0,0.0,-3.1388,-3.0357,-3.0378,-3.1412,0.0,-3.578,0.0,-4.2019,-4.479,-4.6727,-4.8152,0.0,0.0,-4.8914,-4.9049,-4.8904,-4.8514,-4.7844,-4.6938,-4.574,-4.4678,-4.3863,-4.3444,-4.2415,-4.1256,-4.0648,-3.9689,-3.8667,-3.8172,-3.7259,-3.628,-3.5858,-3.4808,-3.3636,-3.2791,-3.2154,-3.1607,0.0,0.0,0.0,0.0,0.0,0.0,0.0,0.0,0.0,0.0,0.0,0.0,0.0,0.0,0.0,0.0,0.0,-2.4147,-2.5072,-2.6181,0.0,0.0,0.0,0.0,-3.5614,-3.6893,-3.8118,-3.9315,-3.9682,-3.9888,-3.9905,-4.0474,-4.0604,-4.0294,-4.0518,-4.0414,-4.0182,-4.0614,-4.0758,-4.074,-4.1051,-4.1879,-4.2847,-4.3073,-4.259,-4.1783,-4.1383,-4.0651,-3.9697,0.0,0.0,0.0,0.0,0.0,0.0,0.0,-4.4502,0.0,-4.7167,0.0,-4.9785,-4.937,-4.9786,-4.9972,-4.9659,0.0,-4.9569,-4.9569,-4.9312,-4.9145,-4.9056,-4.7537,-4.6472,-4.5927,-4.2596,0.0,0.0,0.0,0.0,-3.3207,-3.142,-3.1075,0.0,0.0,0.0,0.0,-4.3749,-4.6105,-4.6594,-4.8627,-4.9168,-4.8798,-4.9436,-4.9551,-4.9256,-4.9009,-4.8138,-4.7004,-4.5805,-4.4995,-4.4331,-4.3482,-4.2639,-4.1828,-4.1078,-4.015,-3.9292,-3.8803,-3.8532,-3.8152,-3.7094,-3.6293,-3.5642,-3.5006,-3.3916,-3.288,-3.2463,-3.1146,-2.9808,0.0,0.0,0.0,0.0,0.0,0.0,0.0,0.0,0.0,0.0,0.0,0.0,0.0,0.0,0.0,-2.4318,0.0,0.0,0.0,0.0,0.0,-3.466,-3.5911,-3.7023,-3.7929,0.0,-3.8909,-3.8567,-3.9739,-4.0133,-3.9858,-4.0264,-4.047,-4.0523,-4.0663,-4.1041,-4.1524,-4.1367,-4.2233,-4.3674,-4.3818,-4.3045,-4.1783,-4.1383,-4.0651,-3.9697,0.0,0.0,0.0,0.0,0.0,-4.4632,-4.6071,-4.6983,-4.7951,-4.9306,-4.9634,-5.0039,-5.0795,-5.0861,-5.094,-5.118,-5.1009,0.0,0.0,0.0,0.0,-4.977,-4.9208,-4.8093,-4.6283,-4.4985,-4.3177,0.0,0.0,0.0,-3.406,-3.2368,0.0,0.0,0.0,0.0,-4.0295,-4.3881,0.0,-4.5639,-4.8173,-4.8978,-4.8798,-4.9436,-4.9551,-4.9256,-4.9009,-4.8275,-4.7368,-4.6433,-4.5573,-4.4765,-4.4077,-4.3136,-4.2285,-4.2129,-4.1123,-3.9997,-3.9888,-3.9156,-3.8369,-3.8152,-3.713,-3.606,-3.5426,-3.4594,-3.3672,-3.2615,-3.1766,-3.0903,-2.9835,0.0,0.0,0.0,0.0,0.0,0.0,0.0,0.0,0.0,0.0,0.0,0.0,0.0,0.0,0.0,0.0,0.0,0.0,0.0,0.0,0.0,-3.5361,0.0,0.0,0.0,-3.8524,-3.8744,-3.935,-3.9776,-4.0067,-4.0477,-4.0824,-4.1179,-4.1477,-4.1856,-4.2199,-4.2033,-4.2277,-4.2892,-4.3627,-4.3045,-4.1783,-4.1383,-4.0651,-3.9622,0.0,0.0,0.0,0.0,0.0,0.0,0.0,-4.8872,-4.9603,-5.0283,-5.0599,-5.0887,-5.1281,-5.1409,-5.1546,-5.1618,-5.1339,-5.1229,-5.1229,-5.1229,-5.1033,-5.0594,-4.991,0.0,-4.7975,-4.6251,-4.4612,-4.3,0.0,0.0,-3.6286,-3.4962,0.0,0.0,0.0,-3.9054,0.0,0.0,0.0,-4.6852,-4.846,-4.9135,-4.9262,-4.9406,-4.9355,-4.9058,-4.881,-4.8382,-4.7914,-4.6686,-4.5741,-4.4885,-4.4073,-4.318,-4.2383,-4.2242,-4.123,-4.0187,-4.0187,-3.9536,-3.8759,-3.8374,-3.7731,-3.6972,-3.5892,-3.5044,-3.4299,-3.3501,-3.2443,-3.1341,-3.0325,-2.8791,0.0,0.0,0.0,0.0,0.0,0.0,0.0,0.0,0.0,0.0,0.0,0.0,0.0,0.0,0.0,0.0,0.0,0.0,0.0,0.0,0.0,0.0,0.0,0.0,0.0,-3.8323,-3.9251,-3.9812,-4.0109,-4.0492,-4.0923,-4.1302,-4.1661,-4.2039,-4.2418,-4.2816,-4.2834,-4.2655,-4.3573,-4.2936,-4.1515,-4.1329,-4.0651,-3.9622,0.0,-4.5132,0.0,0.0,-4.6987,0.0,-4.9459,-5.0368,-5.0913,-5.0913,-5.1374,-5.1656,-5.1601,-5.185,-5.188,-5.1695,-5.1416,-5.1229,-5.1229,-5.1229,-5.1229,-5.1229,-5.0253,-4.9646,-4.9498,-4.7306,-4.5723,0.0,0.0,0.0,0.0,-3.7665,0.0,0.0,0.0,0.0,0.0,0.0,-4.6661,-4.8103,-4.8909,-4.9426,-4.9669,-4.9404,-4.9108,-4.8859,-4.8581,-4.8481,-4.8311,-4.6989,-4.6034,-4.51,-4.4192,-4.3326,-4.2527,-4.229,-4.1435,-4.054,-4.0431,-3.9943,-3.9301,-3.8485,-3.8155,-3.7702,-3.6508,-3.5526,-3.4782,-3.4297,-3.2922,-3.156,-3.0724,-2.9707,0.0,0.0,0.0,0.0,0.0,0.0,0.0,0.0,0.0,0.0,0.0,0.0,0.0,0.0,0.0,0.0,0.0,0.0,0.0,0.0,0.0,-3.5542,-3.6387,0.0,-3.7403,-3.7996,-3.9081,-3.9831,-4.0275,-4.0689,-4.1109,-4.1647,-4.1869,-4.2141,-4.2494,-4.3386,-4.3231,-4.2497,-4.3438,-4.2747,-4.1275,-4.1275,-4.0651,-3.9597,0.0,0.0,0.0,0.0,0.0,0.0,-5.068,-5.1259,-5.1621,-5.1621,-5.1652,-5.1929,-5.2499,-5.2215,-5.2002,-5.1956,-5.1509,-5.1229,-5.1229,-5.1229,-5.1229,-5.1229,-5.0698,-5.0117,-4.9498,-4.8613,-4.7261,0.0,0.0,0.0,0.0,0.0,0.0,0.0,0.0,0.0,0.0,-4.6521,-4.7654,-4.7945,-4.9136,-4.9659,-4.9669,-4.9404,-4.9108,-4.8859,-4.8581,-4.8481,-4.8396,-4.7716,-4.6918,-4.6006,-4.5148,-4.4104,-4.3129,-4.2889,-4.2331,-4.1707,-4.1164,-4.0567,-3.9898,-3.9034,-3.8291,-3.767,-3.7325,-3.6236,-3.5093,-3.4491,-3.2986,-3.1653,-3.1213,-3.0099,-2.9101,0.0,0.0,0.0,0.0,0.0,0.0,0.0,0.0,0.0,0.0,0.0,0.0,0.0,0.0,0.0,0.0,0.0,0.0,-3.3445,0.0,-3.5782,-3.6564,-3.6622,-3.7157,-3.8165,-3.8669,-3.9531,-4.0756,-4.1152,-4.1881,-4.2725,-4.2514,-4.2482,-4.2511,-4.3192,-4.2892,-4.2232,-4.3085,-4.2557,-4.1275,-4.1275,-4.0651,-3.9546,0.0,0.0,0.0,0.0,0.0,0.0,0.0,-5.1999,-5.2298,-5.2298,-5.2298,-5.2421,-5.2698,-5.2276,-5.2002,-5.2002,-5.1509,-5.1229,-5.1229,-5.1229,-5.1229,-5.1229,-5.0757,-5.0383,-5.0117,-4.9087,-4.8124,0.0,0.0,0.0,0.0,0.0,0.0,0.0,0.0,-4.5125,-4.633,-4.7346,-4.8217,-4.8972,-4.9465,-4.9717,-4.9669,-4.9256,-4.9009,-4.8859,-4.8409,-4.8358,-4.8503,-4.8397,-4.7716,-4.6666,-4.5509,-4.4553,-4.3725,-4.3272,-4.261,-4.1951,-4.1707,-4.0854,-3.986,-3.939,-3.861,-3.7854,-3.7269,-3.669,-3.607,-3.5129,-3.3849,-3.2594,-3.1691,-3.0768,-2.9861,0.0,0.0,0.0,0.0,0.0,0.0,0.0,0.0,0.0,0.0,0.0,0.0,0.0,0.0,0.0,0.0,0.0,0.0,-3.2864,0.0,-3.5507,-3.6599,-3.6944,-3.7893,-3.9363,-3.9923,-4.0504,-4.1178,-4.1323,-4.1867,-4.2733,-4.3026,-4.3172,-4.3169,-4.3172,-4.2967,-4.2578,-4.2669,-4.2084,-4.125,-4.0924,-4.0149,-3.9094,-5.1917,0.0,-5.0912,0.0,-5.118,-5.1525,-5.2118,-5.2479,-5.2653,-5.2608,-5.2563,-5.2563,-5.2563,-5.2337,-5.2213,-5.2213,-5.1763,-5.1498,-5.1498,-5.1319,-5.1229,-5.1229,-5.0935,0.0,-5.0766,-4.9766,-4.9107,-4.8789,-4.7691,0.0,0.0,0.0,0.0,0.0,-4.5676,-4.6766,-4.8072,-4.8246,-4.8904,-4.9717,-4.9766,-4.9766,-4.9669,-4.9277,-4.9058,-4.8859,-4.8358,-4.8358,-4.8531,-4.8731,-4.8247,-4.7355,-4.6115,-4.5052,-4.42,-4.3499,-4.2842,-4.2222,-4.2059,-4.1194,-4.0206,-3.9654,-3.8978,-3.8227,-3.7449,-3.7142,-3.6671,-3.5521,-3.446,-3.3454,-3.2423,-3.1448,-3.0431,-2.9479,0.0,0.0,0.0,0.0,0.0,0.0,0.0,-2.4474,-2.416,0.0,0.0,0.0,0.0,0.0,0.0,0.0,0.0,0.0,0.0,0.0,0.0,-3.7191,-3.8302,-3.9749,-4.0619,-4.1167,-4.1396,-4.1682,-4.2164,-4.2716,-4.3324,-4.3566,-4.3478,-4.303,-4.2805,-4.2632,-4.2211,-4.1709,-4.116,-4.0651,-3.9823,-3.8844,-5.2354,-5.1944,-5.1768,-5.1952,-5.1989,-5.2149,-5.2651,-5.2698,-5.2608,-5.2352,-5.2306,-5.2306,-5.2306,-5.2486,-5.2597,-5.2597,-5.233,-5.2187,-5.2187,-5.1588,-5.1229,0.0,0.0,-5.1385,-5.1385,-5.0924,-5.0336,-4.9669,0.0,0.0,-4.6472,0.0,-4.6929,-4.7753,-4.8391,-4.8682,-4.874,-4.9378,-4.9717,-4.9717,-4.999,-4.9941,-4.9717,-4.9669,-4.9375,-4.8859,-4.8581,-4.8481,-4.8481,-4.8481,-4.8481,-4.8254,-4.7056,-4.5705,-4.4443,-4.3547,-4.3115,-4.2738,-4.2168,-4.1788,-4.1227,-3.9841,-3.9296,-3.8859,-3.8077,-3.7429,-3.6671,-3.5521,-3.4647,-3.3907,-3.3297,-3.1917,-3.0722,-3.0202,0.0,0.0,0.0,0.0,0.0,0.0,-2.7006,-2.7011,-2.5892,0.0,0.0,0.0,0.0,0.0,0.0,0.0,0.0,-3.2486,-3.4061,0.0,-3.5908,-3.7169,-3.8201,-3.8947,-4.0205,-4.1003,-4.1424,-4.2435,-4.2871,-4.2911,-4.3417,-4.3471,-4.3266,-4.2731,-4.2338,-4.2084,-4.1821,-4.1402,-4.0868,-4.0631,-3.9823,-3.8844,-5.3786,-5.3238,-5.2816,-5.2759,-5.2613,-5.2541,-5.2667,-5.2563,-5.2397,-5.2306,-5.2412,-5.253,-5.253,-5.2571,-5.2808,0.0,-5.302,-5.2875,0.0,-5.2665,-5.2546,-5.2546,-5.222,-5.2142,-5.2339,-5.1845,-5.1578,-5.1522,0.0,0.0,0.0,-4.788,-4.7938,-4.784,-4.8885,-4.9378,-4.9378,-4.9582,-4.9815,-4.999,-5.0086,-5.0135,-5.0183,-4.9815,-4.9502,-4.9108,-4.8631,-4.8409,-4.8258,-4.8459,-4.8409,-4.8117,-4.7497,-4.6476,-4.5323,-4.4443,-4.3684,-4.3088,-4.2704,-4.2112,-4.1442,-4.0855,-3.9853,-3.8985,-3.8548,-3.7717,-3.6862,-3.6293,-3.5375,-3.4434,-3.3698,-3.273,-3.1863,-3.1305,-3.0392,0.0,0.0,0.0,0.0,0.0,-2.7554,-2.7644,0.0,-2.7517,0.0,0.0,0.0,0.0,0.0,0.0,0.0,0.0,-3.3897,0.0,-3.5707,-3.7288,-3.8347,-3.8947,-4.0445,-4.1424,-4.1838,-4.2398,-4.284,-4.3034,-4.3443,-4.3471,-4.3238,-4.2525,-4.2298,-4.2287,-4.144,-4.1157,-4.1078,-4.0437,-3.95,-3.8514,-5.4242,-5.3726,-5.329,-5.2966,-5.2788,-5.2698,-5.2698,-5.2442,-5.2261,-5.217,-5.2439,-5.267,-5.2815,-5.3056,0.0,-5.3807,-5.3661,-5.3563,-5.3563,-5.3324,-5.3125,-5.3028,-5.2902,-5.2821,-5.302,-5.257,0.0,-5.2771,-5.1935,-5.0728,-4.9315,-4.927,-4.8981,-4.8537,-4.9369,-4.9717,-4.9717,-4.9717,-4.9844,-5.0086,-5.0183,-5.0357,-5.0453,-5.0135,-4.9795,-4.9404,-4.8831,-4.8509,-4.8258,-4.8308,-4.8258,-4.805,-4.7857,-4.7003,-4.5874,-4.4893,-4.3967,-4.3211,-4.297,-4.2409,-4.1818,-4.1314,-4.0463,-3.9564,-3.8862,-3.7912,-3.7092,-3.6677,-3.5878,-3.5076,-3.4339,-3.3784,-3.3131,-3.2373,-3.1738,-3.1098,-3.0323,0.0,0.0,0.0,0.0,0.0,0.0,-2.8694,-2.9152,0.0,0.0,0.0,0.0,0.0,0.0,-3.3193,-3.45,0.0,-3.5741,-3.7511,-3.8477,-3.8646,-4.0358,-4.1326,-4.1731,-4.2245,-4.2635,-4.2972,-4.3223,-4.3259,-4.3067,-4.2289,-4.2107,-4.2248,-4.1278,-4.1052,-4.1183,-4.0415,-3.9373,-3.836,-5.3844,-5.3509,-5.3233,0.0,-5.2698,-5.2698,-5.2698,-5.2473,-5.2215,-5.2048,-5.2376,-5.2755,-5.3163,-5.3832,-5.4281,-5.4281,0.0,0.0,0.0,-5.3683,-5.3226,-5.2931,-5.3275,-5.3449,-5.3449,-5.3224,-5.3194,-5.344,-5.223,-5.1484,-5.1121,-5.0486,-5.0019,-4.9766,-4.9766,-4.9766,-4.9766,-4.9766,-4.9941,-5.0183,-5.0453,-5.0548,-5.0548,-5.0501,-5.0183,-4.9669,-4.9108,-4.8731,-4.8431,-4.8156,-4.8134,-4.8134,-4.8134,-4.7319,-4.6126,-4.4997,-4.4022,-4.3259,-4.297,-4.2706,-4.2328,-4.1448,-4.0998,-4.0439,-3.9019,-3.8132,-3.7402,-3.6761,-3.6243,-3.5745,-3.5193,-3.4886,-3.4329,-3.3345,-3.3169,-3.2742,-3.1662,0.0,0.0,0.0,0.0,0.0,0.0,-3.0171,-3.0547,0.0,0.0,0.0,0.0,0.0,-3.3212,-3.469,-3.5497,-3.5978,-3.6006,-3.7806,-3.8585,-3.8371,-3.9915,-4.0879,-4.133,-4.1914,-4.2389,-4.27,-4.2849,-4.29,-4.2776,-4.1993,-4.1845,-4.2016,-4.1222,-4.1097,-4.1198,-4.044,-3.9423,-3.8409,0.0,0.0,-5.3055,-5.2774,-5.2698,-5.2698,-5.2698,-5.2337,-5.2017,-5.2002,-5.2627,-5.3121,-5.3223,-5.4251,-5.497,-5.497,-5.497,-5.497,-5.497,-5.479,-5.463,-5.4327,-5.4162,-5.4097,-5.4097,-5.4046,-5.4014,-5.3993,-5.3466,-5.2714,-5.1639,-5.1297,-5.0875,-5.0309,-5.0309,-5.0309,-5.0309,-5.0309,-5.0423,-5.0632,-5.0728,-5.0822,-5.0994,-5.0644,-5.0279,-4.9892,-4.9157,-4.8731,-4.8431,-4.8156,-4.8134,-4.8134,-4.8134,-4.76,-4.6771,-4.5635,-4.447,-4.3423,-4.3018,-4.2852,-4.2652,-4.2052,-4.1191,-4.017,-3.8972,-3.8418,-3.7971,-3.7171,-3.6248,-3.555,-3.5424,-3.4865,-3.44,-3.4329,-3.3972,-3.347,-3.2767,-3.2315,0.0,0.0,-3.149,-3.1626,-3.1604,-3.1588,-3.1593,0.0,0.0,0.0,0.0,-3.3743,-3.3919,-3.4108,-3.4916,-3.5526,-3.6005,-3.7203,-3.8404,-3.9574,-3.9976,-4.0681,-4.1688,-4.1827,-4.226,-4.2828,-4.2867,-4.2679,-4.2289,-4.1845,-4.1845,-4.2016,-4.1448,-4.1348,-4.1547,-4.0946,-3.9973,-3.8946,-5.384,-5.3409,-5.31,-5.2743,-5.2698,-5.2698,-5.2698,-5.2322,-5.2002,-5.2002,-5.27,-5.3174,-5.3174,-5.4401,-5.5179,-5.5179,-5.5179,-5.5179,-5.5179,-5.5179,-5.5027,-5.459,-5.4406,-5.4252,-5.4097,-5.4252,-5.4412,-5.467,-5.4192,-5.3585,-5.2694,-5.1983,-5.1364,-5.0913,-5.0648,-5.0501,-5.0501,-5.0501,-5.0614,-5.0793,-5.0793,-5.0785,-5.0687,-5.0218,-4.9934,-4.9695,-4.8796,-4.8553,-4.861,-4.8207,-4.8134,-4.8134,-4.8134,-4.7712,-4.7051,-4.614,-4.5044,-4.3877,-4.31,-4.29,-4.2776,-4.2213,-4.1248,-4.0204,-3.9433,-3.8903,-3.8405,-3.7811,-3.6827,-3.6141,-3.6235,-3.5622,-3.508,-3.5061,-3.4806,-3.4449,-3.3897,-3.3431,0.0,-3.276,-3.265,-3.2644,-3.2658,-3.237,-3.2384,-3.2783,-3.2503,0.0,-3.4426,-3.4546,-3.4673,-3.5027,-3.5447,-3.5997,-3.661,-3.7686,-3.8837,-3.9996,-4.0272,-4.0862,-4.1636,-4.1772,-4.2167,-4.2679,-4.2435,-4.219,-4.1895,-4.1647,-4.1746,-4.2065,-4.1647,-4.1696,-4.1993,-4.1348,-4.0369,-3.9332,-5.3834,-5.3471,-5.3233,-5.2788,-5.2698,-5.2698,-5.2698,-5.2322,-5.2002,-5.2002,-5.27,-5.3174,-5.3174,-5.4401,-5.5179,-5.5179,-5.5179,-5.5179,-5.5179,-5.5179,-5.4976,-5.4406,-5.4304,-5.42,-5.3971,-5.42,-5.4641,-5.5179,-5.464,-5.4212,-5.3863,-5.2594,-5.1873,-5.159,-5.091,-5.0596,-5.0596,-5.0596,-5.071,-5.087,-5.087,-5.0624,-5.015,-4.9732,-4.9545,-4.9375,-4.8326,-4.8387,-4.881,-4.8258,-4.8134,-4.8134,-4.8134,-4.7769,-4.7219,-4.6634,-4.5625,-4.4505,-4.3318,-4.2906,-4.2679,-4.2213,-4.1301,-4.0441,-4.0068,-3.9458,-3.8853,-3.8483,-3.7638,-3.6995,-3.7263,-3.6668,-3.6026,-3.5787,-3.5533,-3.5232,-3.4856,0.0,-3.3922,-3.4022,-3.3694,-3.3377,-3.3171,-3.2898,-3.2882,-3.3356,-3.3162,-3.3515,-3.4708,-3.4883,-3.5407,-3.6396,-3.6423,-3.6766,-3.7442,-3.8585,-3.944,-4.0046,-4.057,-4.1041,-4.1497,-4.1734,-4.2064,-4.2413,-4.1895,-4.1696,-4.1696,-4.1448,-4.1696,-4.2141,-4.1895,-4.2043,-4.2413,-4.1723,-4.0664,-3.9621,-5.4465,-5.3681,-5.3055,-5.2743,-5.2698,-5.2698,-5.2698,-5.2322,-5.2002,-5.2002,-5.27,-5.3174,-5.3174,-5.4401,-5.5179,-5.5179,-5.5179,-5.5179,-5.5179,-5.5179,-5.5027,-5.4751,-5.4436,-5.4304,-5.4252,-5.4568,-5.4875,-5.5179,-5.5089,-5.476,-5.4142,-5.3365,-5.2677,-5.2091,-5.1387,-5.1088,-5.1088,-5.1088,-5.1135,-5.1105,-5.1105,-5.0764,-5.0196,-4.9918,-4.9685,-4.9375,-4.8567,-4.8534,-4.881,-4.8258,-4.8134,-4.8134,-4.8134,-4.8078,-4.783,-4.6969,-4.6051,-4.5139,-4.3993,-4.2959,-4.2164,-4.2115,-4.1617,-4.0937,-4.0145,-3.9792,-3.934,-3.8559,-3.789,-3.7568,-3.784,-3.7217,-3.6721,-3.6887,-3.5755,-3.4931,-3.5307,0.0,-3.4073,-3.455,-3.4098,-3.3965,-3.4297,-3.3434,-3.3105,-3.3753,-3.3914,-3.4139,-3.4498,-3.5183,-3.5845,-3.6525,-3.6552,-3.7096,-3.8211,-3.8918,-3.9588,-4.0187,-4.0268,-4.0876,-4.1917,-4.1734,-4.1871,-4.2141,-4.1845,-4.1696,-4.1696,-4.1647,-4.1944,-4.2413,-4.2141,-4.2239,-4.2462,-4.2092,-4.1104,-3.9934,-5.5364,-5.4719,-5.4307,-5.4035,-5.3589,-5.3252,-5.3252,-5.2536,-5.2123,-5.2488,-5.2941,-5.3324,-5.3683,-5.461,-5.5179,-5.5179,-5.5179,-5.5179,-5.5179,-5.5179,-5.5108,-5.4803,-5.4671,-5.4539,-5.4539,-5.4722,-5.4955,-5.5179,-5.5057,-5.4827,-5.4529,-5.3486,-5.283,-5.2502,-5.1583,-5.1105,-5.1011,-5.1105,-5.1105,-5.1011,-5.1105,-5.0601,-4.9703,-4.9429,-4.9199,-4.8875,-4.8235,-4.8393,-4.8859,-4.861,-4.8308,-4.8134,-4.8258,-4.8207,-4.7948,-4.7263,-4.6012,-4.4584,-4.359,-4.2846,-4.2289,-4.2141,-4.1796,-4.1319,-4.0659,-4.0308,-4.0005,-3.9423,-3.8668,-3.8166,-3.8417,-3.7817,-3.7219,-3.7188,-3.6533,0.0,0.0,-3.5713,-3.5532,-3.5948,-3.5147,-3.4705,-3.519,-3.3819,-3.3282,-3.4293,-3.4272,-3.442,-3.4982,-3.5751,-3.6307,-3.6578,-3.7229,-3.7853,-3.8396,-3.902,-3.959,-4.0187,-4.054,-4.1044,-4.1815,-4.1823,-4.1874,-4.1895,-4.1597,-4.1448,-4.1498,-4.1647,-4.1944,-4.2289,-4.2289,-4.2484,-4.2658,-4.2239,-4.1298,-4.0145,-5.6235,-5.5789,-5.5468,-5.5147,-5.4483,-5.4006,-5.396,-5.3162,-5.2732,-5.3155,-5.3411,-5.3721,-5.4162,-5.479,-5.5179,-5.5179,-5.5179,-5.5179,-5.5179,-5.5179,-5.5078,-5.4905,-5.4905,-5.4854,-5.4803,-5.4854,-5.4955,-5.5108,-5.4905,-5.4662,-5.4433,-5.3248,-5.2625,-5.2496,-5.1453,-5.0917,-5.0728,-5.1011,-5.1011,-5.0822,-5.1058,-5.0511,-4.9494,-4.9282,-4.9008,-4.8639,-4.822,-4.8423,-4.9009,-4.8909,-4.861,-4.8308,-4.8559,-4.8409,-4.8106,-4.7699,-4.615,-4.4294,-4.3351,-4.2787,-4.2462,-4.219,-4.1895,-4.1547,-4.1047,-4.0744,-4.0491,-4.0236,-3.9474,-3.8943,-3.9146,-3.8492,-3.7767,-3.7414,0.0,0.0,0.0,-3.6607,-3.6625,-3.6857,-3.5876,-3.5258,-3.5572,-3.4126,-3.3581,-3.4647,-3.4497,-3.474,-3.5492,-3.6238,-3.6741,-3.7012,-3.7935,-3.8477,-3.8613,-3.9074,-3.9671,-4.0404,-4.0892,-4.1349,-4.1812,-4.2026,-4.1944,-4.1696,-4.1398,-4.1374,-4.1398,-4.1597,-4.1845,-4.2115,-4.2338,-4.2533,-4.2679,-4.2239,-4.1298,-4.0145,-5.6864,-5.627,-5.5618,-5.5193,-5.5024,-5.49,-5.4637,-5.4404,-5.4138,-5.3962,-5.425,-5.4458,-5.4192,-5.479,-5.5179,-5.5179,-5.5179,-5.5179,-5.5179,-5.5179,-5.5179,-5.5179,-5.5179,-5.5027,-5.4803,-5.5057,-5.5057,-5.4854,-5.4803,-5.4374,-5.3499,-5.2741,-5.2142,-5.1552,-5.0844,-5.0548,-5.0548,-5.0728,-5.0822,-5.0822,-5.1058,-5.0734,-5.0136,-5.0106,-4.9829,-4.9363,-4.911,-4.9117,-4.9207,-4.9009,-4.8859,-4.8859,-4.8859,-4.871,-4.8431,-4.8431,-4.6979,-4.5145,-4.4026,-4.3111,-4.2462,-4.219,-4.1895,-4.1547,-4.1047,-4.0896,-4.0795,-4.0542,-4.0211,-4.0007,-4.0007,-3.9373,-3.8617,-3.804,0.0,0.0,-3.6687,-3.6278,-3.604,-3.6339,-3.5756,-3.5282,-3.5003,-3.4399,-3.4121,-3.4397,-3.4786,-3.5313,-3.5942,-3.6371,-3.7121,-3.8233,-3.8369,-3.8695,-3.9237,-3.9292,-3.9888,-4.1055,-4.111,-4.1592,-4.2431,-4.2213,-4.1944,-4.1696,-4.1398,-4.1448,-4.1647,-4.1696,-4.1845,-4.2065,-4.2115,-4.2141,-4.2164,-4.2115,-4.1029,-3.9642,-5.7772,-5.7275,-5.6809,-5.6622,-5.5999,-5.544,-5.5315,-5.4819,-5.446,-5.457,-5.4582,-5.4669,-5.481,-5.5029,-5.5179,-5.5179,-5.5179,-5.5179,-5.5179,-5.5179,-5.5179,-5.5179,-5.5179,-5.5128,-5.5057,-5.4589,-5.425,-5.4149,-5.3461,-5.2855,-5.252,-5.1874,-5.1434,-5.117,-5.0699,-5.0405,-5.0279,-5.0632,-5.0728,-5.0662,-5.1041,-5.0794,-5.0196,-5.0196,-4.9918,-4.9498,-4.9404,-4.9339,-4.9305,-4.9375,-4.9207,-4.8959,-4.9108,-4.8859,-4.8324,-4.7427,-4.6128,-4.4857,-4.4031,-4.3286,-4.2631,-4.2239,-4.2043,-4.1796,-4.1248,-4.1047,-4.0896,-4.0795,-4.0542,-4.0338,-4.0338,-4.0084,-3.9575,-3.8634,0.0,-3.7712,-3.7257,-3.7021,-3.6856,-3.6767,-3.6089,-3.552,-3.5167,-3.451,-3.423,-3.4632,-3.5281,-3.5782,-3.6189,-3.7142,-3.8098,-3.8939,-3.8966,-3.9074,-3.9292,-3.9292,-3.9825,-4.085,-4.085,-4.126,-4.1993,-4.1895,-4.1696,-4.1448,-4.1374,-4.1374,-4.1448,-4.1647,-4.1746,-4.1845,-4.1845,-4.1845,-4.1796,-4.1471,-4.0517,-3.9332,-5.8321,-5.7918,-5.759,-5.7543,-5.676,-5.6118,-5.607,-5.5463,-5.5101,-5.5238,-5.5035,-5.4969,-5.52,-5.5179,-5.5179,-5.5179,-5.5179,-5.5179,-5.5179,-5.5179,-5.5179,-5.5179,-5.5179,-5.5039,-5.4779,-5.4101,-5.3624,-5.3216,-5.2423,-5.185,-5.1595,-5.1108,-5.0787,-5.0554,-5.034,-5.0135,-5.0038,-5.0489,-5.0614,-5.0548,-5.0994,-5.0913,-5.0495,-5.0495,-5.0216,-4.9793,-4.9793,-4.9658,-4.9453,-4.962,-4.9424,-4.9207,-4.9256,-4.8859,-4.8117,-4.6772,-4.566,-4.4656,-4.3981,-4.3335,-4.2776,-4.2338,-4.219,-4.1993,-4.1547,-4.1198,-4.1047,-4.1047,-4.0795,-4.0643,-4.0643,-4.0542,-4.0132,-3.8979,-3.8774,-3.8486,-3.7614,-3.7505,-3.739,-3.7019,-3.6512,-3.5999,-3.56,-3.5139,-3.4989,-3.531,-3.5976,-3.6565,-3.6964,-3.8066,-3.8884,-3.9292,-3.9292,-3.9247,-3.9203,-3.9158,-3.9708,-4.071,-4.0616,-4.0946,-4.1696,-4.1696,-4.1547,-4.1324,-4.1324,-4.1324,-4.1324,-4.1498,-4.1498,-4.1448,-4.1448,-4.1398,-4.1298,-4.0896,-4.0022,-3.8897,-5.8321,-5.8089,-5.7825,-5.7543,-5.7306,-5.7019,-5.6858,-5.6567,-5.6323,-5.6028,-5.578,-5.5481,-5.5229,-5.5179,-5.5179,-5.5179,-5.5179,-5.5179,-5.5179,-5.5179,-5.5179,-5.5179,-5.5179,-5.4779,-5.3843,-5.3763,-5.3187,-5.1988,-5.1988,-5.1516,-5.0705,-5.0705,-5.0357,-4.9717,-4.9717,-4.9717,-4.9717,-5.0279,-5.0501,-5.0548,-5.0994,-5.1229,-5.1229,-5.1199,-5.0899,-5.0501,-5.0501,-5.0135,-4.9717,-4.9717,-4.9717,-4.962,-4.9404,-4.8731,-4.7864,-4.6722,-4.5811,-4.4929,-4.4031,-4.3335,-4.2852,-4.256,-4.2289,-4.2043,-4.1746,-4.1498,-4.1324,-4.1324,-4.1097,-4.0896,-4.0896,-4.0694,-4.0132,-3.8979,-3.8774,-3.8486,-3.7614,-3.7505,-3.739,-3.7019,-3.7011,-3.6776,-3.6149,-3.6341,-3.6471,-3.6541,-3.693,-3.7542,-3.8353,-3.8966,-3.9292,-3.9292,-3.9319,-3.9158,-3.8908,-3.8908,-3.95,-4.071,-4.0428,-4.0754,-4.1696,-4.1696,-4.1547,-4.1324,-4.1324,-4.1324,-4.1324,-4.1324,-4.1147,-4.0896,-4.0896,-4.0744,-4.0517,-4.0517,-3.9599,-3.8434,-5.8011,-5.7637,-5.7322,-5.7227,-5.7019,-5.6906,-5.681,-5.6567,-5.6323,-5.6028,-5.578,-5.5481,-5.5229,-5.5179,-5.5179,-5.5179,-5.5179,-5.5179,-5.5179,-5.5179,-5.5179,-5.5179,-5.5179,-5.4779,-5.3843,-5.3168,-5.2358,-5.1394,-5.0729,-5.0261,-5.0037,-5.0037,-4.9921,-4.9717,-4.9717,-4.9717,-4.9717,-5.0279,-5.0501,-5.0548,-5.0994,-5.1229,-5.1169,-5.0674,-5.0216,-4.9793,-4.9793,-4.9432,-4.9088,-4.9524,-4.9717,-4.962,-4.9157,-4.8459,-4.7638,-4.6671,-4.566,-4.4656,-4.3981,-4.3335,-4.2852,-4.256,-4.2462,-4.2289,-4.2043,-4.1796,-4.1597,-4.1597,-4.1348,-4.1147,-4.1147,-4.0759,-4.019,-3.9462,-3.8995,-3.8522,-3.7866,-3.7762,-3.7573,-3.7063,-3.7146,-3.7042,-3.6437,-3.6628,-3.6844,-3.6973,-3.765,-3.8336,-3.902,-3.921,-3.9292,-3.9292,-3.9519,-3.9599,-3.9553,-3.9123,-3.9318,-4.0118,-4.0071,-4.0513,-4.1398,-4.1398,-4.1374,-4.1324,-4.1324,-4.1324,-4.1324,-4.1324,-4.1274,-4.1147,-4.0744,-4.0542,-4.044,-4.0108,-3.9271,-3.8417,-5.7778,-5.7401,-5.7084,-5.7084,-5.6923,-5.6761,-5.6664,-5.6421,-5.6127,-5.588,-5.5631,-5.5381,-5.5229,-5.5179,-5.5179,-5.5179,-5.5179,-5.5179,-5.5179,-5.5179,-5.5179,-5.5179,-5.5179,-5.4729,-5.3642,-5.2811,-5.1915,-5.0953,-5.0086,-4.9717,-4.9717,-4.9717,-4.9717,-4.9717,-4.9717,-4.9717,-4.9717,-5.0279,-5.0501,-5.0548,-5.0994,-5.1229,-5.1139,-5.0435,-4.9918,-4.9498,-4.9498,-4.9168,-4.8779,-4.9368,-4.9375,-4.9178,-4.8831,-4.8258,-4.7536,-4.6671,-4.5852,-4.5006,-4.4063,-4.3497,-4.3172,-4.276,-4.2609,-4.2462,-4.2289,-4.2043,-4.1845,-4.1696,-4.1547,-4.1398,-4.1324,-4.0827,-4.0226,-3.9703,-3.9102,-3.8527,-3.7978,-3.79,-3.7815,-3.7513,-3.7622,-3.7624,-3.7343,-3.7536,-3.7799,-3.8017,-3.8472,-3.8939,-3.9292,-3.9446,-3.951,-3.951,-3.983,-3.994,-3.9847,-3.9474,-3.9628,-4.025,-4.0127,-4.053,-4.1324,-4.1324,-4.1324,-4.1324,-4.1324,-4.1324,-4.1324,-4.1324,-4.1174,-4.0972,-4.0618,-4.0338,-4.016,-3.98,-3.9218,-3.8641,-5.7543,-5.7227,-5.7036,-5.7036,-5.6875,-5.6664,-5.6421,-5.6127,-5.588,-5.5631,-5.5381,-5.5179,-5.5179,-5.5179,-5.5179,-5.5179,-5.5179,-5.5179,-5.5179,-5.5179,-5.5179,-5.5179,-5.5179,-5.4658,-5.3529,-5.285,-5.1874,-5.0734,-5.0124,-4.9776,-4.9717,-4.9717,-4.9717,-4.9717,-4.9717,-4.9717,-4.9766,-5.0279,-5.0548,-5.0596,-5.1041,-5.1229,-5.1139,-5.0375,-4.9829,-4.941,-4.941,-4.9051,-4.8644,-4.9124,-4.8909,-4.8481,-4.8481,-4.8156,-4.7564,-4.6754,-4.6228,-4.57,-4.433,-4.3954,-4.3764,-4.3118,-4.2836,-4.2614,-4.256,-4.2338,-4.2092,-4.1796,-4.1696,-4.1597,-4.1374,-4.0775,-4.0174,-3.9677,-3.905,-3.8475,-3.7998,-3.7946,-3.8011,-3.8213,-3.8258,-3.8349,-3.8602,-3.88,-3.9042,-3.9247,-3.9301,-3.9328,-3.9328,-3.9626,-3.9857,-3.9857,-4.0168,-4.0224,-3.996,-4.0013,-4.0276,-4.0728,-4.0533,-4.0723,-4.1324,-4.1324,-4.1324,-4.1324,-4.1324,-4.1324,-4.1324,-4.1274,-4.0972,-4.0542,-4.0517,-4.0211,-3.9749,-3.9749,-3.9422,-3.8944,-5.7227,-5.6827,-5.6537,-5.6537,-5.6372,-5.6176,-5.6077,-5.588,-5.5681,-5.5631,-5.5381,-5.5179,-5.5179,-5.5179,-5.5179,-5.5179,-5.5179,-5.5179,-5.5179,-5.5179,-5.5179,-5.5179,-5.5179,-5.4968,-5.4544,-5.3609,-5.2373,-5.0734,-5.054,-5.0191,-4.9717,-4.9717,-4.9717,-4.9717,-4.9941,-5.0038,-5.0038,-5.0537,-5.0728,-5.0775,-5.1058,-5.1229,-5.1079,-4.9912,-4.9191,-4.8778,-4.8732,-4.8267,-4.7808,-4.8686,-4.876,-4.8481,-4.8481,-4.8156,-4.7647,-4.7252,-4.6558,-4.5891,-4.5363,-4.4854,-4.4366,-4.3742,-4.3579,-4.3421,-4.2933,-4.2609,-4.2338,-4.2092,-4.1845,-4.1597,-4.1374,-4.0488,-3.9756,-3.9625,-3.8736,-3.8077,-3.8148,-3.8122,-3.8213,-3.8512,-3.8666,-3.8774,-3.8819,-3.9069,-3.9158,-3.8997,-3.941,-3.9588,-3.9379,-3.9921,-4.0194,-4.0194,-4.0542,-4.0641,-4.0592,-4.0844,-4.0798,-4.0484,-4.0409,-4.0723,-4.1324,-4.1324,-4.1324,-4.1324,-4.1324,-4.1324,-4.1274,-4.1047,-4.0946,-4.0795,-4.0593,-4.0287,-4.0032,-4.0032,-3.9648,-3.9137,-5.6827,-5.6567,-5.6372,-5.6225,-5.6077,-5.5979,-5.583,-5.5681,-5.5531,-5.5431,-5.528,-5.5179,-5.5179,-5.5179,-5.5179,-5.5179,-5.5179,-5.5179,-5.5179,-5.5179,-5.5179,-5.5179,-5.5179,-5.5078,-5.4803,-5.4162,-5.2981,-5.132,-5.09,-5.0386,-4.9717,-4.9717,-4.9717,-4.9717,-4.999,-5.0086,-5.0135,-5.0585,-5.0793,-5.0822,-5.1058,-5.1229,-5.1063,-4.9984,-4.9189,-4.8601,-4.874,-4.8497,-4.817,-4.8581,-4.8631,-4.8481,-4.8481,-4.8308,-4.8055,-4.775,-4.7169,-4.6507,-4.5926,-4.5472,-4.499,-4.4366,-4.423,-4.3986,-4.309,-4.2803,-4.2582,-4.219,-4.1993,-4.1796,-4.1374,-4.0592,-3.9913,-3.9651,-3.8867,-3.828,-3.8194,-3.8213,-3.8349,-3.8711,-3.8819,-3.8908,-3.8908,-3.9042,-3.9024,-3.8756,-3.9291,-3.952,-3.9428,-4.0139,-4.0521,-4.0521,-4.086,-4.1051,-4.1051,-4.1217,-4.1167,-4.0853,-4.0853,-4.101,-4.1324,-4.1324,-4.1324,-4.1274,-4.1147,-4.1097,-4.1097,-4.0846,-4.0694,-4.0694,-4.0542,-4.0389,-4.0287,-4.0287,-4.0032,-3.9622,-5.647,-5.6323,-5.6176,-5.5979,-5.588,-5.578,-5.5581,-5.5531,-5.5431,-5.5229,-5.5179,-5.5179,-5.5179,-5.5179,-5.5179,-5.5179,-5.5179,-5.5179,-5.5179,-5.5179,-5.5179,-5.5179,-5.5179,-5.5108,-5.4854,-5.4487,-5.3531,-5.1988,-5.1241,-5.0423,-4.9717,-4.9717,-4.9717,-4.9717,-4.999,-5.0135,-5.0183,-5.0632,-5.0822,-5.0917,-5.1105,-5.1229,-5.1092,-5.0232,-4.9393,-4.866,-4.8981,-4.9049,-4.8959,-4.8631,-4.8581,-4.8581,-4.8581,-4.8531,-4.8431,-4.8179,-4.775,-4.7126,-4.6373,-4.5956,-4.5587,-4.499,-4.4854,-4.4556,-4.3443,-4.3118,-4.2863,-4.2239,-4.2065,-4.1944,-4.1398,-4.0827,-4.0278,-3.9834,-3.9259,-3.8778,-3.8582,-3.8549,-3.8732,-3.9159,-3.9078,-3.9024,-3.9024,-3.8872,-3.8756,-3.8557,-3.9123,-3.9495,-3.9449,-4.0351,-4.0886,-4.0886,-4.1162,-4.1324,-4.1324,-4.1324,-4.1324,-4.1324,-4.1324,-4.1324,-4.1324,-4.1324,-4.1324,-4.1274,-4.1047,-4.0946,-4.0896,-4.0593,-4.0517,-4.0517,-4.0517,-4.0517,-4.0491,-4.044,-4.0287,-4.0083,-5.647,-5.6028,-5.5681,-5.5681,-5.5481,-5.528,-5.5229,-5.5229,-5.5229,-5.5179,-5.5179,-5.5179,-5.5179,-5.5179,-5.5179,-5.5179,-5.5179,-5.5179,-5.5179,-5.5179,-5.5179,-5.5179,-5.5179,-5.5179,-5.5158,-5.459,-5.3531,-5.1988,-5.1678,-5.0859,-4.9717,-4.9717,-4.9717,-4.9717,-4.999,-5.0231,-5.0453,-5.068,-5.0917,-5.1152,-5.1182,-5.1229,-5.1092,-5.0232,-4.9393,-4.866,-4.8981,-4.9146,-4.9207,-4.8959,-4.8859,-4.8859,-4.8859,-4.8681,-4.8431,-4.8179,-4.775,-4.7236,-4.6895,-4.6556,-4.6211,-4.5614,-4.5478,-4.5288,-4.461,-4.404,-4.3399,-4.232,-4.2065,-4.1944,-4.1398,-4.0827,-4.0383,-4.0305,-3.9834,-3.9585,-3.998,-4.0,-4.0141,-4.0421,-3.9799,-3.9341,-3.9341,-3.8914,-3.853,-3.8258,-3.9262,-3.9775,-3.959,-4.0615,-4.1243,-4.1243,-4.1272,-4.1324,-4.1324,-4.1324,-4.1324,-4.1324,-4.1324,-4.1324,-4.1324,-4.1324,-4.1324,-4.1324,-4.1274,-4.1097,-4.0896,-4.0593,-4.0517,-4.0517,-4.0517,-4.0517,-4.044,-4.0236,-4.0134,-4.0083,-5.6225,-5.588,-5.5531,-5.5381,-5.528,-5.5179,-5.5179,-5.5179,-5.5179,-5.5179,-5.5179,-5.5179,-5.5179,-5.5179,-5.5179,-5.5179,-5.5179,-5.5179,-5.5179,-5.5179,-5.5179,-5.5179,-5.5179,-5.5158,-5.5006,-5.4184,-5.3229,-5.1988,-5.1715,-5.0946,-4.9717,-4.9717,-4.9717,-4.9717,-4.999,-5.0183,-5.0279,-5.0632,-5.087,-5.1011,-5.1105,-5.1229,-5.1152,-5.0508,-4.974,-4.9039,-4.8767,-4.8953,-4.9256,-4.881,-4.881,-4.8859,-4.8731,-4.8581,-4.8481,-4.838,-4.7953,-4.7442,-4.7184,-4.6925,-4.661,-4.6209,-4.6075,-4.5912,-4.5343,-4.499,-4.4428,-4.3134,-4.2847,-4.2591,-4.165,-4.1287,-4.0949,-4.0461,-4.0226,-4.0035,-4.0076,-4.0097,-4.0192,-4.0428,-4.0141,-3.9841,-3.9673,-3.9462,-3.9236,-3.9029,-3.9716,-4.014,-4.0069,-4.0853,-4.1324,-4.1324,-4.1324,-4.1324,-4.1324,-4.1324,-4.1324,-4.1324,-4.1324,-4.1324,-4.1324,-4.1324,-4.1324,-4.1274,-4.1147,-4.0997,-4.0896,-4.0593,-4.0593,-4.0744,-4.0744,-4.0795,-4.0896,-4.0643,-4.044,-4.0287]},{"header":{"parameterUnit":"m.s-1","parameterCategory":1,"la1":30.6,"la2":28.766,"lo1":-90.7593,"lo2":-88.6598,"dy":0.0162,"dx":0.0183,"nx":116,"ny":114,"refTime":"2023-05-10T00:00:00:Z","depth":0,"parameterNumber":3,"parameterNumberName":"V-component_of_WINDS"},"data":[0.0,0.0,0.0,0.0,0.0,0.0,0.0,0.0,0.0,0.0,0.0,0.0,0.0,0.0,0.0,0.0,0.0,0.0,0.0,0.0,0.0,0.0,0.0,0.0,0.0,0.0,0.0,0.0,0.0,0.0,0.0,0.0,0.0,0.0,0.0,0.0,0.0,0.0,0.0,0.0,0.0,0.0,0.0,0.0,0.0,0.0,0.0,0.0,0.0,0.0,0.0,0.0,0.0,0.0,0.0,0.0,0.0,0.0,0.0,0.0,0.0,0.0,0.0,0.0,0.0,0.0,0.0,0.0,0.0,0.0,0.0,0.0,0.0,0.0,0.0,0.0,0.0,0.0,0.0,0.0,0.0,0.0,0.0,0.0,0.0,0.0,0.0,0.0,0.0,0.0,0.0,0.0,0.0,0.0,0.0,0.0,0.0,0.0,0.0,0.0,0.0,0.0,0.0,0.0,0.0,0.0,0.0,0.0,0.0,0.0,0.0,0.0,0.0,0.0,0.0,0.0,0.0,0.0,0.0,0.0,0.0,0.0,0.0,0.0,0.0,0.0,0.0,0.0,0.0,0.0,0.0,0.0,0.0,0.0,0.0,0.0,0.0,0.0,0.0,0.0,0.0,0.0,0.0,0.0,0.0,0.0,0.0,0.0,0.0,0.0,0.0,0.0,0.0,0.0,0.0,0.0,0.0,0.0,0.0,0.0,0.0,0.0,0.0,0.0,0.0,0.0,0.0,0.0,0.0,0.0,0.0,0.0,0.0,0.0,0.0,0.0,0.0,0.0,0.0,0.0,0.0,0.0,0.0,0.0,0.0,0.0,0.0,0.0,0.0,0.0,0.0,0.0,0.0,0.0,0.0,0.0,0.0,0.0,0.0,0.0,0.0,0.0,0.0,0.0,0.0,0.0,0.0,0.0,0.0,0.0,0.0,0.0,0.0,0.0,0.0,0.0,0.0,0.0,0.0,0.0,0.0,0.0,0.0,0.0,0.0,0.0,0.0,0.0,0.0,0.0,0.0,0.0,0.0,0.0,0.0,0.0,0.0,0.0,0.0,0.0,0.0,0.0,0.0,0.0,0.0,0.0,0.0,0.0,0.0,0.0,0.0,0.0,0.0,0.0,0.0,0.0,0.0,0.0,0.0,0.0,0.0,0.0,0.0,0.0,0.0,0.0,0.0,0.0,0.0,0.0,0.0,0.0,0.0,0.0,0.0,0.0,0.0,0.0,0.0,0.0,0.0,0.0,0.0,0.0,0.0,0.0,0.0,0.0,0.0,0.0,0.0,0.0,0.0,0.0,0.0,0.0,0.0,0.0,0.0,0.0,0.0,0.0,0.0,0.0,0.0,0.0,0.0,0.0,0.0,0.0,0.0,0.0,0.0,0.0,0.0,0.0,0.0,0.0,0.0,0.0,0.0,0.0,0.0,0.0,0.0,0.0,0.0,0.0,0.0,0.0,0.0,0.0,0.0,0.0,0.0,0.0,0.0,0.0,0.0,0.0,0.0,0.0,0.0,0.0,0.0,0.0,0.0,0.0,0.0,0.0,0.0,0.0,0.0,0.0,0.0,0.0,0.0,0.0,0.0,0.0,0.0,0.0,0.0,0.0,0.0,0.0,0.0,0.0,0.0,0.0,0.0,0.0,0.0,0.0,0.0,0.0,0.0,0.0,0.0,0.0,0.0,0.0,0.0,0.0,0.0,0.0,0.0,0.0,0.0,0.0,0.0,0.0,0.0,0.0,0.0,0.0,0.0,0.0,0.0,0.0,0.0,0.0,0.0,0.0,0.0,0.0,0.0,0.0,0.0,0.0,0.0,0.0,0.0,0.0,0.0,0.0,0.0,0.0,0.0,0.0,0.0,0.0,0.0,0.0,0.0,0.0,0.0,0.0,0.0,0.0,0.0,0.0,0.0,0.0,0.0,0.0,0.0,0.0,0.0,0.0,0.0,0.0,0.0,0.0,0.0,0.0,0.0,0.0,0.0,0.0,0.0,0.0,0.0,0.0,0.0,0.0,0.0,0.0,0.0,0.0,0.0,0.0,0.0,0.0,0.0,0.0,0.0,0.0,0.0,0.0,0.0,0.0,0.0,0.0,0.0,0.0,0.0,0.0,0.0,0.0,0.0,0.0,0.0,0.0,0.0,0.0,0.0,0.0,0.0,0.0,0.0,0.0,0.0,0.0,0.0,0.0,0.0,0.0,0.0,0.0,0.0,0.0,0.0,0.0,0.0,0.0,0.0,0.0,0.0,0.0,0.0,0.0,0.0,0.0,0.0,0.0,0.0,0.0,0.0,0.0,0.0,0.0,0.0,0.0,0.0,0.0,0.0,0.0,0.0,0.0,0.0,0.0,0.0,0.0,0.0,0.0,0.0,0.0,0.0,0.0,0.0,0.0,0.0,0.0,0.0,0.0,0.0,0.0,0.0,0.0,0.0,0.0,0.0,0.0,0.0,0.0,0.0,0.0,0.0,0.0,0.0,0.0,0.0,0.0,0.0,0.0,0.0,0.0,0.0,0.0,0.0,0.0,0.0,0.0,0.0,0.0,0.0,0.0,0.0,0.0,0.0,0.0,0.0,0.0,0.0,0.0,0.0,0.0,0.0,0.0,0.0,0.0,0.0,0.0,0.0,0.0,0.0,0.0,0.0,0.0,0.0,0.0,0.0,0.0,0.0,0.0,0.0,0.0,0.0,0.0,0.0,0.0,0.0,0.0,0.0,0.0,0.0,0.0,0.0,0.0,0.0,0.0,0.0,0.0,0.0,0.0,0.0,0.0,0.0,0.0,0.0,0.0,0.0,0.0,0.0,0.0,0.0,0.0,0.0,0.0,0.0,0.0,0.0,0.0,0.0,0.0,0.0,0.0,0.0,0.0,0.0,0.0,0.0,0.0,0.0,0.0,0.0,0.0,0.0,0.0,0.0,0.0,0.0,0.0,0.0,0.0,0.0,0.0,0.0,0.0,0.0,0.0,0.0,0.0,0.0,0.0,0.0,0.0,0.0,0.0,0.0,0.0,0.0,0.0,0.0,0.0,0.0,0.0,0.0,0.0,0.0,0.0,0.0,0.0,0.0,0.0,0.0,0.0,0.0,0.0,0.0,0.0,0.0,0.0,0.0,0.0,0.0,0.0,0.0,0.0,0.0,0.0,0.0,0.0,0.0,0.0,0.0,0.0,0.0,0.0,0.0,0.0,0.0,0.0,0.0,0.0,0.0,0.0,0.0,0.0,0.0,0.0,0.0,0.0,0.0,0.0,0.0,0.0,0.0,0.0,0.0,0.0,0.0,0.0,0.0,0.0,0.0,0.0,0.0,0.0,0.0,0.0,0.0,0.0,0.0,0.0,0.0,0.0,0.0,0.0,0.0,0.0,0.0,0.0,0.0,0.0,0.0,0.0,0.0,0.0,0.0,0.0,0.0,0.0,0.0,0.0,0.0,0.0,0.0,0.0,0.0,0.0,0.0,0.0,0.0,0.0,0.0,0.0,0.0,0.0,0.0,0.0,0.0,0.0,0.0,0.0,0.0,0.0,0.0,0.0,0.0,0.0,0.0,0.0,0.0,0.0,0.0,0.0,0.0,0.0,0.0,0.0,0.0,0.0,0.0,0.0,0.0,0.0,0.0,0.0,0.0,0.0,0.0,0.0,0.0,0.0,0.0,0.0,0.0,0.0,0.0,0.0,0.0,0.0,0.0,0.0,0.0,0.0,0.0,0.0,0.0,0.0,0.0,0.0,0.0,0.0,0.0,0.0,0.0,0.0,0.0,0.0,0.0,0.0,0.0,0.0,0.0,0.0,0.0,0.0,0.0,0.0,0.0,0.0,0.0,0.0,0.0,0.0,0.0,0.0,0.0,0.0,0.0,0.0,0.0,0.0,0.0,0.0,0.0,0.0,0.0,0.0,0.0,0.0,0.0,0.0,0.0,0.0,0.0,0.0,0.0,0.0,0.0,0.0,0.0,0.0,0.0,0.0,0.0,0.0,0.0,0.0,0.0,0.0,0.0,0.0,0.0,0.0,0.0,0.0,0.0,0.0,0.0,0.0,0.0,0.0,0.0,0.0,0.0,0.0,0.0,0.0,0.0,0.0,0.0,0.0,0.0,0.0,0.0,0.0,0.0,0.0,0.0,0.0,0.0,0.0,0.0,0.0,0.0,0.0,0.0,0.0,0.0,0.0,0.0,0.0,0.0,0.0,0.0,0.0,0.0,0.0,0.0,0.0,0.0,0.0,0.0,0.0,0.0,0.0,0.0,0.0,0.0,0.0,0.0,0.0,0.0,0.0,0.0,0.0,0.0,0.0,0.0,0.0,0.0,0.0,0.0,0.0,0.0,0.0,0.0,0.0,0.0,0.0,0.0,0.0,0.0,0.0,0.0,0.0,0.0,0.0,0.0,0.0,0.0,0.0,0.0,0.0,0.0,0.0,0.0,0.0,0.0,0.0,0.0,0.0,0.0,0.0,0.0,0.0,0.0,0.0,0.0,0.0,0.0,0.0,0.0,0.0,0.0,0.0,0.0,0.0,0.0,0.0,0.0,0.0,0.0,0.0,0.0,0.0,0.0,0.0,0.0,0.0,0.0,0.0,0.0,0.0,0.0,0.0,0.0,0.0,0.0,0.0,0.0,0.0,0.0,0.0,0.0,0.0,0.0,0.0,0.0,0.0,0.0,0.0,0.0,0.0,0.0,0.0,0.0,0.0,0.0,0.0,0.0,0.0,0.0,0.0,0.0,0.0,0.0,0.0,0.0,0.0,0.0,0.0,0.0,0.0,0.0,0.0,0.0,0.0,0.0,0.0,0.0,0.0,0.0,0.0,0.0,0.0,0.0,0.0,0.0,0.0,0.0,0.0,0.0,0.0,0.0,0.0,0.0,0.0,0.0,0.0,0.0,0.0,0.0,0.0,0.0,0.0,0.0,0.0,0.0,0.0,0.0,0.0,0.0,0.0,0.0,0.0,0.0,0.0,0.0,0.0,0.0,0.0,0.0,0.0,0.0,0.0,0.0,0.0,0.0,0.0,0.0,0.0,0.0,0.0,0.0,0.0,0.0,0.0,0.0,0.0,0.0,0.0,0.0,0.0,0.0,0.0,0.0,0.0,0.0,0.0,0.0,0.0,0.0,0.0,0.0,0.0,0.0,0.0,0.0,0.0,0.0,0.0,0.0,0.0,0.0,0.0,0.0,0.0,0.0,0.0,0.0,0.0,0.0,0.0,0.0,0.0,0.0,0.0,0.0,0.0,0.0,0.0,0.0,0.0,0.0,0.0,0.0,0.0,0.0,0.0,0.0,0.0,0.0,0.0,0.0,0.0,0.0,0.0,0.0,0.0,0.0,0.0,0.0,0.0,0.0,0.0,0.0,0.0,0.0,0.0,0.0,0.0,0.0,0.0,0.0,0.0,0.0,0.0,0.0,0.0,0.0,0.0,0.0,0.0,0.0,0.0,0.0,0.0,0.0,0.0,0.0,0.0,0.0,0.0,0.0,0.0,0.0,0.0,0.0,0.0,0.0,0.0,0.0,0.0,0.0,0.0,0.0,0.0,0.0,0.0,0.0,0.0,0.0,0.0,0.0,0.0,0.0,0.0,0.0,0.0,0.0,0.0,0.0,0.0,0.0,0.0,0.0,0.0,0.0,0.0,0.0,0.0,0.0,0.0,0.0,0.0,0.0,0.0,0.0,0.0,0.0,0.0,0.0,0.0,0.0,0.0,0.0,0.0,0.0,0.0,0.0,0.0,0.0,0.0,0.0,0.0,0.0,0.0,0.0,0.0,0.0,0.0,0.0,0.0,0.0,0.0,0.0,0.0,0.0,0.0,0.0,0.0,0.0,0.0,0.0,0.0,0.0,0.0,0.0,0.0,0.0,0.0,0.0,0.0,0.0,0.0,0.0,0.0,0.0,0.0,0.0,0.0,0.0,0.0,0.0,0.0,0.0,0.0,0.0,0.0,0.0,0.0,0.0,0.0,0.0,0.0,0.0,0.0,0.0,0.0,0.0,0.0,0.0,0.0,0.0,0.0,0.0,0.0,0.0,0.0,0.0,0.0,0.0,0.0,0.0,0.0,0.0,0.0,0.0,0.0,0.0,0.0,0.0,0.0,0.0,0.0,2.4906,0.0,0.0,0.0,0.0,0.0,0.0,0.0,0.0,0.0,0.0,0.0,0.0,0.0,0.0,0.0,0.0,0.0,0.0,0.0,0.0,0.0,0.0,0.0,0.0,0.0,0.0,0.0,0.0,0.0,0.0,0.0,0.0,0.0,0.0,0.0,0.0,0.0,0.0,1.4846,1.5447,1.6397,1.7656,1.7164,1.6652,1.6155,0.0,0.0,0.0,0.0,0.0,0.0,0.0,0.0,0.0,0.0,0.0,0.0,0.0,0.0,0.0,0.0,0.0,0.0,0.0,0.0,0.0,0.0,0.0,0.0,0.0,0.0,0.0,0.0,0.0,0.0,0.0,0.0,0.0,0.0,0.0,0.0,0.0,0.0,0.0,0.0,0.0,0.0,0.0,0.0,0.0,0.0,0.0,0.0,0.0,0.0,0.0,0.0,0.0,0.0,0.0,0.0,0.0,0.0,0.0,0.0,0.0,0.0,0.0,0.0,0.0,0.0,0.0,0.0,0.0,0.0,0.0,2.6535,0.0,0.0,0.0,0.0,0.0,0.0,0.0,0.0,0.0,0.0,0.0,0.0,0.0,0.0,0.0,0.0,0.0,0.0,0.0,0.0,0.0,0.0,0.0,1.7068,1.729,1.7578,1.7099,1.6456,0.0,0.0,0.0,0.0,0.0,0.0,0.0,1.5279,1.5801,1.6523,1.7434,1.8743,2.0397,2.0769,2.0226,1.893,1.7694,0.0,0.0,0.0,0.0,0.0,0.0,0.0,0.0,0.0,0.0,0.0,0.0,0.0,0.0,0.0,0.0,0.0,0.0,0.0,0.0,0.0,0.0,0.0,0.0,0.0,0.0,0.0,0.0,0.0,0.0,0.0,0.0,0.0,0.0,0.0,0.0,0.0,0.0,0.0,0.0,0.0,0.0,0.0,0.0,0.0,0.0,0.0,0.0,0.0,0.0,0.0,0.0,0.0,0.0,0.0,0.0,0.0,0.0,0.0,0.0,0.0,0.0,0.0,3.2745,3.3579,3.37,3.4088,3.4705,3.5198,3.2054,3.0435,2.9864,2.8275,0.0,0.0,0.0,0.0,0.0,0.0,0.0,0.0,0.0,0.0,0.0,0.0,0.0,0.0,0.0,0.0,0.0,0.0,0.0,0.0,0.0,1.7476,1.795,1.8313,1.7812,1.7431,1.731,0.0,0.0,0.0,0.0,0.0,1.6017,1.662,1.7106,1.7441,1.9821,2.145,2.2251,2.2818,2.3165,2.319,2.1067,2.0009,1.9691,0.0,0.0,0.0,0.0,0.0,0.0,0.0,0.0,0.0,0.0,0.0,0.0,0.0,0.0,0.0,0.0,0.0,0.0,0.0,0.0,0.0,0.0,0.0,0.0,0.0,0.0,0.0,0.0,0.0,0.0,0.0,0.0,0.0,0.0,0.0,0.0,0.0,0.0,0.0,0.0,0.0,2.0703,2.0182,0.0,0.0,0.0,0.0,0.0,0.0,0.0,0.0,0.0,0.0,0.0,0.0,0.0,3.0749,3.2812,3.3728,3.4558,3.5309,3.6244,3.7063,3.7733,3.7777,3.8089,3.8478,3.8098,0.0,3.3049,3.2389,0.0,0.0,0.0,0.0,0.0,0.0,0.0,0.0,0.0,0.0,0.0,0.0,0.0,0.0,0.0,0.0,0.0,0.0,0.0,0.0,0.0,1.885,1.969,2.0111,2.0424,2.0201,1.9235,1.8902,0.0,0.0,0.0,1.7584,1.6886,1.7999,1.9111,2.0106,2.197,2.3295,2.4065,2.4597,2.5072,2.5464,2.4443,2.3117,2.1563,2.0685,0.0,0.0,0.0,0.0,0.0,0.0,0.0,0.0,0.0,0.0,0.0,0.0,0.0,0.0,0.0,0.0,0.0,0.0,0.0,0.0,0.0,0.0,0.0,0.0,0.0,0.0,0.0,0.0,0.0,0.0,0.0,0.0,0.0,0.0,0.0,0.0,0.0,0.0,0.0,2.1017,2.1449,2.1193,2.1404,2.1275,0.0,0.0,0.0,0.0,0.0,0.0,0.0,0.0,0.0,3.1971,3.2392,3.3361,3.4989,3.6285,3.7129,3.7528,3.8428,3.9053,3.9392,3.9507,3.966,3.985,4.0181,3.9212,3.7306,3.6014,3.4234,3.2201,0.0,0.0,0.0,0.0,2.9955,2.9827,0.0,0.0,0.0,0.0,0.0,0.0,0.0,0.0,0.0,0.0,0.0,0.0,1.9146,2.0521,2.1658,2.2395,2.2897,2.2678,2.1421,2.0981,1.998,1.8313,1.8843,1.8765,1.7975,1.9468,2.1081,2.2681,2.3954,2.4972,2.5831,2.6445,2.6949,2.7338,2.7256,2.5894,2.3604,2.3025,2.1554,1.9463,0.0,0.0,0.0,0.0,0.0,0.0,0.0,0.0,0.0,0.0,0.0,0.0,0.0,0.0,0.0,0.0,0.0,0.0,0.0,0.0,0.0,0.0,0.0,0.0,0.0,0.0,0.0,0.0,0.0,0.0,0.0,0.0,0.0,0.0,0.0,0.0,0.0,2.201,2.2495,2.255,2.324,2.3491,0.0,0.0,0.0,0.0,0.0,0.0,3.0429,3.0699,3.1864,3.4169,3.4806,3.5686,3.6898,3.8143,3.8842,3.9064,3.9801,4.0318,4.0503,4.0662,4.081,4.0929,4.1351,4.1198,4.0584,3.8914,3.7272,3.5766,3.5194,3.4276,3.3347,3.3425,3.3175,3.287,0.0,0.0,0.0,0.0,0.0,0.0,0.0,0.0,0.0,0.0,0.0,1.9593,2.116,2.2278,2.3559,2.5237,2.4567,2.4001,2.393,2.2483,2.1307,2.057,2.0098,1.9725,1.9483,2.1074,2.2655,2.4295,2.5665,2.6742,2.75,2.8403,2.9028,2.9323,2.9069,2.8012,2.6322,2.5084,2.3778,2.2348,1.9682,0.0,0.0,0.0,0.0,0.0,0.0,0.0,0.0,0.0,0.0,0.0,0.0,0.0,0.0,0.0,0.0,0.0,0.0,0.0,0.0,0.0,0.0,0.0,0.0,0.0,0.0,0.0,0.0,0.0,0.0,0.0,0.0,0.0,0.0,0.0,0.0,0.0,0.0,2.4919,2.5692,0.0,0.0,0.0,0.0,2.9775,2.9603,3.0671,3.3509,3.3856,3.4834,3.6754,3.74,3.8166,3.9045,3.913,3.9564,4.031,4.0339,4.0805,4.1629,4.1629,4.1864,4.2304,4.2519,4.2336,4.1861,4.0868,3.9844,3.8855,3.7671,3.6939,3.6383,3.5912,3.5779,3.5958,0.0,0.0,0.0,0.0,0.0,0.0,0.0,0.0,1.6978,1.7672,1.9215,2.0862,2.2488,2.446,2.601,2.7018,2.7333,2.7097,2.6085,2.5167,2.3979,2.2441,2.2078,2.2037,2.2366,2.3618,2.4763,2.5725,2.6838,2.767,2.8351,2.8773,2.9254,2.9698,2.9575,2.9141,2.8375,2.7085,2.5662,2.4078,2.259,2.1037,0.0,0.0,0.0,0.0,0.0,0.0,0.0,0.0,0.0,0.0,0.0,0.0,0.0,0.0,0.0,0.0,0.0,0.0,0.0,0.0,0.0,0.0,0.0,0.0,0.0,0.0,0.0,0.0,0.0,0.0,0.0,0.0,0.0,0.0,0.0,0.0,0.0,2.6629,2.7627,0.0,2.8912,2.9611,3.0498,3.1716,3.2395,3.3531,3.5377,3.6042,3.6856,3.7917,3.8695,3.9268,3.9576,4.0096,4.0504,4.0787,4.1108,4.1389,4.1702,4.1897,4.2051,4.2216,4.2433,4.2489,4.2425,4.2227,4.1618,4.0783,4.0588,4.0151,3.9576,3.9663,3.9456,3.9179,0.0,0.0,0.0,0.0,0.0,0.0,0.0,0.0,1.7652,1.8644,2.0413,2.2305,2.4246,2.6269,2.7853,2.8851,2.9439,2.9243,2.8028,2.729,2.611,2.4374,2.3886,2.4153,2.5133,2.562,2.6396,2.7455,2.7995,2.8635,2.9286,2.9568,2.997,3.042,3.0246,3.0068,2.9807,2.8804,2.7478,2.595,2.498,2.3598,2.1994,0.0,0.0,0.0,0.0,0.0,0.0,0.0,0.0,0.0,0.0,0.0,0.0,0.0,0.0,0.0,0.0,0.0,0.0,0.0,0.0,0.0,0.0,0.0,0.0,0.0,0.0,0.0,0.0,0.0,0.0,0.0,0.0,0.0,0.0,0.0,2.7765,2.8574,2.9783,3.0692,3.1046,3.2064,3.3029,3.3771,3.481,3.5829,3.6741,3.7688,3.8379,3.8797,3.9634,4.0097,4.0097,4.0633,4.0873,4.0873,4.1241,4.1451,4.1577,4.1773,4.1968,4.2092,4.231,4.2474,4.2607,4.289,4.2663,4.2158,4.2334,4.2199,4.1918,4.1955,4.1758,4.1426,0.0,0.0,0.0,0.0,0.0,0.0,0.0,1.7744,1.8707,1.977,2.1675,2.391,2.6436,2.7663,2.8968,3.0735,3.061,3.0202,2.9667,2.8709,2.7562,2.6311,2.5608,2.6021,2.7635,2.7034,2.7579,2.9311,2.9311,2.9714,3.0443,3.0961,3.1322,3.1607,3.1127,3.0817,3.0577,3.0112,2.9233,2.7984,2.6689,2.5805,2.4997,0.0,0.0,0.0,0.0,0.0,0.0,0.0,0.0,0.0,0.0,0.0,0.0,0.0,0.0,0.0,0.0,0.0,0.0,0.0,0.0,0.0,0.0,0.0,0.0,0.0,0.0,0.0,0.0,0.0,0.0,0.0,0.0,0.0,2.7167,2.883,3.0335,3.0722,3.2123,3.3224,3.3602,3.457,3.5377,3.5991,3.6755,3.7401,3.7811,3.8823,3.9437,3.9437,4.0251,4.0688,4.0688,4.0688,4.0688,4.0688,4.0716,4.0972,4.1396,4.1424,4.1676,4.2092,4.231,4.2392,4.2433,4.285,4.2981,4.2961,4.2728,4.291,4.3227,4.2585,4.245,4.2663,0.0,0.0,0.0,0.0,0.0,0.0,0.0,1.7878,1.8854,2.0037,2.2232,2.4488,2.6596,2.8467,2.9947,3.0807,3.1312,3.1156,3.0233,2.9731,2.8928,2.7615,2.8197,2.858,2.8651,2.9176,2.9593,2.9872,3.0034,3.042,3.0961,3.1116,3.1322,3.1556,3.1476,3.1322,3.1086,3.0745,3.0337,2.9806,2.8696,2.7596,2.653,0.0,0.0,0.0,0.0,0.0,0.0,0.0,0.0,0.0,0.0,0.0,0.0,0.0,0.0,0.0,0.0,0.0,0.0,0.0,0.0,0.0,0.0,0.0,0.0,0.0,0.0,0.0,0.0,0.0,0.0,0.0,0.0,3.0265,2.9486,3.0645,3.1847,3.2526,3.3604,3.448,3.4986,3.5835,3.6473,3.6845,3.7497,3.7946,3.8238,3.9243,3.9834,3.9834,4.0389,4.0688,4.0688,4.0688,4.0688,4.0716,4.1338,4.1482,4.1156,4.1909,4.2092,4.1827,4.2063,4.2298,4.2433,4.2688,4.289,4.3021,4.3307,4.3482,4.3568,4.354,4.367,4.386,0.0,0.0,0.0,0.0,0.0,0.0,0.0,1.8214,1.9193,2.0412,2.2485,2.4652,2.6806,2.8466,2.9863,3.0955,3.1296,3.1272,3.0719,3.0417,3.0089,2.963,3.0144,3.0445,3.0546,3.0619,3.0694,3.0708,3.073,3.0961,3.1373,3.1476,3.168,3.1986,3.1986,3.1873,3.1632,3.1237,3.0934,3.0695,2.9875,2.9005,2.81,2.7452,2.6698,2.5883,2.5002,2.4189,2.3506,2.3091,0.0,0.0,0.0,0.0,0.0,0.0,0.0,0.0,0.0,0.0,0.0,0.0,0.0,0.0,0.0,0.0,0.0,0.0,0.0,0.0,0.0,0.0,0.0,0.0,3.1155,3.2341,3.2269,3.292,3.3568,3.4105,3.4958,3.56,3.5943,3.6671,3.7304,3.7564,3.8101,3.8556,3.8732,3.9541,3.9996,3.9996,4.0473,4.0688,4.0688,4.0688,4.0828,4.1081,4.1577,4.182,4.1794,4.2253,4.2323,4.2077,4.2096,4.2175,4.2298,4.2514,4.2688,0.0,0.0,0.0,0.0,0.0,4.4065,4.4181,0.0,0.0,0.0,0.0,0.0,0.0,0.0,1.851,1.9449,2.073,2.2355,2.437,2.6773,2.7859,2.9052,3.0827,3.0817,3.0869,3.1165,3.1017,3.1223,3.1785,3.1687,3.1925,3.2607,3.1672,3.1344,3.1732,3.1476,3.1476,3.1732,3.1964,3.224,3.2493,3.2493,3.2397,3.2143,3.155,3.1217,3.1042,3.0445,2.9963,2.9525,2.8962,2.8474,2.7998,2.7463,2.6585,2.5733,2.5744,0.0,0.0,0.0,0.0,0.0,0.0,0.0,0.0,0.0,0.0,0.0,0.0,0.0,0.0,0.0,0.0,0.0,0.0,0.0,0.0,0.0,0.0,0.0,0.0,3.2979,3.4227,3.4979,3.5151,3.5224,3.5355,3.6104,3.6577,3.6577,3.7263,3.783,3.8138,3.8595,3.8997,3.9292,0.0,0.0,0.0,0.0,4.0716,4.08,4.08,4.1109,4.1727,4.1783,4.2153,4.2826,4.2551,4.2453,4.2552,4.2228,4.2092,4.2133,4.231,4.2514,4.2729,4.313,4.3478,4.3675,4.3871,4.3949,4.3988,0.0,0.0,0.0,0.0,0.0,0.0,0.0,1.81,1.8979,2.0679,2.182,2.3424,2.59,2.7017,2.8142,2.942,3.0134,3.0854,3.1549,3.2265,3.2612,3.2519,3.3119,3.3361,3.3158,3.2932,3.2655,3.2342,3.2291,3.2291,3.2342,3.2392,3.2443,3.2493,3.2493,3.26,3.2664,3.1709,3.1447,3.1547,3.0583,3.017,3.0054,2.9919,2.9832,2.971,2.9535,2.9076,2.8402,2.7536,2.6517,2.5449,2.4869,2.3648,0.0,0.0,0.0,0.0,0.0,0.0,0.0,0.0,0.0,0.0,0.0,0.0,0.0,0.0,0.0,0.0,0.0,0.0,0.0,3.27,3.3772,3.4687,3.5618,3.6008,3.6138,3.5983,3.6709,3.7121,3.6917,3.7468,3.8036,3.8487,3.8567,3.8872,3.9292,3.9733,3.9996,3.9996,4.0473,4.094,4.1418,4.1446,4.1755,4.2402,0.0,0.0,4.266,4.2918,4.2796,4.2324,4.2187,4.2092,4.2133,4.231,4.2514,4.2729,4.313,4.3329,4.3369,4.3409,4.3596,4.3754,0.0,0.0,0.0,0.0,0.0,0.0,0.0,1.8078,1.8674,1.9753,2.088,2.2217,2.3864,2.4962,2.6173,2.7606,2.9352,3.0722,3.14,3.271,3.3545,3.3691,3.4285,3.4414,3.404,3.3817,3.3446,3.3047,3.2896,3.2896,3.3047,3.2969,3.2969,3.3119,3.2969,3.2833,3.2636,3.1883,3.1474,3.1318,3.0537,3.0216,3.0238,3.0343,3.0496,3.0605,3.0672,3.0457,3.0013,2.9484,2.8442,2.7375,2.7176,2.5881,2.4375,0.0,0.0,0.0,0.0,0.0,0.0,0.0,0.0,0.0,0.0,0.0,0.0,0.0,0.0,2.9635,0.0,0.0,3.2636,3.3718,3.4712,3.5612,3.613,3.6724,3.6964,3.6585,3.7179,3.7591,3.7456,3.7717,3.8083,3.8557,3.8602,3.8827,3.9247,3.9672,4.003,4.0438,4.0817,4.1343,4.2093,4.2093,4.2402,4.3048,4.3357,4.3497,4.3543,4.3657,4.3351,4.2767,4.2607,4.2557,4.2598,4.2736,4.2901,4.3037,4.3129,4.317,4.317,4.325,4.3369,4.3518,0.0,0.0,0.0,0.0,0.0,0.0,0.0,1.798,1.8363,1.8849,1.9883,2.0957,2.202,2.292,2.4236,2.6123,2.8584,3.0317,3.1048,3.2827,3.4111,3.47,3.5073,3.5162,3.4872,3.4384,3.404,3.3744,3.3496,3.3496,3.3694,3.3519,3.3592,3.3767,3.3377,3.2978,3.254,3.1917,3.1387,3.0973,3.0445,3.0216,3.0193,3.0371,3.0617,3.0864,3.1063,3.095,3.0711,3.0615,2.9725,2.8683,2.8958,2.7815,2.6251,2.5737,2.5242,0.0,0.0,0.0,0.0,0.0,0.0,0.0,0.0,0.0,3.0481,3.1117,3.124,3.1572,3.2664,3.3261,3.3804,3.4687,3.5707,3.638,3.662,3.721,3.7466,3.7213,3.7658,3.7946,3.79,3.79,3.8083,3.8557,3.8602,3.8827,3.9247,3.9677,4.0216,4.088,4.1268,4.1898,4.2767,4.2767,4.3076,4.3666,4.3666,4.3947,4.4397,4.4209,4.3865,4.3395,4.3242,4.3195,4.3238,4.3364,4.3449,4.3432,4.3171,4.3108,4.3148,4.327,4.329,4.3329,0.0,0.0,0.0,0.0,0.0,0.0,0.0,0.0,1.785,1.8796,1.8944,1.973,2.1727,2.2142,2.3235,2.5553,2.7851,2.9563,3.0622,3.2802,3.4254,3.4675,3.5165,3.534,3.5163,3.4872,3.458,3.4286,3.4113,3.4014,3.4014,3.4014,3.4038,3.3991,3.3278,3.2924,3.276,3.1596,3.1065,3.0973,3.0445,3.0216,3.017,2.9978,3.0059,3.0346,3.0541,3.04,3.011,2.9629,2.9364,2.9164,2.8922,2.846,2.7964,2.7751,0.0,2.6468,2.6606,2.6862,0.0,2.7897,2.8662,2.9469,0.0,0.0,3.2459,3.2789,3.3224,3.3756,3.4407,3.4873,3.5372,3.6004,3.6311,3.6647,3.7113,3.7138,3.7239,3.7743,3.8004,3.8103,3.79,3.79,3.8083,3.8557,3.8602,3.8827,3.9247,4.0059,4.0628,4.0907,4.1685,4.2496,4.3385,4.3385,4.3694,4.4312,4.4312,4.434,4.4397,4.4026,4.3913,4.4097,4.3936,4.3892,4.3892,4.3935,4.3935,4.3848,4.3462,4.3407,4.3596,4.3409,4.329,4.329,0.0,0.0,0.0,0.0,0.0,0.0,0.0,0.0,0.0,1.7878,1.8152,1.8656,1.9471,2.0267,2.1511,2.3326,2.5808,2.7855,2.9343,3.2045,3.3791,3.4288,3.4914,3.5132,3.4895,3.4662,3.4381,3.4146,3.3909,3.3839,3.3791,3.3505,3.341,3.3362,3.2887,3.244,3.1972,3.146,3.1067,3.0766,3.0535,3.037,3.018,3.0103,2.9578,2.897,2.9071,2.9176,0.0,2.8706,2.8615,2.8797,2.9067,2.8839,2.8424,2.8137,2.7904,0.0,2.8369,0.0,0.0,0.0,3.088,3.1721,3.2417,3.3192,3.388,3.4347,3.4736,3.5087,3.5588,3.5803,3.6055,0.0,3.6734,3.699,3.7093,3.7208,3.743,3.7874,3.7828,3.7828,3.79,3.79,3.8037,3.8349,3.8512,3.8871,3.9582,4.0051,4.0877,4.1957,4.2371,4.3046,4.4031,4.4031,4.4144,4.4425,4.4425,4.4425,4.4397,4.4376,4.4402,4.4464,4.4486,4.4501,4.4501,4.4501,4.4501,4.4487,4.4062,4.3805,4.3673,4.3248,4.321,4.329,0.0,0.0,0.0,0.0,0.0,0.0,0.0,0.0,0.0,0.0,1.7565,1.7904,1.8013,1.8973,2.0167,2.158,2.3885,2.609,2.8012,3.0756,3.2769,3.372,3.4469,3.4825,3.4816,3.4545,3.4318,3.4089,3.3814,3.3722,3.3722,3.326,3.3098,3.3074,3.2605,3.2089,3.1598,3.1366,3.0947,3.0503,3.0503,3.0267,2.9973,2.971,2.8899,2.7885,2.7885,2.7972,2.7985,2.7527,2.7445,2.7705,2.8236,2.83,2.8127,2.8025,2.8422,2.9008,2.9502,0.0,0.0,3.1797,3.2501,3.3224,3.3991,3.4365,3.4714,3.5224,3.5426,3.5656,3.6109,3.6266,3.646,3.6673,3.7121,3.7427,3.7246,3.7384,3.7598,3.7854,3.7644,3.7598,3.7854,3.79,3.7965,3.8167,3.844,3.8959,3.975,4.0213,4.115,4.2749,4.2943,4.3482,4.4397,4.4425,4.4425,4.4425,4.4425,4.4425,4.4425,4.4705,4.4772,4.4768,4.4991,4.5125,4.5169,4.5169,4.5169,4.5155,4.4647,4.4336,4.4049,4.336,4.3159,4.329,0.0,0.0,0.0,0.0,0.0,0.0,0.0,0.0,0.0,0.0,0.0,0.0,0.0,1.8808,1.9678,2.1113,2.2591,2.4484,2.6807,2.9005,3.1083,3.3116,3.3814,3.4427,3.5085,3.4816,3.4545,3.4293,3.4089,3.3998,3.3952,3.3722,3.3584,3.356,3.257,3.2103,3.2009,3.1309,3.0702,3.0188,3.0188,2.9883,2.9319,2.8491,2.7878,2.7418,2.7418,2.7018,2.6408,2.5849,2.5784,2.5865,2.5889,2.6424,0.0,2.7643,2.8875,3.0037,3.0101,0.0,3.1484,3.2817,3.3168,3.3487,3.4515,3.4771,3.4853,3.5086,3.5127,3.5287,3.579,3.6247,3.6656,3.7192,3.7618,3.7874,3.7874,3.7644,3.7598,3.7854,3.7644,3.7598,0.0,3.79,3.7965,3.8167,3.844,3.8959,3.975,4.0618,4.1587,4.2777,4.3283,4.3851,4.4397,4.4425,4.4425,4.4425,4.4425,4.4425,4.4425,4.4705,4.4908,4.511,4.5384,4.5611,4.5866,4.5866,4.5866,4.5779,4.5111,4.4982,4.5011,4.3725,4.3289,4.329,0.0,0.0,0.0,0.0,0.0,0.0,0.0,0.0,0.0,0.0,0.0,0.0,0.0,0.0,0.0,0.0,2.1035,2.2751,2.4604,2.7091,2.931,3.1057,3.1928,3.2688,3.327,3.3062,3.2811,3.2558,3.2372,3.2201,3.2073,3.1792,3.1577,3.1471,3.1105,3.0793,3.0466,3.0213,3.0048,2.9815,2.9461,2.9095,2.8688,2.7678,2.6521,2.5385,0.0,2.4474,2.4377,2.4337,2.4451,2.4738,2.5436,2.6049,2.6625,2.7372,2.8674,3.0007,3.0618,0.0,3.2316,3.3139,3.3595,3.3871,3.4246,3.459,3.4797,3.488,3.4684,3.4645,3.5107,3.5563,3.6016,3.6437,3.7292,3.79,3.79,3.7505,3.7413,3.7854,3.7505,0.0,0.0,0.0,0.0,3.8011,3.8239,3.8865,4.0128,4.0602,4.1591,4.3283,4.3504,4.3851,4.4397,4.4425,4.4425,4.4425,4.4425,4.4425,4.4425,4.4705,4.4908,4.511,4.5367,4.564,4.5895,4.5895,4.5895,4.5866,4.5634,4.5156,4.4543,4.4147,4.3632,4.313,0.0,0.0,0.0,0.0,0.0,0.0,0.0,0.0,0.0,0.0,0.0,0.0,0.0,0.0,0.0,0.0,0.0,2.1278,2.2964,2.5021,2.7,2.8874,2.9652,3.0425,3.1138,3.0971,3.0714,3.0278,3.0351,3.0209,2.9813,2.9777,2.9736,2.9731,2.9634,2.9487,2.9367,2.9326,2.9046,2.8688,2.8314,2.79,2.7324,2.6263,2.514,0.0,2.2933,2.2548,2.2586,2.2868,2.3499,2.4279,2.4822,2.5704,2.6695,2.7311,2.8633,3.0019,3.0876,3.173,3.2533,3.3216,3.3683,3.3979,3.4089,3.4382,3.4673,3.4797,3.443,3.4232,3.4692,3.5231,3.5726,3.6062,3.7116,3.79,3.79,3.7505,3.7413,3.7854,3.7505,3.7413,0.0,0.0,0.0,3.79,3.8103,3.8852,4.0328,4.0569,4.1578,4.3444,4.3566,4.3804,4.4256,4.4378,4.4425,4.4425,4.4425,4.4425,4.4425,4.4612,4.4815,4.511,4.5276,4.5549,4.5895,4.5895,4.5895,4.5866,4.5634,4.5112,4.4457,4.399,4.3583,4.3256,0.0,0.0,0.0,0.0,0.0,0.0,0.0,0.0,0.0,0.0,0.0,0.0,0.0,0.0,0.0,0.0,0.0,0.0,2.1864,2.2803,2.4355,2.6654,2.7177,2.7814,2.8721,2.8747,2.8357,2.7582,2.8145,2.8048,2.7313,2.7595,2.7989,2.8362,2.7946,2.811,2.8557,2.8361,2.7681,2.6767,2.6743,2.6227,2.5363,2.4293,2.3635,2.3119,2.2095,2.1378,2.106,2.1477,2.2874,2.4386,2.4147,2.5511,2.7248,2.7495,2.8723,3.0089,3.0902,3.1531,3.2137,3.3106,3.3462,3.3716,3.3943,3.4152,3.4402,3.465,3.4216,3.3938,0.0,0.0,3.5594,3.5887,3.6992,3.7802,3.7802,3.767,3.7603,0.0,0.0,0.0,0.0,0.0,0.0,3.7854,0.0,3.8806,4.028,4.0569,4.1484,4.3232,4.3471,4.3709,4.3974,4.4256,4.4425,4.4425,4.4425,4.4425,4.4425,4.4425,4.463,4.5092,4.5092,4.5413,4.5895,4.5895,4.5895,4.5808,4.514,4.4879,4.4676,4.3456,4.3286,4.3614,0.0,0.0,0.0,0.0,0.0,0.0,0.0,0.0,0.0,0.0,0.0,0.0,0.0,0.0,0.0,0.0,0.0,0.0,2.0043,2.1574,2.3017,2.4366,2.5398,2.6237,2.6854,2.688,2.6495,2.5704,2.5734,2.5401,2.4674,2.4671,2.4835,2.5144,2.4971,2.5126,2.5483,2.5369,2.5129,2.4862,2.4448,2.4164,2.3831,2.2763,2.2065,2.1501,2.0726,2.0681,2.106,2.1477,0.0,0.0,0.0,2.6552,2.7341,2.8488,2.961,3.0613,3.1069,3.1822,3.245,3.2304,3.2567,3.2842,3.2639,3.2901,3.3197,3.3397,3.2761,3.2269,0.0,0.0,0.0,3.3903,3.5626,0.0,3.6722,3.7236,0.0,3.7891,0.0,3.7654,3.7891,3.7552,0.0,0.0,3.7828,3.8629,4.0044,4.0334,4.1247,4.2943,4.3259,4.3594,4.3974,4.4256,4.4425,4.4425,4.4425,4.4425,4.4425,4.4425,4.4537,4.4862,4.5046,4.5321,4.5595,4.585,4.5895,4.5808,4.514,4.4618,4.4167,4.3481,4.3119,4.2965,0.0,0.0,0.0,0.0,0.0,0.0,0.0,0.0,0.0,0.0,0.0,0.0,0.0,0.0,0.0,0.0,0.0,0.0,0.0,2.0032,2.1035,2.2112,2.2804,2.3418,2.3948,2.4031,2.3683,2.2935,2.3117,2.2794,2.2028,2.2177,2.2421,2.2756,2.2552,2.2705,2.3169,2.2985,2.28,0.0,0.0,2.2046,2.1782,2.0887,2.0543,2.0474,1.9662,1.9909,0.0,0.0,0.0,2.4992,2.67,2.7647,2.8275,2.9224,0.0,3.0882,3.1417,3.1956,3.2339,3.1985,3.1997,3.1949,3.1442,3.1448,3.1572,3.1686,3.1286,0.0,0.0,0.0,0.0,0.0,0.0,0.0,3.665,3.7166,3.7721,0.0,3.8097,0.0,3.829,3.7778,3.754,0.0,3.7707,3.8397,3.9902,4.0171,4.0989,4.2652,4.297,4.3403,4.3974,4.4162,4.4256,4.4425,4.4425,4.4425,4.4425,4.4425,4.4565,4.4797,0.0,4.5276,4.5504,4.5776,4.5895,4.5808,4.485,4.4298,4.3906,4.3186,4.2808,4.2729,0.0,0.0,0.0,0.0,0.0,0.0,0.0,0.0,0.0,0.0,0.0,0.0,0.0,0.0,0.0,0.0,0.0,0.0,0.0,0.0,1.9086,2.0086,2.0193,2.0439,2.0952,2.1072,2.0799,2.0136,2.0496,2.0327,1.9637,1.9939,2.0341,2.0811,2.0526,2.0699,2.1232,2.1039,2.0682,2.0232,2.0232,2.0011,1.9661,0.0,1.9233,1.9712,1.8957,1.9363,0.0,0.0,2.5182,2.6101,2.7509,2.8644,2.9503,2.9811,3.04,3.1072,3.1728,3.1937,3.1967,3.1783,3.1481,3.104,3.0165,2.9859,2.9695,2.956,0.0,2.9991,3.0457,3.1755,3.2857,3.3239,0.0,3.5819,3.6616,3.7086,3.7583,3.8213,3.8486,3.8683,3.8732,3.8222,3.7865,3.7961,3.7762,3.8293,3.9833,3.9981,4.0749,4.2457,4.2803,4.3259,4.3926,4.3974,4.4115,4.4425,4.4425,4.4425,4.4425,4.4425,4.4518,4.4751,4.5,0.0,4.5458,4.5776,4.5895,4.5779,4.4589,4.4066,4.3877,4.2894,4.2614,4.2729,0.0,0.0,0.0,0.0,0.0,0.0,0.0,0.0,0.0,0.0,1.7385,1.7591,0.0,0.0,0.0,0.0,0.0,0.0,0.0,0.0,0.0,1.9113,1.9625,1.9997,2.0191,2.0191,1.9938,1.9312,1.8759,1.8389,1.8239,1.7609,1.7856,1.8891,1.8708,1.8907,1.9361,1.9216,1.9019,1.8846,1.8846,1.8819,1.8741,1.8616,0.0,0.0,1.913,0.0,2.1233,2.3333,2.4513,2.5539,2.8091,2.925,2.9852,3.0584,3.0971,3.1288,3.1383,3.1717,3.1826,3.1104,3.0663,3.0024,2.8573,2.8101,0.0,0.0,2.7278,2.7665,2.849,2.9663,0.0,3.1207,0.0,0.0,0.0,0.0,3.6378,0.0,0.0,0.0,0.0,0.0,0.0,0.0,0.0,3.8546,3.9284,3.979,4.0749,4.2457,4.297,4.3355,4.3662,4.3879,4.4115,4.4425,4.4425,4.4425,4.4425,4.4425,4.4425,4.449,4.4908,0.0,4.523,4.5685,4.5895,4.5808,4.5024,4.4414,4.3935,4.3348,4.2955,4.2729,0.0,0.0,0.0,0.0,0.0,0.0,0.0,1.8158,1.817,1.8087,1.802,1.7918,1.7808,1.7975,1.8115,0.0,0.0,0.0,0.0,0.0,0.0,0.0,1.8769,1.9017,1.9114,1.9183,1.8877,0.0,0.0,1.7444,1.7066,0.0,1.6747,1.7578,1.7143,1.7206,1.7655,1.7565,1.7505,1.745,1.7708,1.7838,1.7816,0.0,0.0,0.0,0.0,0.0,0.0,2.1863,2.3081,2.4355,2.7233,2.8912,2.9811,2.9942,3.0561,3.1184,3.1273,3.1236,3.1115,3.0657,2.9796,2.8631,2.7047,0.0,0.0,0.0,2.5224,2.6121,2.7122,0.0,0.0,0.0,0.0,0.0,0.0,0.0,0.0,0.0,0.0,0.0,0.0,0.0,0.0,0.0,0.0,3.8585,3.9579,4.0402,4.1311,4.2262,4.2706,4.3115,4.3614,4.3709,4.4021,4.4425,4.4425,4.4425,4.4425,4.4425,4.4425,4.4425,4.4908,0.0,4.511,4.5685,4.5895,4.5808,4.514,4.4705,4.4429,4.4004,4.3487,4.3066,0.0,0.0,0.0,0.0,0.0,0.0,0.0,1.8515,1.8557,1.8868,1.8839,1.8563,1.7906,1.8065,1.8222,0.0,0.0,0.0,0.0,0.0,0.0,0.0,0.0,0.0,0.0,0.0,0.0,0.0,0.0,0.0,0.0,0.0,0.0,0.0,0.0,1.6064,1.6348,1.6461,1.6481,0.0,0.0,0.0,0.0,0.0,0.0,0.0,0.0,0.0,0.0,0.0,2.1596,2.2899,2.5393,2.751,2.9028,2.875,2.9502,3.049,3.0761,3.0589,3.0334,3.0187,2.9092,2.7518,2.575,2.4671,0.0,0.0,2.3312,2.4548,2.5668,0.0,2.9244,0.0,0.0,0.0,0.0,0.0,0.0,0.0,0.0,0.0,0.0,0.0,0.0,0.0,0.0,0.0,3.9917,4.1034,4.1746,4.2065,4.2387,4.2922,4.3586,4.3662,4.3899,4.4425,4.4425,4.4425,4.4425,4.4425,4.4425,4.4397,4.4862,0.0,0.0,4.5549,4.573,4.5702,4.5225,4.498,4.4777,4.4501,4.4046,4.3575,0.0,0.0,0.0,0.0,0.0,0.0,0.0,1.8954,1.9122,1.8921,1.9549,1.9604,1.8467,1.8249,1.8214,0.0,0.0,0.0,0.0,0.0,0.0,0.0,0.0,0.0,0.0,0.0,0.0,0.0,0.0,0.0,0.0,0.0,0.0,0.0,0.0,0.0,0.0,1.6372,0.0,0.0,0.0,0.0,0.0,0.0,0.0,0.0,0.0,0.0,0.0,0.0,0.0,2.1198,2.246,2.4663,2.6858,2.7254,0.0,0.0,2.9176,2.9593,2.9809,2.9467,2.8681,2.7383,2.5119,0.0,0.0,2.1173,2.143,2.2379,2.3656,2.5169,2.6714,0.0,0.0,3.0525,0.0,0.0,0.0,0.0,0.0,0.0,0.0,0.0,0.0,0.0,0.0,0.0,3.9969,4.0835,4.1547,4.2065,4.2582,4.3115,4.3614,4.3832,4.4115,4.4425,4.4425,4.4425,4.4425,4.4425,4.4425,4.4425,4.4705,0.0,0.0,4.5092,4.5184,4.5201,4.5401,4.5117,4.4642,4.4777,4.4588,4.4248,0.0,0.0,0.0,0.0,0.0,0.0,1.9244,1.9355,1.9531,2.0035,1.986,1.9474,1.8972,1.8425,1.8115,1.8234,0.0,0.0,0.0,0.0,0.0,0.0,0.0,0.0,0.0,0.0,0.0,1.7469,0.0,0.0,0.0,0.0,0.0,0.0,0.0,0.0,0.0,0.0,0.0,0.0,0.0,0.0,0.0,0.0,0.0,0.0,0.0,0.0,0.0,0.0,0.0,0.0,1.9705,2.1134,0.0,0.0,2.6777,2.7856,2.8816,2.8986,2.8915,2.9052,2.8139,2.666,2.4661,0.0,2.2288,2.0603,2.0759,2.1639,2.3001,2.4633,2.6172,2.7446,2.8771,0.0,0.0,0.0,0.0,0.0,0.0,0.0,0.0,0.0,0.0,0.0,0.0,0.0,3.9779,4.0616,4.1298,4.1845,4.2387,4.297,4.3586,4.3879,4.4115,4.4425,4.4425,4.4425,4.4425,4.4425,4.4425,4.4425,4.4705,0.0,0.0,4.5046,4.511,4.511,4.523,4.5223,4.5129,4.5219,4.5038,4.4705,0.0,0.0,0.0,0.0,0.0,1.8922,1.947,1.9353,1.9485,2.0313,1.9797,1.9302,1.9092,1.8573,1.8145,1.7934,1.7946,0.0,0.0,0.0,0.0,0.0,0.0,0.0,0.0,0.0,1.8151,1.7413,1.6968,0.0,0.0,0.0,0.0,0.0,0.0,0.0,0.0,0.0,0.0,0.0,0.0,0.0,0.0,0.0,0.0,0.0,0.0,0.0,0.0,0.0,0.0,0.0,0.0,1.8696,2.0187,0.0,2.52,2.6438,2.7653,2.7823,2.7667,2.7968,2.6931,2.5408,0.0,0.0,2.1229,2.003,2.0038,2.0725,2.2326,2.3755,2.5169,2.6632,2.8149,2.9598,0.0,0.0,0.0,0.0,0.0,0.0,0.0,0.0,0.0,0.0,0.0,0.0,3.9387,4.0134,4.0896,4.1696,4.2289,4.2922,4.3586,4.4021,4.4256,4.4425,4.4472,4.4472,4.4425,4.4425,4.4425,4.4425,4.4612,0.0,0.0,4.4815,4.4908,4.4908,4.5,4.5138,4.5321,4.5458,4.5306,4.5125,0.0,0.0,0.0,0.0,0.0,0.0,1.8976,1.8835,1.8844,1.9257,1.9427,1.9274,1.8661,1.8735,1.8392,1.7382,1.7385,0.0,0.0,0.0,0.0,0.0,0.0,0.0,0.0,0.0,1.8151,1.7413,1.7385,1.6718,1.539,1.539,0.0,0.0,0.0,0.0,0.0,0.0,0.0,0.0,0.0,0.0,0.0,0.0,0.0,0.0,0.0,0.0,0.0,0.0,0.0,0.0,0.0,1.7845,1.8643,2.1346,2.2889,2.4011,2.5135,2.5716,2.5962,2.577,2.4875,2.3754,0.0,0.0,1.9562,1.9281,1.8952,1.9356,2.1331,2.2031,2.3045,2.5277,2.6906,0.0,0.0,0.0,0.0,0.0,0.0,0.0,0.0,0.0,0.0,0.0,0.0,0.0,3.8788,3.9387,4.0338,4.1647,4.2484,4.3115,4.3614,4.4397,4.4658,4.4425,4.4658,4.4658,4.4425,4.4425,4.4425,0.0,0.0,0.0,0.0,4.4425,4.4425,4.4425,4.4705,4.4797,4.489,4.5321,4.5504,4.5595,0.0,0.0,0.0,0.0,0.0,0.0,0.0,1.9059,1.9047,1.9454,1.9184,1.886,1.8634,1.7984,1.7492,1.7327,1.7329,0.0,0.0,0.0,0.0,0.0,0.0,0.0,0.0,1.8411,1.8444,1.8547,1.7581,1.7063,1.6929,1.5712,1.5053,1.4941,0.0,0.0,0.0,0.0,0.0,0.0,0.0,0.0,0.0,0.0,0.0,0.0,0.0,0.0,0.0,0.0,0.0,0.0,0.0,0.0,0.0,1.8868,2.0291,0.0,2.3061,2.3413,2.3461,2.3674,2.3179,2.2339,2.1212,0.0,1.9254,1.8536,1.8301,1.8721,2.0259,2.1358,2.2724,2.4921,2.6857,2.8552,0.0,0.0,0.0,0.0,0.0,0.0,0.0,0.0,0.0,0.0,0.0,0.0,3.8736,3.9206,3.9981,4.1147,4.1918,4.2679,4.3403,4.3974,4.4303,4.4425,4.4518,4.4472,4.4425,4.4425,4.4425,0.0,0.0,0.0,0.0,4.4425,4.4425,4.4425,4.4518,4.4658,4.4844,4.5138,4.5367,4.5595,0.0,0.0,0.0,0.0,0.0,0.0,0.0,1.891,1.8824,1.9047,1.8684,1.8425,1.8383,1.7537,1.6962,1.6885,1.6702,0.0,0.0,0.0,0.0,0.0,0.0,0.0,1.8498,1.8575,1.8781,1.9086,1.8406,1.8052,1.7995,1.669,1.5982,1.5757,1.5056,1.5069,0.0,0.0,0.0,0.0,0.0,0.0,1.7441,0.0,0.0,0.0,0.0,0.0,0.0,0.0,0.0,0.0,0.0,0.0,0.0,0.0,1.8072,1.9206,0.0,2.1549,2.1582,2.1747,2.1284,0.0,0.0,0.0,1.8023,1.7894,1.7849,1.8332,1.9924,2.1039,2.2402,2.4451,2.6491,0.0,0.0,0.0,0.0,0.0,0.0,0.0,0.0,0.0,0.0,0.0,0.0,0.0,3.8736,3.88,3.9294,4.0359,4.1515,4.2484,4.3259,4.3879,4.4209,4.4425,4.4744,4.4856,4.4762,4.4762,4.4762,0.0,0.0,0.0,0.0,4.4425,4.4425,4.4425,4.4425,4.4518,4.4705,4.5,4.523,4.5413,0.0,0.0,0.0,0.0,0.0,0.0,0.0,1.8489,1.8293,1.8222,1.8095,1.8008,1.7988,1.7417,1.6799,1.6245,0.0,0.0,0.0,0.0,0.0,0.0,0.0,0.0,1.8498,1.8946,1.9176,1.9148,1.9625,1.9451,1.8715,1.8248,1.7605,1.684,1.5828,1.5688,1.6299,1.7024,1.7584,1.8008,1.7963,1.7821,0.0,0.0,0.0,0.0,0.0,0.0,0.0,0.0,0.0,0.0,0.0,0.0,0.0,0.0,0.0,0.0,0.0,2.0038,0.0,0.0,0.0,0.0,0.0,0.0,0.0,1.7305,1.7563,1.8187,2.0112,2.0966,2.2025,2.3977,2.592,0.0,0.0,0.0,0.0,0.0,0.0,0.0,0.0,0.0,0.0,0.0,0.0,0.0,3.8687,3.8248,3.8464,3.9519,4.1104,4.2355,4.3156,4.3946,4.4378,4.4434,4.5308,4.5543,4.538,4.538,4.538,0.0,0.0,0.0,0.0,4.4425,4.4425,4.4425,4.4425,4.4425,4.4472,4.4908,4.5092,4.5184,0.0,0.0,0.0,0.0,0.0,0.0,0.0,0.0,0.0,0.0,1.8246,1.8167,1.8008,1.7449,1.6847,0.0,0.0,0.0,0.0,0.0,0.0,0.0,0.0,0.0,1.8352,1.8864,1.9293,1.9625,2.0048,2.0178,1.997,1.9377,1.8563,1.7524,1.6519,1.6259,1.6631,1.7264,1.7765,1.8163,1.8143,1.7963,0.0,0.0,0.0,0.0,1.5992,1.5937,0.0,0.0,0.0,0.0,0.0,0.0,0.0,0.0,1.6396,1.6717,1.7631,0.0,1.7875,1.7897,1.7743,1.7478,0.0,0.0,0.0,0.0,0.0,0.0,0.0,2.0376,2.1848,2.3636,0.0,0.0,0.0,0.0,0.0,0.0,0.0,0.0,0.0,0.0,0.0,0.0,0.0,0.0,3.8123,3.8052,3.829,3.8956,4.0037,4.101,4.1977,4.3203,4.4149,4.4869,4.522,4.5625,4.6055,4.6055,4.5802,0.0,0.0,0.0,4.4425,4.4425,4.4425,4.4425,4.4425,4.4425,4.4472,4.4723,4.4954,4.5155,0.0,0.0,0.0,0.0,0.0,0.0,0.0,0.0,0.0,0.0,0.0,0.0,0.0,0.0,0.0,0.0,0.0,0.0,0.0,0.0,0.0,0.0,0.0,1.8452,1.867,1.9155,1.9812,2.0621,2.1057,2.1394,2.1587,2.0749,1.9881,1.8936,1.7714,1.695,1.6666,1.76,1.8112,1.8234,1.8222,0.0,0.0,0.0,0.0,0.0,1.6273,1.6198,0.0,1.6412,1.6527,1.6675,0.0,0.0,0.0,0.0,1.6479,1.6785,1.7171,1.751,1.7779,1.7775,1.7748,1.7611,1.7082,0.0,0.0,0.0,0.0,0.0,0.0,0.0,0.0,0.0,0.0,0.0,0.0,0.0,0.0,0.0,0.0,0.0,0.0,0.0,0.0,0.0,0.0,0.0,3.761,3.7389,3.7593,3.8367,3.9246,4.0293,4.157,4.2692,4.3849,4.4996,4.5392,4.5965,4.6701,4.6701,4.6364,0.0,0.0,0.0,4.4425,4.4425,4.4425,4.4425,4.4425,4.4425,4.4425,4.4705,4.4908,4.511,0.0,0.0,0.0,0.0,0.0,0.0,0.0,0.0,0.0,0.0,0.0,0.0,0.0,0.0,0.0,0.0,0.0,0.0,0.0,0.0,0.0,0.0,1.8321,1.8589,1.9065,1.9729,2.0566,2.1554,2.2355,2.2823,2.3016,2.2283,2.1337,2.0263,1.883,1.7625,1.6707,1.7871,1.8327,1.8285,1.8242,0.0,0.0,0.0,0.0,0.0,0.0,0.0,0.0,1.6793,1.6803,1.6675,1.6543,0.0,0.0,0.0,0.0,0.0,1.746,1.8293,1.8983,1.8694,1.8616,1.8472,1.7894,0.0,0.0,0.0,0.0,0.0,0.0,0.0,0.0,0.0,0.0,0.0,0.0,0.0,0.0,0.0,0.0,0.0,0.0,0.0,0.0,0.0,0.0,3.6543,3.7045,3.6727,3.6944,3.7906,3.8781,4.0,4.1522,4.2511,4.3725,4.5087,4.5748,4.651,4.7347,4.7347,4.701,4.6392,0.0,0.0,4.4537,4.4453,4.4425,4.4425,4.4425,4.4425,4.4425,4.4658,4.4862,4.5092,0.0,0.0,0.0,0.0,0.0,0.0,0.0,0.0,0.0,0.0,0.0,0.0,0.0,0.0,0.0,0.0,0.0,0.0,0.0,0.0,0.0,1.8699,1.8865,1.8941,1.8919,2.0507,2.1366,2.141,2.3553,2.4096,2.3202,2.4042,2.2819,1.9838,1.87,1.7846,1.7274,1.759,1.7955,1.8285,1.8242,0.0,0.0,0.0,0.0,0.0,0.0,0.0,0.0,1.6989,1.6803,1.6675,1.6543,0.0,0.0,0.0,0.0,0.0,1.8314,1.9745,2.0899,1.9919,1.9663,1.9611,1.9414,0.0,0.0,0.0,0.0,0.0,0.0,0.0,0.0,0.0,0.0,0.0,0.0,0.0,0.0,0.0,0.0,0.0,0.0,0.0,0.0,0.0,0.0,0.0,3.6505,3.6896,3.7331,3.798,3.8999,4.0075,4.1261,4.2895,4.4228,4.5425,4.6262,4.7125,4.7993,4.7993,4.7656,4.7038,0.0,4.5774,4.5108,4.4621,4.4425,4.4425,4.4425,4.4425,4.4425,4.4472,4.4612,4.4936,0.0,0.0,0.0,0.0,0.0,0.0,0.0,0.0,0.0,0.0,0.0,0.0,0.0,0.0,0.0,0.0,0.0,0.0,0.0,0.0,1.8208,1.8793,1.914,1.9559,2.012,2.0955,2.1986,2.3231,2.4365,2.4988,2.5126,2.4367,2.2658,2.0148,1.9119,1.8361,1.7838,1.8019,1.8198,1.8392,0.0,0.0,0.0,0.0,0.0,0.0,0.0,0.0,0.0,0.0,1.6888,1.6782,1.6654,0.0,0.0,0.0,0.0,0.0,1.92,2.073,2.2007,2.1879,2.1549,2.1245,2.1082,2.0381,0.0,0.0,0.0,0.0,0.0,0.0,0.0,0.0,0.0,0.0,0.0,0.0,0.0,0.0,0.0,0.0,0.0,0.0,0.0,0.0,0.0,0.0,3.5941,3.6447,3.7124,3.798,3.9047,4.0281,4.1666,4.3413,4.4693,4.5514,4.6251,4.7141,4.8134,4.8134,4.7797,4.7178,0.0,4.5914,4.522,4.4678,4.4425,4.4425,4.4425,4.4425,4.4397,4.4676,4.4862,4.5046,0.0,0.0,0.0,0.0,0.0,0.0,0.0,0.0,0.0,0.0,0.0,0.0,0.0,0.0,0.0,0.0,0.0,0.0,0.0,1.8008,1.8324,1.9004,1.9336,2.0032,2.1191,2.1596,2.275,2.4734,2.5137,2.5843,2.6664,2.4448,2.2524,2.087,1.9899,1.9176,1.8617,1.8819,1.8815,1.8703,0.0,0.0,0.0,0.0,0.0,0.0,0.0,0.0,0.0,0.0,0.0,0.0,0.0,0.0,0.0,1.7423,1.7958,1.8685,1.989,2.1394,2.2771,2.3421,2.3214,2.2883,2.2768,2.223,2.1753,0.0,0.0,0.0,0.0,0.0,0.0,0.0,0.0,0.0,0.0,0.0,0.0,0.0,0.0,0.0,0.0,0.0,0.0,0.0,0.0,0.0,3.5376,3.6166,3.7064,3.8159,3.9503,4.0901,4.2278,4.4107,4.5235,4.5735,4.6422,4.7202,4.8134,4.8134,4.7881,4.7375,4.6616,4.6026,4.5493,4.4734,4.4425,4.4425,4.4425,4.4312,4.4275,4.4805,4.4978,4.4984,0.0,0.0,0.0,0.0,0.0,0.0,0.0,0.0,0.0,0.0,0.0,0.0,0.0,0.0,0.0,0.0,0.0,0.0,0.0,1.8075,1.8508,1.9691,1.9574,2.0032,2.1191,2.2724,2.3843,2.4534,2.6214,2.6836,2.6512,2.4825,2.3364,2.2115,2.1066,2.0328,1.986,2.0011,1.9789,1.9319,1.9238,0.0,0.0,0.0,0.0,0.0,0.0,0.0,0.0,0.0,0.0,0.0,0.0,0.0,1.751,1.8001,1.8882,1.9759,2.0114,2.1722,2.3423,2.3682,2.3963,2.4175,2.4318,2.3909,2.3584,2.3915,0.0,0.0,0.0,0.0,0.0,0.0,0.0,0.0,0.0,0.0,0.0,0.0,0.0,0.0,0.0,0.0,0.0,0.0,0.0,0.0,3.4858,3.6294,3.7621,3.8697,4.0811,4.2278,4.2918,4.4908,4.6017,4.6349,4.7212,4.7773,4.8134,4.8134,4.8106,4.7993,4.6813,4.6279,4.6139,4.4902,4.4425,4.4425,4.4425,4.4059,4.3684,4.4525,4.4584,4.4383,0.0,0.0,0.0,0.0,0.0,0.0,0.0,0.0,0.0,0.0,0.0,0.0,0.0,0.0,0.0,0.0,0.0,0.0,0.0,1.8135,1.844,1.9162,1.9301,2.008,2.1604,2.2538,2.3836,2.5504,2.6663,2.6974,2.6482,2.5258,2.4069,2.2923,2.1966,2.1199,2.0657,2.0432,2.0217,1.9986,1.9482,1.9113,0.0,0.0,0.0,0.0,0.0,0.0,0.0,0.0,1.7481,1.7644,1.7632,1.7989,1.8528,1.9032,1.9736,2.0512,2.1191,2.2381,2.3577,2.4259,2.4926,2.5481,2.5749,2.5723,2.5768,2.6201,2.5947,0.0,0.0,0.0,0.0,0.0,0.0,0.0,0.0,0.0,0.0,0.0,0.0,0.0,0.0,0.0,0.0,0.0,0.0,0.0,0.0,3.6738,3.8185,3.9336,4.1176,4.2705,4.4037,4.5496,4.6495,4.6956,4.7434,4.7829,4.8134,4.8134,4.7909,4.7516,4.6673,4.6055,4.5633,4.4762,4.42,4.3807,4.3413,4.3223,4.3206,4.3657,4.4126,4.4493,0.0,0.0,0.0,0.0,0.0,0.0,0.0,0.0,0.0,0.0,0.0,0.0,0.0,0.0,0.0,0.0,0.0,0.0,1.8262,1.8222,1.8398,1.8765,1.9128,2.0037,2.1557,2.201,2.3405,2.5752,2.6489,2.6587,2.6062,2.5307,2.4448,2.3525,2.2793,2.2273,2.188,2.1606,2.1305,2.0906,2.0419,1.9845,0.0,0.0,0.0,0.0,0.0,0.0,0.0,0.0,1.7761,1.814,1.8212,1.877,1.951,2.0163,2.074,2.1365,2.2118,2.2979,2.3871,2.4837,2.5731,2.6561,2.7272,2.7356,2.7409,2.7988,2.7579,2.7277,0.0,0.0,0.0,0.0,0.0,0.0,0.0,0.0,0.0,0.0,0.0,0.0,0.0,0.0,0.0,0.0,0.0,0.0,0.0,3.7089,3.8617,4.0102,4.1805,4.3368,4.4859,4.6059,4.6901,4.7288,4.7647,4.7931,4.8134,4.8134,4.7797,4.7178,4.656,4.5914,4.522,4.4453,4.3796,4.3296,4.2874,4.2697,4.2776,4.3239,4.3644,4.4079,0.0,0.0,0.0,0.0,0.0,0.0,0.0,0.0,0.0,0.0,0.0,0.0,0.0,0.0,0.0,0.0,0.0,0.0,1.8341,1.8234,1.8398,1.8765,1.9101,1.9777,2.0875,2.1301,2.2635,2.4992,2.5752,2.5787,2.5176,2.4916,2.4469,2.3877,2.3631,2.3566,2.3642,2.3824,2.3252,2.2222,2.2222,2.103,1.9321,0.0,0.0,0.0,0.0,0.0,0.0,0.0,1.8102,1.8687,1.9234,1.976,2.0399,2.1249,2.1895,2.2418,2.279,2.3547,2.4434,2.5397,0.0,0.0,2.8955,2.8722,2.8366,2.8966,2.8896,2.87,2.87,0.0,0.0,0.0,0.0,0.0,0.0,0.0,0.0,0.0,0.0,0.0,0.0,0.0,0.0,0.0,0.0,0.0,0.0,3.7267,3.8943,4.092,4.2909,4.4325,4.5173,4.6599,4.7288,4.7288,4.7829,4.8134,4.8134,4.8134,4.7797,4.7178,4.656,4.5914,4.5164,4.3975,4.324,4.2871,4.2871,4.2634,4.2396,4.3242,4.3229,4.2897,0.0,0.0,0.0,0.0,0.0,0.0,0.0,0.0,0.0,0.0,0.0,0.0,0.0,0.0,0.0,0.0,0.0,0.0,1.8755,1.8323,1.8057,1.8051,1.8446,1.9167,2.0241,2.1485,2.2872,2.436,2.4996,2.527,2.5176,2.4916,2.4525,2.4068,2.4309,2.4161,2.3772,2.4053,2.4006,2.3607,2.2795,2.2136,2.1488,0.0,0.0,0.0,0.0,0.0,0.0,0.0,0.0,0.0,1.8812,2.0065,2.1422,2.1589,2.2568,2.3649,2.3795,2.4703,0.0,2.6674,0.0,0.0,0.0,2.9822,0.0,0.0,2.9558,2.9427,2.9295,0.0,0.0,0.0,0.0,0.0,0.0,0.0,0.0,0.0,0.0,0.0,0.0,0.0,0.0,0.0,0.0,0.0,0.0,3.8125,3.9947,4.1491,4.3463,4.4886,4.5765,4.6791,4.7288,4.7288,4.7829,4.8134,4.8134,4.8134,4.7544,4.656,4.6364,4.5436,4.3947,4.2862,4.2461,4.2437,4.1981,4.1867,4.1935,4.215,4.2507,4.3052,0.0,0.0,0.0,0.0,0.0,0.0,0.0,0.0,0.0,0.0,2.0938,2.1288,0.0,0.0,0.0,0.0,0.0,0.0,1.8925,1.8344,1.7895,1.7611,1.8116,1.8883,1.9906,2.1302,2.2374,2.3052,2.389,2.4446,2.4771,2.4664,2.4491,2.4309,2.4723,2.4748,2.4496,2.4783,2.485,2.4668,2.4046,2.3367,2.2608,0.0,0.0,0.0,0.0,0.0,0.0,0.0,0.0,0.0,1.8924,2.0344,2.1896,2.2342,2.3297,2.436,2.476,2.5686,0.0,2.7644,2.8183,2.8885,3.0518,0.0,0.0,0.0,0.0,0.0,0.0,0.0,0.0,0.0,0.0,0.0,0.0,0.0,0.0,0.0,0.0,0.0,0.0,0.0,0.0,0.0,0.0,0.0,0.0,3.8987,4.0744,4.2448,4.3937,4.5179,4.6192,4.6925,4.7288,4.7288,4.7829,4.8044,4.7919,4.7819,4.7284,4.6369,4.5731,4.4535,4.298,4.2391,4.2081,4.2038,4.1665,4.1689,4.1856,4.1856,4.2254,4.2886,0.0,0.0,0.0,0.0,0.0,0.0,0.0,0.0,0.0,0.0,2.0702,2.1046,0.0,0.0,0.0,0.0,0.0,0.0,0.0,1.8406,1.7882,1.7529,1.81,1.8843,1.9708,2.0858,2.1485,2.159,2.2688,2.3469,2.4018,2.4192,2.4392,2.4591,2.4877,2.5188,2.5494,2.5798,2.5758,2.5535,2.5629,2.4704,2.3184,2.2483,0.0,0.0,0.0,0.0,0.0,0.0,0.0,0.0,1.9212,2.0539,2.1957,2.3157,2.3936,2.4643,2.5637,2.6499,0.0,2.84,2.9104,0.0,3.0671,0.0,0.0,0.0,0.0,0.0,0.0,0.0,0.0,0.0,0.0,0.0,0.0,0.0,0.0,0.0,0.0,0.0,0.0,0.0,0.0,0.0,0.0,0.0,0.0,3.9828,4.1491,4.3516,4.4359,4.5364,4.6482,4.7029,4.7288,4.7288,4.788,4.7947,4.7603,4.7355,4.6933,4.6356,4.4761,4.3367,4.231,4.2253,4.2051,4.1744,4.1744,4.1897,4.2092,4.2092,4.2257,4.2567,0.0,0.0,0.0,0.0,0.0,0.0,0.0,0.0,0.0,0.0,0.0,0.0,0.0,0.0,0.0,0.0,0.0,0.0,0.0,1.8956,1.8281,1.7529,1.8319,1.8891,1.9107,2.0255,2.1302,2.2218,2.2871,2.3289,2.342,2.4037,2.4308,2.4392,2.4793,2.5103,2.53,2.5825,2.6201,2.6425,2.6285,2.5788,2.5039,2.3429,2.2325,0.0,0.0,0.0,0.0,0.0,0.0,0.0,1.7989,1.9897,2.2086,2.2477,2.3641,2.4957,2.5832,2.7018,0.0,0.0,3.0458,3.1638,3.1466,0.0,0.0,0.0,0.0,0.0,0.0,0.0,0.0,0.0,0.0,0.0,0.0,0.0,0.0,0.0,0.0,0.0,0.0,0.0,0.0,0.0,0.0,0.0,3.9652,4.0671,4.2087,4.4045,4.4944,4.5741,4.6482,4.7029,4.7288,0.0,4.8055,4.8148,4.7603,4.7553,4.6773,4.5331,4.3494,4.2653,4.251,4.2021,4.1888,4.198,4.198,4.2051,4.2092,4.2092,4.2257,4.2567,0.0,0.0,0.0,0.0,0.0,0.0,0.0,0.0,0.0,0.0,0.0,0.0,0.0,0.0,0.0,0.0,0.0,0.0,0.0,0.0,1.8395,1.7556,1.8407,1.8898,1.8898,2.0309,2.138,2.1982,2.2996,2.3641,2.3927,2.4305,2.4681,2.5004,2.5154,2.5337,2.554,2.58,2.615,2.652,2.6722,2.6385,2.562,2.4167,2.3009,2.1823,1.9093,0.0,0.0,0.0,0.0,0.0,0.0,0.0,2.137,2.2057,2.3225,2.461,2.5871,0.0,0.0,3.0013,0.0,3.2599,3.2027,0.0,0.0,0.0,0.0,0.0,0.0,0.0,0.0,0.0,0.0,0.0,0.0,0.0,0.0,0.0,0.0,0.0,0.0,0.0,0.0,0.0,0.0,3.8995,4.0236,4.1234,4.2605,4.444,4.5236,4.5875,4.6482,4.7029,4.7288,4.7288,4.7797,4.7673,4.7033,4.6719,4.5813,4.4301,4.3142,4.2522,4.236,4.2042,4.198,4.2092,4.2092,4.2092,4.2092,4.2216,4.2351,4.2673,0.0,0.0,0.0,0.0,0.0,0.0,0.0,0.0,0.0,0.0,0.0,0.0,0.0,0.0,0.0,0.0,0.0,0.0,0.0,0.0,0.0,1.7515,1.8429,1.8921,1.8898,2.0648,2.1564,2.1668,2.3166,2.4318,2.5066,2.489,2.5138,2.5735,2.5546,2.5661,2.5961,2.5935,2.6105,2.6454,2.7094,2.6758,2.5824,2.4875,2.3701,2.2288,1.9681,1.8516,1.7976,1.689,0.0,0.0,0.0,0.0,2.0594,2.1776,2.28,2.3923,2.5756,0.0,2.8961,3.1025,3.224,0.0,0.0,0.0,0.0,0.0,0.0,0.0,0.0,0.0,0.0,0.0,0.0,0.0,0.0,0.0,0.0,0.0,0.0,0.0,0.0,0.0,0.0,0.0,0.0,3.9651,4.0722,4.1772,4.3098,4.4836,4.5342,4.5875,4.6482,4.7029,4.7288,4.7288,4.7425,4.707,4.6206,4.5578,4.4656,4.3618,4.3081,4.2557,4.2092,4.2092,4.2092,4.2092,4.2092,4.2133,4.2175,4.2351,4.2555,4.2858,0.0,0.0,0.0,0.0,0.0,0.0,0.0,0.0,0.0,0.0,2.0725,0.0,0.0,0.0,0.0,0.0,0.0,0.0,0.0,0.0,0.0,1.7438,1.8473,1.9012,1.8898,2.0723,2.1878,2.227,2.3644,2.5109,2.6593,2.5653,2.5312,2.5547,2.5657,2.5911,2.6279,2.6655,2.6827,2.6889,2.76,2.7412,2.6637,2.5711,2.4595,2.3224,2.1027,1.9403,1.8207,1.7243,1.7146,0.0,0.0,0.0,2.0805,2.1638,2.2281,2.32,0.0,0.0,2.9555,0.0,3.2215,0.0,0.0,0.0,0.0,0.0,0.0,0.0,0.0,0.0,0.0,0.0,0.0,0.0,0.0,0.0,0.0,0.0,0.0,0.0,0.0,0.0,0.0,0.0,3.9672,4.0788,4.1926,4.2567,4.3695,4.5395,4.5555,4.5875,4.6482,4.7029,4.7288,4.7288,4.7123,4.6604,4.559,4.4631,4.411,4.3878,4.2731,4.2179,4.2092,4.2092,4.2092,4.2092,4.2092,4.2216,4.2351,4.2392,4.2648,4.3059,0.0,0.0,0.0,0.0,0.0,0.0,0.0,0.0,0.0,0.0,0.0,2.0899,0.0,0.0,0.0,0.0,0.0,0.0,0.0,0.0,0.0,1.8477,1.9246,1.9675,1.9628,2.098,2.1983,2.2509,2.4082,2.5531,2.6918,2.69,2.7198,2.7756,2.7382,2.7177,2.7152,2.7185,2.7127,2.6995,2.7655,2.7486,2.6797,2.6277,2.519,2.367,2.2078,2.064,1.9384,1.8466,1.8275,1.8353,1.8085,0.0,0.0,0.0,2.1366,2.2508,2.519,2.7652,2.9718,0.0,3.17,0.0,0.0,0.0,0.0,0.0,0.0,0.0,0.0,0.0,0.0,0.0,0.0,0.0,0.0,0.0,0.0,0.0,0.0,0.0,0.0,0.0,0.0,0.0,4.0205,4.1301,4.2592,4.3061,4.3932,4.5315,4.5502,4.5822,4.6245,4.6769,4.6956,4.6718,4.6894,4.6289,4.5001,4.4327,4.3862,4.3568,4.254,4.2175,4.2257,4.2133,4.2092,4.2092,4.2092,4.2216,4.2392,4.2555,4.2769,4.308,0.0,0.0,0.0,0.0,0.0,0.0,0.0,0.0,0.0,0.0,0.0,0.0,0.0,0.0,0.0,0.0,0.0,0.0,0.0,0.0,0.0,1.9243,1.9847,2.019,2.019,2.1262,2.2062,2.2589,2.4275,2.573,2.6943,2.7748,2.8732,2.9702,2.8799,2.8317,2.817,2.7987,2.7744,2.7554,2.8165,2.7939,2.7267,2.71,2.6135,2.4714,2.3722,2.2394,2.0931,2.0168,1.9691,1.9321,1.8967,1.9291,0.0,0.0,0.0,0.0,0.0,0.0,2.8866,2.9349,0.0,0.0,0.0,0.0,0.0,0.0,0.0,0.0,0.0,0.0,0.0,0.0,0.0,0.0,0.0,0.0,0.0,0.0,0.0,0.0,0.0,0.0,0.0,0.0,4.0662,4.166,4.2897,4.3297,4.3908,4.4942,4.5156,4.5422,4.5792,4.6447,4.6542,4.6077,4.6375,4.5745,4.4205,4.3907,4.3497,4.3023,4.2378,4.2175,4.231,4.2175,4.2092,4.2092,4.2175,4.231,4.2514,4.2688,4.293,4.313,0.0,0.0,0.0,0.0,0.0,0.0,0.0,0.0,0.0,0.0,0.0,0.0,2.1641,2.1191,2.0924,2.0997,2.0997,0.0,0.0,0.0,0.0,1.9129,1.9824,0.0,2.019,2.1437,2.227,2.2589,2.4096,2.5536,2.6943,2.7855,2.9045,3.0304,2.9175,2.8876,2.9231,2.932,2.9151,2.8832,2.9471,2.9247,2.8589,2.8397,2.7827,2.706,2.6548,2.4867,2.2798,2.2233,2.1234,2.0118,1.9407,1.9585,2.0167,0.0,0.0,0.0,0.0,2.5034,0.0,0.0,0.0,0.0,0.0,0.0,0.0,0.0,0.0,0.0,0.0,0.0,0.0,0.0,0.0,0.0,0.0,0.0,0.0,0.0,0.0,0.0,0.0,0.0,0.0,0.0,4.1243,4.2146,4.2923,4.3272,4.37,4.4336,4.4388,4.4651,4.5225,4.6024,4.62,4.5832,4.5421,4.4493,4.3281,4.3127,4.2827,4.245,4.2175,4.2092,4.2092,4.2092,4.2092,4.2133,4.231,4.2514,4.2688,4.29,4.313,4.329,0.0,0.0,0.0,0.0,0.0,0.0,0.0,0.0,0.0,0.0,0.0,0.0,0.0,2.2194,2.1954,2.1607,2.1234,0.0,0.0,0.0,0.0,2.0454,2.0761,2.0968,2.0968,2.1323,2.1733,2.2167,2.3522,2.4906,2.6399,2.7597,2.8997,3.0381,2.997,2.9796,2.9823,2.9859,2.9626,2.931,2.9663,2.959,2.9334,2.9851,2.9268,0.0,0.0,0.0,0.0,0.0,2.3396,2.199,2.0941,2.0808,2.1003,2.0763,2.1204,0.0,0.0,0.0,0.0,0.0,0.0,0.0,0.0,0.0,0.0,0.0,0.0,0.0,0.0,0.0,0.0,0.0,0.0,0.0,0.0,0.0,0.0,0.0,0.0,0.0,0.0,0.0,0.0,0.0,0.0,4.2923,4.3813,4.3747,4.3806,4.4018,4.3887,4.4067,4.4633,4.5395,4.5542,4.4955,4.5072,4.4407,4.318,4.3069,4.2686,4.2216,4.2133,4.2175,4.2269,4.2133,4.2092,4.2133,4.231,4.2514,4.2729,4.293,4.313,4.329,0.0,0.0,0.0,0.0,0.0,0.0,0.0,0.0,0.0,2.2243,0.0,0.0,0.0,0.0,2.2884,2.2234,2.1614,2.1242,2.1144,2.1242,2.1347,2.1486,2.1372,2.1526,2.1982,2.148,2.1519,2.2192,2.3005,2.4072,2.5371,2.6858,2.8303,2.9634,3.0019,3.0387,3.0675,3.0675,3.0644,3.0582,3.0553,3.0584,3.0586,3.0939,0.0,0.0,0.0,0.0,0.0,0.0,0.0,0.0,2.2352,2.1737,2.145,2.0898,2.0812,0.0,2.1982,0.0,0.0,0.0,0.0,0.0,0.0,0.0,0.0,0.0,0.0,0.0,0.0,0.0,0.0,0.0,0.0,0.0,0.0,0.0,0.0,0.0,0.0,0.0,0.0,0.0,0.0,0.0,0.0,0.0,4.4287,4.3856,4.3493,4.3363,4.3307,4.3613,4.4157,4.4725,4.4869,4.4505,4.4303,4.3873,4.318,4.2753,4.2386,4.2092,4.2092,4.2175,4.2269,4.2257,4.2175,4.2133,4.2474,4.2648,4.2729,4.301,4.321,4.329,0.0,0.0,0.0,0.0,0.0,0.0,0.0,0.0,2.257,2.3403,0.0,0.0,0.0,0.0,0.0,2.282,2.2208,2.1729,2.1464,2.144,2.1661,2.2103,0.0,0.0,2.3148,2.1938,2.176,2.2804,2.2697,2.3029,2.3832,2.5593,2.6989,2.8135,2.93,3.0551,3.1797,3.1797,3.2137,3.2686,3.2265,3.2246,3.233,0.0,0.0,0.0,3.2437,3.1439,0.0,2.903,0.0,0.0,0.0,2.2302,2.136,2.102,2.073,0.0,0.0,0.0,0.0,0.0,0.0,0.0,0.0,0.0,0.0,0.0,0.0,0.0,0.0,0.0,0.0,0.0,0.0,0.0,0.0,0.0,0.0,0.0,0.0,0.0,0.0,0.0,0.0,0.0,4.2881,4.3717,4.4287,4.3491,4.2762,4.2211,4.2719,4.3211,4.377,4.404,4.4261,4.4449,4.3138,4.2766,4.318,4.2151,4.1856,4.2092,4.2092,4.2092,4.2133,4.231,4.2269,4.2175,4.2769,4.289,4.2769,4.313,4.329,4.329,0.0,0.0,0.0,0.0,0.0,0.0,2.1925,2.271,2.3449,0.0,0.0,0.0,2.5323,2.4967,2.4476,2.3902,2.3427,2.3121,2.2944,2.2918,2.2896,2.2905,2.2743,2.2824,2.3201,2.272,2.259,2.2804,2.2957,2.3311,2.3832,2.5441,2.6657,2.76,2.9119,3.0551,3.1797,3.1797,3.2137,3.2672,3.2594,3.2659,0.0,0.0,0.0,0.0,0.0,3.3175,3.1818,0.0,2.9779,2.7964,0.0,0.0,2.1848,2.1228,2.0558,0.0,2.0382,0.0,0.0,0.0,0.0,0.0,0.0,0.0,0.0,0.0,0.0,0.0,0.0,0.0,0.0,0.0,0.0,0.0,0.0,0.0,0.0,0.0,0.0,0.0,0.0,0.0,0.0,0.0,4.3016,4.3799,4.4533,4.3597,4.2579,4.1585,4.2084,4.2412,4.2545,4.3199,4.3581,4.365,4.2851,4.2587,4.2665,4.1853,4.1577,4.1785,4.1785,4.2022,4.231,4.2392,4.2351,4.2351,4.2809,4.2941,4.297,4.321,4.329,4.3349,0.0,0.0,0.0,0.0,0.0,2.1883,2.2667,2.3411,2.4082,0.0,0.0,0.0,2.662,2.5727,2.4996,2.4778,2.4141,2.3644,2.3463,2.3411,2.3389,2.3501,2.3231,2.3339,2.3852,2.3286,2.3098,2.3258,2.3358,2.3535,2.3788,2.5423,2.6576,2.7328,2.8952,3.0529,3.1939,3.2019,3.2593,0.0,3.3169,0.0,0.0,3.3528,3.3821,0.0,0.0,0.0,3.3212,3.2925,3.1278,0.0,0.0,0.0,0.0,0.0,0.0,0.0,0.0,0.0,0.0,0.0,0.0,0.0,2.4117,2.5686,0.0,0.0,0.0,0.0,0.0,0.0,0.0,0.0,0.0,0.0,0.0,0.0,0.0,0.0,0.0,0.0,0.0,4.0438,4.175,4.2216,4.2865,4.3334,4.365,4.3023,4.2265,4.135,4.1845,4.2065,4.2065,4.2776,4.3163,4.3307,4.2445,4.2199,4.2486,4.1509,4.1325,4.1702,4.1702,4.1951,4.2392,4.2514,4.2555,4.2596,4.297,4.3061,4.305,4.3549,4.3708,4.3798,0.0,0.0,1.9861,2.0412,2.1344,2.2376,2.3338,2.3886,2.4602,0.0,2.659,2.7319,2.7821,2.6459,2.5543,2.5658,2.4748,2.4084,2.3821,2.3688,2.3744,2.412,2.3608,2.377,2.4793,2.377,2.3447,2.4012,2.3873,2.379,2.3817,2.5522,2.6614,2.7248,2.8879,3.055,3.2093,3.2358,0.0,3.4512,3.4016,3.4147,0.0,0.0,3.4244,3.5352,3.5505,3.5075,3.4448,3.442,3.2158,0.0,0.0,0.0,0.0,0.0,2.1436,0.0,0.0,0.0,0.0,0.0,0.0,0.0,2.3715,2.463,2.5412,0.0,0.0,0.0,0.0,0.0,0.0,0.0,0.0,0.0,0.0,0.0,0.0,0.0,0.0,0.0,3.8968,4.0637,4.18,4.193,4.2657,4.2865,4.2315,4.2262,4.2,4.1424,4.1895,4.2141,4.2141,4.2631,4.2991,4.315,4.1953,4.1718,4.2284,4.1178,4.1029,4.1619,4.166,4.1951,4.2433,4.2607,4.2729,4.2769,4.313,4.324,4.3239,4.3997,4.4377,4.4526,0.0,0.0,1.9975,2.0902,2.2203,2.3316,2.3948,2.4937,2.5803,2.6368,2.7287,2.7864,2.7738,2.7525,2.7332,2.7189,2.6781,2.6457,2.6311,2.6282,2.6031,2.5532,2.5397,2.5234,2.499,2.4634,2.4524,2.4603,2.449,2.4405,2.4431,2.5708,2.6614,2.7312,2.931,3.0919,3.2119,3.28,0.0,3.5435,3.5418,0.0,3.6171,3.6209,3.6481,3.6832,3.6614,3.6255,3.5737,3.4755,3.2854,3.0576,0.0,0.0,0.0,0.0,0.0,0.0,0.0,0.0,0.0,0.0,0.0,0.0,2.3136,2.4229,2.5294,0.0,0.0,0.0,0.0,0.0,0.0,0.0,0.0,0.0,0.0,0.0,0.0,0.0,0.0,0.0,3.9949,4.079,4.1713,4.2666,4.3326,4.3406,4.2873,4.2847,4.2555,4.1944,4.2239,4.2413,4.2413,4.2728,4.2704,4.2263,4.1641,4.1315,4.1179,4.0705,4.0716,4.117,4.1367,4.1814,4.2433,4.2607,4.2809,4.2941,4.321,4.3618,4.4056,4.4216,4.4646,4.5214,0.0,1.9789,2.0488,2.1408,2.2559,2.3751,2.4797,2.5754,2.6605,2.7175,2.7908,2.8386,2.8413,2.8291,2.8146,2.8085,2.7845,2.7511,2.7089,2.7089,2.685,2.6256,2.602,2.5809,2.5595,2.5295,2.5131,2.5131,2.5075,2.499,2.4932,2.6094,2.6954,2.7534,2.9581,3.1098,3.2146,0.0,3.4221,3.5442,3.5683,0.0,3.7065,3.7365,3.7565,3.7738,3.7714,3.7354,3.6697,3.5213,3.367,0.0,0.0,2.8218,2.629,0.0,2.3448,2.2431,0.0,0.0,0.0,2.14,0.0,0.0,0.0,2.3208,2.4107,0.0,0.0,0.0,0.0,0.0,0.0,0.0,0.0,0.0,0.0,0.0,0.0,0.0,0.0,0.0,3.9408,4.0207,4.116,4.2039,4.2385,4.2545,4.2545,4.2545,4.2385,4.2092,4.2338,4.2511,4.2511,4.2457,4.2304,4.2005,4.1194,4.0822,4.088,4.0431,4.0473,4.1001,4.1283,4.1689,4.2228,4.2566,4.2809,4.305,4.3608,4.4018,4.4407,4.5065,4.5514,4.5903,1.9739,0.0,2.0935,2.1848,2.288,2.4026,2.5486,2.6378,2.7155,2.7975,2.8633,2.9192,2.9578,2.9417,2.9256,2.9258,2.9053,2.8585,2.7762,2.7759,2.76,2.7197,2.668,2.6421,2.6514,2.5992,2.5689,2.555,2.555,2.5439,2.5299,2.6448,2.737,2.8139,2.9969,3.1463,3.2672,0.0,0.0,3.5486,0.0,3.6787,3.7614,3.7918,3.8247,3.8484,3.8591,3.8175,3.7335,3.5762,0.0,3.3055,3.1102,2.9327,0.0,0.0,0.0,0.0,0.0,0.0,0.0,0.0,0.0,2.2198,0.0,0.0,0.0,2.195,0.0,0.0,0.0,0.0,0.0,0.0,0.0,0.0,0.0,0.0,0.0,0.0,0.0,0.0,0.0,3.9413,4.0294,4.0823,4.1063,4.1384,4.1865,4.2106,4.2239,4.2239,4.2435,4.2506,4.2372,4.2154,4.1896,4.1652,4.0694,4.0449,4.0714,4.026,4.0386,4.0958,4.1269,4.1606,4.1993,4.2444,4.2858,4.3288,4.4026,4.4377,4.4646,4.5831,4.6369,4.6591,2.0219,2.0297,0.0,2.2139,2.3314,2.4476,2.5555,2.6519,2.7487,2.8451,2.9756,3.0749,3.1171,3.1655,3.1853,3.1545,0.0,0.0,3.0013,0.0,2.9794,2.9367,2.856,2.7975,2.765,2.6974,2.633,2.5688,2.5688,2.5605,2.5494,2.6534,2.7896,2.9525,3.0815,3.2523,3.4421,0.0,3.5723,0.0,3.7398,3.7822,0.0,3.8444,3.8945,3.938,3.8792,3.831,3.7714,0.0,3.4814,3.3512,0.0,3.0473,2.9064,0.0,0.0,0.0,0.0,0.0,0.0,0.0,2.2864,0.0,0.0,0.0,2.1631,2.1406,0.0,0.0,0.0,0.0,0.0,0.0,0.0,0.0,0.0,0.0,0.0,0.0,0.0,0.0,0.0,3.8627,3.9446,3.95,4.0502,4.1152,4.1206,4.2208,4.2776,4.2776,4.2852,4.2581,4.2066,4.2032,4.1462,4.0404,4.0495,4.0392,4.0106,4.0296,4.0501,4.0773,4.1227,4.1564,4.1785,4.2269,4.3001,4.3901,4.4206,4.4676,4.5274,4.601,4.6681,4.7219,2.0934,2.1342,0.0,2.2684,2.3804,2.4866,2.5601,2.6898,2.8143,2.8967,2.9814,3.0579,3.1241,0.0,0.0,0.0,0.0,3.2576,0.0,0.0,3.1047,3.0596,2.9495,0.0,2.8953,2.7712,2.6918,2.6497,2.6131,2.5993,2.6161,2.6789,2.8173,3.01,3.1449,0.0,3.4855,0.0,3.6646,0.0,0.0,0.0,0.0,3.9172,3.9459,3.9786,4.0033,3.9192,3.7967,0.0,3.6307,0.0,0.0,0.0,0.0,0.0,0.0,0.0,0.0,0.0,0.0,0.0,0.0,0.0,0.0,0.0,2.1608,0.0,0.0,0.0,0.0,0.0,0.0,0.0,0.0,0.0,0.0,0.0,0.0,0.0,0.0,0.0,0.0,0.0,0.0,0.0,3.8667,3.9861,4.054,4.1707,4.2548,4.2873,4.2548,4.2249,4.2005,4.13,4.0703,4.0187,4.0131,4.0052,3.9996,4.0284,4.0501,4.0688,4.1029,4.1283,4.1564,4.2022,4.2825,4.3856,4.4489,4.518,4.5963,4.6651,4.707,4.7309,2.1732,0.0,0.0,0.0,2.4214,2.5332,2.6276,2.7787,2.9067,2.9742,3.0589,0.0,3.2115,3.3005,0.0,0.0,3.4294,3.4101,0.0,0.0,3.2691,0.0,0.0,0.0,0.0,0.0,2.7968,2.7712,2.7057,2.6834,2.6974,2.7384,2.8632,3.0514,3.17,3.3225,3.5003,0.0,3.7155,3.7682,3.9113,3.9848,4.0175,4.0262,4.0297,4.0386,4.1148,4.0241,3.8658,3.8942,3.7609,0.0,3.4992,0.0,0.0,0.0,0.0,0.0,2.7176,0.0,0.0,0.0,0.0,0.0,0.0,0.0,0.0,0.0,0.0,0.0,0.0,0.0,0.0,0.0,0.0,0.0,0.0,0.0,0.0,0.0,0.0,0.0,0.0,0.0,0.0,0.0,0.0,3.8043,3.8912,4.073,4.1951,4.2385,4.2141,4.1924,4.1761,4.0703,4.0106,3.9943,3.9758,3.9804,3.9996,4.0284,4.0501,4.0688,4.0916,4.1156,4.1438,4.1987,4.284,4.3973,4.5039,4.5964,4.6804,4.7146,4.7429,4.7549,2.2559,2.2463,0.0,0.0,0.0,0.0,0.0,0.0,0.0,0.0,0.0,0.0,0.0,0.0,0.0,0.0,0.0,3.6222,3.5372,0.0,3.5007,0.0,0.0,3.3227,0.0,0.0,0.0,2.9318,2.8713,2.8254,2.7967,2.8412,2.9453,3.0917,3.1523,3.3091,3.5236,3.5917,3.7075,3.8532,3.9365,4.0354,4.13,0.0,4.1742,4.1322,4.1895,0.0,0.0,3.8843,3.8369,0.0,0.0,0.0,0.0,0.0,0.0,0.0,0.0,0.0,0.0,2.7042,0.0,0.0,0.0,0.0,2.244,0.0,0.0,0.0,0.0,0.0,1.8354,1.7654,0.0,0.0,0.0,0.0,0.0,0.0,0.0,0.0,0.0,0.0,0.0,0.0,0.0,0.0,3.5845,3.921,4.1164,4.1191,4.1707,4.1734,4.1137,4.0513,3.9888,3.9319,3.9567,3.9804,3.9996,4.0284,4.0501,4.0688,4.0916,4.1156,4.1495,4.2308,4.3327,4.4424,4.5932,4.7111,4.7807,4.7431,4.7698,4.8177,0.0,0.0,0.0,0.0,0.0,0.0,0.0,2.9723,0.0,0.0,0.0,0.0,0.0,3.6136,3.6726,0.0,0.0,3.7425,3.7066,3.6755,0.0,0.0,0.0,3.4149,0.0,0.0,0.0,0.0,2.9229,2.8796,2.8619,2.8667,2.9613,3.126,3.199,3.3542,0.0,0.0,0.0,0.0,0.0,4.2164,4.2944,0.0,0.0,4.1974,4.2504,4.1932,0.0,4.0815,3.9726,3.8342,3.7935,3.6797,3.5447,3.4283,3.3291,0.0,0.0,0.0,2.9201,2.8917,0.0,0.0,0.0,0.0,0.0,0.0,0.0,0.0,0.0,0.0,2.0346,1.8459,1.8541,1.8539,0.0,0.0,0.0,0.0,0.0,0.0,0.0,0.0,0.0,0.0,3.1487,0.0,3.5019,3.7756,3.9699,4.0485,4.0703,4.0703,4.0513,3.9916,3.9509,3.9292,3.9567,3.9744,3.9804,4.0023,4.0284,4.0529,4.0587,4.0816,4.1185,4.2095,4.3113,4.4239,4.5947,4.7407,4.8491,4.8089,4.8087,4.8177,2.573,0.0,0.0,0.0,0.0,0.0,0.0,0.0,0.0,0.0,3.376,0.0,3.6148,0.0,3.7415,0.0,3.8191,3.8314,3.8326,3.8174,0.0,3.7693,3.6576,0.0,0.0,0.0,0.0,0.0,0.0,2.9795,2.9553,2.9325,2.9935,3.1267,0.0,3.3423,3.5279,0.0,3.8375,0.0,0.0,4.3463,0.0,0.0,4.2814,4.2577,0.0,4.2678,4.187,4.195,4.0974,3.9644,3.9373,3.8433,3.7208,3.6198,3.5441,3.4841,3.4083,3.2833,0.0,3.1282,2.9843,0.0,2.7352,0.0,0.0,0.0,0.0,0.0,0.0,0.0,2.1458,1.9147,1.897,1.8706,0.0,1.7824,0.0,0.0,0.0,0.0,0.0,0.0,0.0,0.0,2.894,3.1308,0.0,0.0,3.7865,3.8884,3.9301,3.951,3.9726,3.9042,3.8853,3.9158,3.9363,3.9496,3.97,3.9848,4.0023,4.0241,4.0356,4.0699,4.1311,4.2281,4.3401,4.4719,4.6445,4.7981,4.9083,4.8507,4.8147,4.7878,0.0,0.0,0.0,0.0,2.8133,0.0,0.0,0.0,3.2779,0.0,3.5196,3.673,3.7588,3.8362,3.8995,3.9332,3.9142,3.9095,3.9322,3.931,0.0,0.0,3.858,3.8199,3.8553,0.0,0.0,0.0,0.0,0.0,3.0828,3.0361,3.0386,3.093,3.1711,0.0,3.4402,3.5634,3.7712,4.0363,4.3115,4.4061,4.3885,4.446,4.4016,4.3101,4.3646,4.348,4.2965,4.2301,4.2059,4.1707,3.997,3.9578,3.9552,3.8346,3.7717,3.7287,3.6678,3.5626,3.4519,3.3965,0.0,0.0,0.0,0.0,2.8864,0.0,0.0,0.0,0.0,0.0,0.0,1.9756,1.9427,1.9015,1.7914,0.0,0.0,0.0,0.0,0.0,0.0,0.0,0.0,2.4108,2.652,2.8585,0.0,0.0,3.5683,3.6455,3.7477,3.8263,3.8854,3.8096,3.8096,3.8908,3.8908,3.9158,3.97,3.97,3.9804,3.9996,4.0296,4.0892,4.1715,4.2849,4.4203,4.5693,4.7474,4.8723,4.9385,4.8596,4.7908,4.7309,2.7479,2.8096,2.8478,0.0,2.9324,3.0275,0.0,0.0,0.0,0.0,3.5987,3.723,3.8684,3.9222,3.9734,4.0451,4.0617,0.0,0.0,0.0,0.0,4.0584,4.0017,3.911,3.7855,3.6956,0.0,3.4604,0.0,0.0,3.1452,3.0732,3.0583,3.093,0.0,0.0,3.4585,3.5723,3.7807,4.0568,4.2344,4.3099,0.0,0.0,4.3912,4.3756,4.4308,4.4092,4.3581,4.3382,4.2738,4.1924,4.1462,4.0978,4.0415,3.9497,3.9197,3.8977,3.8198,3.6884,3.5647,3.5328,3.3871,3.2312,0.0,0.0,0.0,0.0,0.0,0.0,0.0,0.0,0.0,0.0,2.0311,0.0,0.0,0.0,0.0,1.8192,0.0,0.0,0.0,0.0,2.2293,2.3452,2.5077,2.7018,0.0,0.0,0.0,3.5009,3.6153,3.7128,3.7971,3.7794,3.8096,3.8908,3.8908,3.9069,3.9407,3.9407,3.9628,4.0023,4.0537,4.1079,4.1743,4.3332,4.4469,4.5465,4.7427,4.8551,4.9083,4.9044,4.8297,4.7309,2.8696,0.0,0.0,2.9616,0.0,0.0,3.1482,3.2861,0.0,3.5679,3.6806,0.0,3.9336,3.9844,4.033,4.1035,4.1222,0.0,4.1544,0.0,0.0,4.126,4.082,4.0103,3.9222,3.8149,0.0,3.6463,0.0,0.0,3.2788,3.1504,3.1048,3.1344,0.0,3.3512,0.0,3.6687,3.8679,4.0619,4.2135,0.0,0.0,4.4042,4.4359,4.4519,4.4944,4.4517,4.377,4.3787,4.3145,4.2358,4.2229,4.1772,4.1166,4.0559,4.03,4.0041,3.927,3.8415,3.7569,3.6889,3.5731,3.4528,3.3441,3.2863,3.2305,0.0,0.0,0.0,0.0,0.0,0.0,0.0,0.0,0.0,0.0,0.0,0.0,0.0,0.0,0.0,0.0,0.0,2.1223,2.2182,2.3522,0.0,0.0,0.0,0.0,3.3575,3.4781,3.5702,3.6422,3.6601,3.6953,3.7621,3.8157,3.8532,3.8912,3.9299,3.9628,3.992,4.0703,4.1385,4.2004,4.3544,4.491,4.625,4.8366,4.9103,4.8921,4.9209,4.8446,4.7309,0.0,0.0,0.0,0.0,0.0,0.0,0.0,3.3307,0.0,3.6193,0.0,3.8809,3.9712,4.0316,4.0829,4.1393,0.0,4.1501,4.1501,4.1746,4.1881,4.1805,4.1414,4.1206,4.1172,3.9376,0.0,0.0,0.0,0.0,3.4237,3.2324,3.1623,0.0,0.0,0.0,0.0,3.8031,3.9726,4.0593,4.2364,4.3405,4.3938,4.4513,4.491,4.5234,4.5502,4.4889,4.3928,4.3945,4.3547,4.2997,4.2637,4.2268,4.192,4.1619,4.1215,4.0688,4.0182,3.9901,3.9507,3.8412,3.7664,3.6989,3.6409,3.5506,3.4497,3.3543,3.2749,3.1756,0.0,0.0,0.0,0.0,0.0,0.0,0.0,0.0,0.0,0.0,0.0,0.0,0.0,0.0,0.0,2.0908,0.0,0.0,0.0,0.0,0.0,3.225,3.3487,3.4299,3.4756,0.0,3.542,3.5965,3.7057,3.7836,3.8407,3.9223,3.9683,3.9908,4.093,4.1764,4.244,4.3783,4.5487,4.7453,4.9637,4.9846,4.8921,4.9209,4.8446,4.7309,0.0,0.0,0.0,0.0,0.0,3.3328,3.4796,3.5726,3.6711,3.7833,3.8431,3.9183,4.0494,4.0912,4.1435,4.219,4.2518,0.0,0.0,0.0,0.0,4.2413,4.2588,4.2084,4.0948,4.1221,4.0529,0.0,0.0,0.0,3.4659,3.2652,0.0,0.0,0.0,0.0,3.5807,3.8652,0.0,4.0378,4.2526,4.3619,4.3938,4.4513,4.491,4.5234,4.5502,4.5314,4.4853,4.4644,4.4298,4.3895,4.3314,4.3042,4.2842,4.2777,4.2122,4.1418,4.1306,4.0547,3.9732,3.9507,3.8702,3.7833,3.725,3.6694,3.5951,3.4747,3.399,3.3139,3.1785,0.0,0.0,0.0,0.0,0.0,0.0,0.0,0.0,0.0,0.0,0.0,0.0,0.0,0.0,0.0,0.0,0.0,0.0,0.0,0.0,0.0,3.2759,0.0,0.0,0.0,3.4916,3.5659,3.6614,3.7417,3.8189,3.9003,3.9769,4.0466,4.1387,4.2223,4.3036,4.439,4.6137,4.8162,4.9857,4.9846,4.8921,4.9209,4.8446,4.7219,0.0,0.0,0.0,0.0,0.0,0.0,0.0,3.7501,3.8407,3.8933,3.9354,3.9937,4.0699,4.1352,4.1928,4.2457,4.2793,4.2986,4.2986,4.2986,4.2916,4.2831,4.291,0.0,4.1981,4.192,4.1511,4.0717,0.0,0.0,3.6524,3.481,0.0,0.0,0.0,3.5552,0.0,0.0,0.0,4.1542,4.2968,4.3854,4.4356,4.4779,4.5126,4.5448,4.5715,4.5713,4.5469,4.4888,4.4461,4.4108,4.3595,4.3274,4.3129,4.3268,4.2508,4.1615,4.1615,4.094,4.0224,3.9998,3.9587,3.896,3.8154,3.7663,3.7023,3.6004,3.5174,3.4277,3.2877,3.0942,0.0,0.0,0.0,0.0,0.0,0.0,0.0,0.0,0.0,0.0,0.0,0.0,0.0,0.0,0.0,0.0,0.0,0.0,0.0,0.0,0.0,0.0,0.0,0.0,0.0,3.5194,3.6204,3.7207,3.8145,3.8932,3.9778,4.0676,4.1479,4.2316,4.3259,4.5316,4.6951,4.8319,4.9904,4.994,4.9148,4.9254,4.8446,4.7219,0.0,3.2715,0.0,0.0,3.5007,0.0,3.7439,3.8823,3.9777,3.9777,4.0138,4.054,4.0862,4.1614,4.2199,4.2425,4.2762,4.2986,4.2986,4.2986,4.2986,4.2986,4.311,4.3156,4.3028,4.2501,4.2266,0.0,0.0,0.0,0.0,3.6852,0.0,0.0,0.0,0.0,0.0,0.0,4.1464,4.284,4.3462,4.4115,4.4722,4.5072,4.5395,4.5662,4.5901,4.6007,4.5845,4.5081,4.4552,4.4223,4.3808,4.3515,4.3371,4.3602,4.2907,4.198,4.1868,4.1362,4.0787,4.0378,4.0207,3.9991,3.9236,3.8601,3.7958,3.7184,3.6165,3.4975,3.3677,3.2277,0.0,0.0,0.0,0.0,0.0,0.0,0.0,0.0,0.0,0.0,0.0,0.0,0.0,0.0,0.0,0.0,0.0,0.0,0.0,0.0,0.0,3.2214,3.2619,0.0,3.3826,3.4741,3.5811,3.69,3.797,3.8782,3.9699,4.0659,4.1325,4.2325,4.3622,4.6121,4.7594,4.8458,4.997,5.005,4.9299,4.9299,4.8446,4.7189,0.0,0.0,0.0,0.0,0.0,0.0,3.8801,3.9778,4.0331,4.0331,4.0355,4.0571,4.1109,4.172,4.211,4.2167,4.265,4.2986,4.2986,4.2986,4.2986,4.2986,4.3492,4.3566,4.3028,4.3676,4.3306,0.0,0.0,0.0,0.0,0.0,0.0,0.0,0.0,0.0,0.0,4.1796,4.2814,4.3075,4.4146,4.4615,4.4722,4.5072,4.5395,4.5662,4.5901,4.6007,4.5926,4.5281,4.4816,4.4525,4.4174,4.4008,4.3984,4.4219,4.3835,4.3188,4.2626,4.2008,4.1405,4.1043,4.0616,4.0396,4.0555,3.9805,3.889,3.8223,3.6635,3.5154,3.4288,3.3136,3.2037,0.0,0.0,0.0,0.0,0.0,0.0,0.0,0.0,0.0,0.0,0.0,0.0,0.0,0.0,0.0,0.0,0.0,0.0,3.0048,0.0,3.2006,3.242,3.2472,3.3164,3.4439,3.5279,3.6303,3.751,3.8291,3.9398,4.0722,4.1055,4.2482,4.4797,4.6622,4.7846,4.8689,5.0223,5.016,4.9299,4.9299,4.8446,4.713,0.0,0.0,0.0,0.0,0.0,0.0,0.0,4.0353,4.086,4.086,4.086,4.0956,4.1172,4.1769,4.211,4.211,4.265,4.2986,4.2986,4.2986,4.2986,4.2986,4.3543,4.3797,4.3566,4.3908,4.3809,0.0,0.0,0.0,0.0,0.0,0.0,0.0,0.0,4.072,4.1716,4.2631,4.3415,4.4095,4.4539,4.4668,4.4722,4.5234,4.5502,4.5662,4.6139,4.6192,4.5927,4.5527,4.5281,4.4966,4.414,4.4166,4.4494,4.4227,4.3836,4.3441,4.3188,4.2491,4.182,4.1781,4.1495,4.113,4.103,4.0659,4.006,3.9015,3.7593,3.6199,3.512,3.4321,3.3456,0.0,0.0,0.0,0.0,0.0,0.0,0.0,0.0,0.0,0.0,0.0,0.0,0.0,0.0,0.0,0.0,0.0,0.0,2.9526,0.0,3.1552,3.238,3.2757,3.3747,3.5443,3.6105,3.7034,3.8148,3.845,3.947,4.0997,4.2098,4.3172,4.4218,4.5893,4.72,4.8231,4.9085,4.9383,4.9269,4.888,4.7848,4.6591,3.6522,0.0,3.7845,0.0,3.8918,3.9626,4.0263,4.0817,4.123,4.1287,4.1344,4.1344,4.1344,4.2005,4.247,4.247,4.2956,4.3212,4.3212,4.3062,4.2986,4.2986,4.3695,0.0,4.413,4.432,4.4411,4.4414,4.3414,0.0,0.0,0.0,0.0,0.0,4.1217,4.2108,4.3284,4.3441,4.3937,4.4668,4.4613,4.4613,4.4722,4.5154,4.5448,4.5662,4.6192,4.6192,4.5954,4.5742,4.5685,4.5432,4.4242,4.4272,4.4684,4.4168,4.3883,4.3722,4.3554,4.3031,4.2461,4.2338,4.2166,4.1901,4.15,4.125,4.0728,3.945,3.8356,3.7317,3.6247,3.5546,3.4776,3.3689,0.0,0.0,0.0,0.0,0.0,0.0,0.0,2.8154,2.6657,0.0,0.0,0.0,0.0,0.0,0.0,0.0,0.0,0.0,0.0,0.0,0.0,3.2832,3.4111,3.5948,3.6734,3.764,3.8602,3.9039,3.9838,4.1071,4.2854,4.3662,4.3859,4.5543,4.6713,4.7556,4.8345,4.8727,4.8835,4.8446,4.7459,4.619,3.7258,3.7826,3.8657,3.9774,3.9983,4.0287,4.1043,4.1172,4.1287,4.1549,4.1606,4.1606,4.1606,4.2692,4.3358,4.3358,4.3619,4.379,4.379,4.3288,4.2986,0.0,0.0,4.4668,4.4668,4.5252,4.5323,4.4722,0.0,0.0,4.249,0.0,4.2627,4.2997,4.3572,4.3833,4.3885,4.446,4.4668,4.4668,4.4422,4.4476,4.4668,4.4722,4.5046,4.5662,4.5901,4.6007,4.6007,4.6007,4.6007,4.5792,4.4557,4.433,4.4443,4.4121,4.4162,4.4256,4.3666,4.3652,4.3539,4.2537,4.251,4.2593,4.2196,4.157,4.0728,3.945,3.8818,3.8325,3.7718,3.6797,3.5971,3.5284,0.0,0.0,0.0,0.0,0.0,0.0,3.1901,3.1279,2.8882,0.0,0.0,0.0,0.0,0.0,0.0,0.0,0.0,2.9187,3.0002,0.0,3.1214,3.2382,3.3871,3.5611,3.6841,3.782,3.8629,4.0006,4.0683,4.081,4.2759,4.3757,4.4124,4.5824,4.661,4.6945,4.8322,4.8476,4.7956,4.8208,4.7459,4.619,3.8277,3.9036,3.98,4.0392,4.0645,4.0865,4.1148,4.1344,4.1492,4.1606,4.2348,4.2823,4.2823,4.3144,4.3532,0.0,4.4194,4.4367,0.0,4.4192,4.4091,4.4091,4.4897,4.5226,4.4999,4.5567,4.5633,4.5283,0.0,0.0,0.0,4.3206,4.3258,4.3075,4.4016,4.446,4.446,4.4643,4.4559,4.4422,4.4313,4.4258,4.4203,4.4559,4.4964,4.5395,4.5848,4.6139,4.6297,4.6086,4.6139,4.6162,4.5171,4.4881,4.4831,4.4443,4.426,4.4134,4.4125,4.3991,4.3766,4.3621,4.3113,4.2637,4.2718,4.1889,4.1029,4.0752,3.9896,3.9007,3.851,3.7902,3.7307,3.6654,3.6301,0.0,0.0,0.0,0.0,0.0,3.2049,3.1453,0.0,2.9833,0.0,0.0,0.0,0.0,0.0,0.0,0.0,0.0,3.0188,0.0,3.1384,3.3135,3.4528,3.5611,3.7387,3.8629,3.9444,4.0499,4.128,4.1922,4.3066,4.3757,4.4096,4.5107,4.5959,4.6657,4.6943,4.7346,4.7673,4.7451,4.6556,4.5394,3.9049,3.9755,4.0339,4.0826,4.1057,4.1172,4.1172,4.1435,4.1663,4.1777,4.2749,4.3514,4.3829,4.4028,0.0,4.4652,4.4828,4.4945,4.4945,4.4744,4.4676,4.4792,4.5482,4.5815,4.5584,4.6103,0.0,4.5873,4.5047,4.4292,4.3534,4.3879,4.3909,4.3702,4.4354,4.4668,4.4668,4.4668,4.4585,4.4313,4.4203,4.4064,4.3955,4.4258,4.4639,4.5072,4.5635,4.6034,4.6297,4.6245,4.6297,4.6401,4.5813,4.5291,4.4884,4.46,4.4255,4.4068,4.4303,4.4301,4.4163,4.4207,4.3772,4.3272,4.3066,4.2291,4.1558,4.1456,4.0911,4.0262,3.9764,3.9469,3.905,3.8156,3.7823,3.7391,3.646,0.0,0.0,0.0,0.0,0.0,0.0,3.1245,3.1194,0.0,0.0,0.0,0.0,0.0,0.0,3.0616,3.1269,0.0,3.2111,3.3998,3.5257,3.588,3.7882,3.9303,4.0123,4.0884,4.1715,4.2598,4.3507,4.4021,4.4209,4.4954,4.5551,4.6005,4.6146,4.6503,4.6961,4.6904,4.61,4.5013,3.9661,4.0048,4.0479,0.0,4.1172,4.1172,4.1172,4.1459,4.172,4.2054,4.2888,4.3779,4.451,4.5171,4.5547,4.5547,0.0,0.0,0.0,4.5045,4.486,4.5208,4.6006,4.6462,4.6462,4.6779,4.6753,4.6353,4.5303,4.4853,4.5029,4.4568,4.4448,4.4613,4.4613,4.4613,4.4613,4.4613,4.4476,4.4203,4.3955,4.3844,4.3844,4.3899,4.4203,4.4722,4.5395,4.5742,4.606,4.6403,4.6482,4.6482,4.6482,4.5695,4.4738,4.4606,4.4311,4.4021,4.4303,4.4612,4.4702,4.435,4.4448,4.4325,4.324,4.2723,4.2275,4.1642,4.1784,4.1852,4.1296,4.13,4.1003,3.9738,3.9529,3.902,3.7734,0.0,0.0,0.0,0.0,0.0,0.0,3.3071,3.283,0.0,0.0,0.0,0.0,0.0,3.1793,3.2562,3.2957,3.3185,3.3211,3.4948,3.606,3.6572,3.8461,3.9823,4.0703,4.1279,4.2021,4.2981,4.3985,4.4425,4.449,4.523,4.5367,4.5155,4.5882,4.6046,4.5956,4.6624,4.6057,4.4971,0.0,0.0,4.0711,4.1139,4.1172,4.1172,4.1172,4.1631,4.2029,4.211,4.3382,4.4377,4.456,4.5522,4.6125,4.6125,4.6125,4.6125,4.6125,4.5974,4.6043,4.64,4.6772,4.7026,4.7026,4.7085,4.6644,4.5708,4.5664,4.5221,4.4495,4.4591,4.4421,4.4119,4.4119,4.4119,4.4119,4.4119,4.3929,4.3628,4.3517,4.3406,4.3265,4.3734,4.4094,4.4531,4.5341,4.5742,4.606,4.6403,4.6482,4.6482,4.6482,4.5967,4.5363,4.5238,4.447,4.3804,4.4256,4.4472,4.4555,4.4801,4.4854,4.4516,4.3282,4.3044,4.2919,4.2478,4.2347,4.2273,4.2124,4.1828,4.1453,4.1003,4.0487,3.9888,3.905,3.8256,0.0,0.0,3.6547,3.6222,3.5722,3.516,3.4629,0.0,0.0,0.0,0.0,3.4039,3.3698,3.3227,3.3571,3.4008,3.4468,3.5927,3.7494,3.9145,3.9628,4.0415,4.1507,4.1645,4.2537,4.406,4.4294,4.4583,4.4954,4.5367,4.5367,4.5155,4.573,4.5821,4.564,4.618,4.558,4.4507,3.993,4.0246,4.0653,4.1115,4.1172,4.1172,4.1172,4.1712,4.211,4.211,4.3539,4.4618,4.4618,4.5648,4.6301,4.6301,4.6301,4.6301,4.6301,4.6301,4.6481,4.6934,4.7087,4.7265,4.7442,4.7265,4.6781,4.5874,4.5775,4.5464,4.5005,4.4693,4.4454,4.4258,4.4028,4.3899,4.3899,4.3899,4.3708,4.3381,4.3381,4.3088,4.272,4.3271,4.3598,4.387,4.4811,4.5475,4.5928,4.635,4.6482,4.6482,4.6482,4.6075,4.5635,4.5839,4.4946,4.4069,4.434,4.4425,4.449,4.4972,4.5014,4.4749,4.418,4.3972,4.3889,4.3785,4.3598,4.3358,4.3279,4.2926,4.2461,4.197,4.1572,4.1055,4.0397,3.9666,0.0,3.8698,3.8228,3.7718,3.7239,3.6347,3.5652,3.5232,3.4477,0.0,3.5339,3.5386,3.5207,3.4799,3.4986,3.5374,3.5976,3.7277,3.8668,3.9996,4.0272,4.0952,4.2001,4.2415,4.3286,4.4583,4.4815,4.5046,4.5321,4.5549,4.5458,4.511,4.5549,4.5504,4.523,4.5821,4.523,4.4165,4.02,4.0293,4.0479,4.1057,4.1172,4.1172,4.1172,4.1712,4.211,4.211,4.3539,4.4618,4.4618,4.5648,4.6301,4.6301,4.6301,4.6301,4.6301,4.6301,4.6541,4.7087,4.7205,4.7324,4.7645,4.7324,4.6874,4.6301,4.5849,4.5691,4.58,4.482,4.4402,4.4551,4.3964,4.3789,4.3789,4.3789,4.3598,4.3351,4.3351,4.2856,4.2267,4.2758,4.2974,4.311,4.4283,4.5023,4.5715,4.6297,4.6482,4.6482,4.6482,4.613,4.5799,4.6228,4.5525,4.4602,4.4564,4.4528,4.4583,4.4972,4.5072,4.5112,4.5288,4.4993,4.4794,4.4959,4.4855,4.468,4.4507,4.4088,4.3606,4.2839,4.244,4.2081,4.1632,0.0,4.0427,4.0546,3.9801,3.8994,3.8243,3.7184,3.636,3.5926,3.5252,3.524,3.6099,3.6202,3.6347,3.6635,3.6662,3.6927,3.7688,3.8754,3.9612,4.0221,4.0747,4.1491,4.2412,4.3216,4.4037,4.489,4.5321,4.5504,4.5504,4.573,4.5504,4.5092,4.5321,4.5184,4.489,4.5533,4.4964,4.3907,4.0856,4.0728,4.0711,4.1115,4.1172,4.1172,4.1172,4.1712,4.211,4.211,4.3539,4.4618,4.4618,4.5648,4.6301,4.6301,4.6301,4.6301,4.6301,4.6301,4.6481,4.6866,4.7112,4.7205,4.7265,4.7019,4.6661,4.6301,4.6225,4.5949,4.5531,4.4878,4.4299,4.3904,4.3406,4.3154,4.3154,4.3154,4.3098,4.3073,4.3073,4.269,4.2213,4.254,4.2812,4.311,4.4018,4.4864,4.5715,4.6297,4.6482,4.6482,4.6482,4.6428,4.629,4.6055,4.5651,4.5238,4.516,4.5072,4.5018,4.5064,4.5417,4.5665,4.5376,4.5375,4.5355,4.5048,4.5256,4.5372,4.5196,4.4749,4.4349,4.4058,4.2611,4.1722,4.2171,0.0,4.0606,4.1175,4.0636,4.0033,3.9542,3.8377,3.7418,3.6835,3.6527,3.637,3.6354,3.6672,3.7119,3.7658,3.7686,3.8246,3.9396,4.0125,4.0727,4.1343,4.1427,4.2144,4.3311,4.3596,4.422,4.5092,4.5367,4.5504,4.5504,4.5549,4.5276,4.489,4.5092,4.5,4.4844,4.5138,4.4563,4.3675,4.1154,4.1234,4.1389,4.1744,4.1681,4.1605,4.1605,4.1882,4.2209,4.2504,4.3738,4.4744,4.5045,4.5824,4.6301,4.6301,4.6301,4.6301,4.6301,4.6301,4.6446,4.6806,4.69,4.6993,4.6993,4.684,4.6626,4.6301,4.6506,4.6415,4.6162,4.5279,4.4724,4.4446,4.3476,4.3073,4.3184,4.3073,4.3073,4.3184,4.3073,4.2459,4.1706,4.203,4.2299,4.2674,4.3336,4.4441,4.5662,4.5928,4.6245,4.6482,4.6297,4.635,4.6506,4.6648,4.5912,4.5073,4.4844,4.4856,4.4954,4.5092,4.5413,4.5689,4.5756,4.5962,4.6122,4.6057,4.6082,4.6094,4.5885,4.547,4.495,4.4417,4.3539,0.0,0.0,4.2186,4.1879,4.209,4.1335,4.0634,4.0215,3.8819,3.7784,3.7506,3.6994,3.675,3.6864,3.7264,3.7597,3.7878,3.8552,3.9198,3.976,4.0407,4.0997,4.1615,4.198,4.2688,4.368,4.4265,4.4807,4.5321,4.5595,4.573,4.5685,4.5549,4.5276,4.4954,4.4954,4.4769,4.4658,4.5,4.4383,4.3428,4.1422,4.1565,4.1798,4.222,4.2186,4.2099,4.2158,4.2287,4.2512,4.3044,4.4028,4.4878,4.5447,4.5974,4.6301,4.6301,4.6301,4.6301,4.6301,4.6301,4.6421,4.6686,4.6686,4.6746,4.6806,4.6746,4.6626,4.6446,4.6686,4.6789,4.6696,4.5679,4.5145,4.4935,4.3751,4.3295,4.3517,4.3184,4.3184,4.3406,4.3129,4.2384,4.153,4.172,4.2042,4.2468,4.2944,4.4177,4.5502,4.5609,4.5928,4.6245,4.5981,4.6139,4.6455,4.6873,4.605,4.4976,4.4696,4.4696,4.4844,4.5046,4.5321,4.564,4.609,4.6358,4.658,4.68,4.6731,4.6616,4.6446,4.6077,4.5511,4.4687,0.0,0.0,0.0,4.2862,4.2693,4.2493,4.1636,4.0829,4.0295,3.8913,3.804,3.7976,3.7318,3.7092,3.7565,3.7772,3.8046,3.8327,3.9283,3.9845,3.9985,4.0463,4.1081,4.184,4.2345,4.3099,4.4061,4.4772,4.5276,4.5504,4.5776,4.585,4.5776,4.5595,4.5367,4.5064,4.4908,4.4723,4.4583,4.5,4.4383,4.3428,4.1885,4.1637,4.1532,4.216,4.2317,4.2413,4.2687,4.2985,4.3256,4.36,4.4423,4.5092,4.5472,4.5974,4.6301,4.6301,4.6301,4.6301,4.6301,4.6301,4.6301,4.6301,4.6301,4.6481,4.6806,4.6506,4.6506,4.6746,4.6806,4.6645,4.6404,4.5847,4.5226,4.4715,4.41,4.3844,4.3844,4.3517,4.3406,4.3406,4.3129,4.2665,4.2162,4.2137,4.2464,4.3005,4.3353,4.4225,4.5287,4.5502,4.5662,4.5662,4.5662,4.5822,4.606,4.606,4.5765,4.5342,4.5292,4.5035,4.4844,4.5046,4.5321,4.564,4.609,4.6225,4.6314,4.6535,4.677,4.6842,4.6842,4.6509,4.6022,4.5334,0.0,0.0,4.305,4.2476,4.2011,4.1804,4.1224,4.0498,3.9651,3.8881,3.8397,3.8202,3.7796,3.7786,3.8375,3.8077,3.844,3.9592,3.9732,4.0069,4.0631,4.0688,4.1306,4.2514,4.257,4.3353,4.4712,4.4972,4.5276,4.5504,4.5776,4.573,4.5549,4.5504,4.5367,4.511,4.5064,4.5092,4.5018,4.5064,4.4579,4.3835,4.2166,4.2381,4.2614,4.2862,4.297,4.312,4.3216,4.3216,4.3417,4.4091,4.4695,4.5266,4.5889,4.6175,4.6301,4.6301,4.6301,4.6301,4.6301,4.6301,4.6301,4.6301,4.6301,4.6361,4.6506,4.6213,4.6129,4.6248,4.6269,4.6251,4.616,4.5593,4.5206,4.4974,4.4266,4.401,4.4094,4.3628,4.3517,4.3653,4.3209,4.2715,4.2213,4.2213,4.254,4.3028,4.3136,4.4037,4.518,4.5046,4.5287,4.5555,4.5395,4.5662,4.6058,4.6201,4.6128,4.5846,4.5397,4.4922,4.463,4.5,4.5184,4.5413,4.5911,4.609,4.6225,4.6314,4.6535,4.6712,4.6712,4.6622,4.6132,4.5035,0.0,4.3767,4.2765,4.2401,4.2027,4.1376,4.0881,4.0237,3.9401,3.8835,3.8352,3.8043,3.8083,3.8204,3.8303,3.8799,3.9451,4.0322,4.035,4.0463,4.0688,4.0688,4.1421,4.2766,4.2766,4.3669,4.523,4.5321,4.5504,4.573,4.585,4.585,4.573,4.5549,4.5458,4.5367,4.5367,4.5367,4.5413,4.5656,4.5097,4.4165,4.2275,4.2759,4.32,4.3263,4.3455,4.3647,4.3708,4.3723,4.3928,4.4631,4.5066,4.5515,4.6215,4.6301,4.6301,4.6301,4.6301,4.6301,4.6301,4.6301,4.6301,4.6301,4.6301,4.6285,4.6169,4.6003,4.59,4.5955,4.5974,4.5974,4.5849,4.5515,4.523,4.5022,4.4439,4.4258,4.4367,4.3793,4.3708,4.3844,4.3265,4.2816,4.2464,4.2464,4.2793,4.3284,4.3284,4.403,4.5018,4.4776,4.4992,4.5287,4.5234,4.5662,4.6162,4.6366,4.6262,4.6041,4.5445,4.4874,4.449,4.4908,4.5046,4.523,4.564,4.5956,4.609,4.609,4.6314,4.6447,4.6447,4.6535,4.6167,4.484,4.4604,4.4078,4.2609,4.2392,4.2076,4.1204,4.0818,4.0334,3.9538,3.9111,3.8774,3.8534,3.8664,3.87,3.8698,3.9591,4.0266,4.0688,4.0688,4.073,4.0773,4.0816,4.1479,4.2899,4.2988,4.391,4.5504,4.5504,4.564,4.5895,4.5895,4.5895,4.5895,4.5685,4.5685,4.573,4.573,4.5776,4.5866,4.6225,4.5537,4.4549,4.2275,4.2593,4.2886,4.3263,4.3576,4.395,4.4223,4.4594,4.4902,4.527,4.5574,4.5939,4.624,4.6301,4.6301,4.6301,4.6301,4.6301,4.6301,4.6301,4.6301,4.6301,4.6301,4.6169,4.5885,4.5918,4.593,4.5995,4.5995,4.5879,4.5555,4.5555,4.5242,4.4668,4.4668,4.4668,4.4668,4.4094,4.3899,4.3844,4.3265,4.2986,4.2986,4.2961,4.3376,4.3899,4.3899,4.4258,4.4668,4.4668,4.4668,4.4776,4.5072,4.5742,4.6424,4.6417,4.6112,4.572,4.5397,4.4874,4.4472,4.4751,4.4954,4.5184,4.5458,4.5685,4.5895,4.5895,4.6046,4.6225,4.6225,4.6403,4.6167,4.484,4.4604,4.4078,4.2609,4.2392,4.2076,4.1204,4.1105,4.0844,4.0147,3.9921,3.9801,3.979,3.943,3.9389,3.9802,4.035,4.0688,4.0688,4.0716,4.0816,4.1001,4.1001,4.1624,4.2899,4.3165,4.4088,4.5504,4.5504,4.564,4.5895,4.5895,4.5895,4.5895,4.5895,4.6001,4.6225,4.6225,4.6358,4.6609,4.6609,4.5957,4.5,4.2633,4.3137,4.349,4.3615,4.395,4.4161,4.4285,4.4594,4.4902,4.527,4.5574,4.5939,4.624,4.6301,4.6301,4.6301,4.6301,4.6301,4.6301,4.6301,4.6301,4.6301,4.6301,4.6169,4.5885,4.5712,4.5514,4.537,4.5178,4.5057,4.4955,4.4955,4.485,4.4668,4.4668,4.4668,4.4668,4.4094,4.3899,4.3844,4.3265,4.2986,4.2936,4.2615,4.2793,4.3284,4.3284,4.3638,4.4199,4.4591,4.4668,4.4776,4.5341,4.6086,4.6712,4.6468,4.6262,4.6041,4.5445,4.4874,4.4472,4.4751,4.4844,4.4954,4.5184,4.5413,4.5595,4.5595,4.5821,4.6001,4.6001,4.5667,4.5128,4.4311,4.3786,4.316,4.2332,4.2216,4.1913,4.1163,4.0984,4.0602,3.9939,3.9711,3.951,3.9389,3.9502,3.9872,4.0407,4.0603,4.0688,4.0688,4.1282,4.1637,4.1681,4.1227,4.1796,4.34,4.3443,4.431,4.5776,4.5776,4.585,4.5895,4.5895,4.5895,4.5895,4.5895,4.594,4.6001,4.6358,4.6535,4.6624,4.6961,4.6698,4.6089,4.2949,4.3451,4.3802,4.3802,4.4075,4.4347,4.447,4.4779,4.5147,4.5453,4.5757,4.6059,4.624,4.6301,4.6301,4.6301,4.6301,4.6301,4.6301,4.6301,4.6301,4.6301,4.6301,4.6229,4.6119,4.5706,4.5428,4.5278,4.49,4.4668,4.4668,4.4668,4.4668,4.4668,4.4668,4.4668,4.4668,4.4094,4.3899,4.3844,4.3265,4.2986,4.2911,4.2414,4.254,4.3028,4.3028,4.3405,4.4017,4.4647,4.5046,4.5261,4.5635,4.6297,4.6816,4.6468,4.6456,4.6301,4.5529,4.5043,4.4706,4.4668,4.4705,4.4844,4.4954,4.5184,4.5367,4.5504,4.564,4.5776,4.5895,4.5343,4.4676,4.4095,4.3427,4.2789,4.2179,4.2092,4.1906,4.1389,4.1237,4.097,4.0486,4.0253,4.0006,3.98,4.0013,4.0322,4.0688,4.1027,4.1182,4.1182,4.2064,4.2551,4.2638,4.2238,4.2682,4.4021,4.408,4.4717,4.5895,4.5895,4.5895,4.5895,4.5895,4.5895,4.5895,4.5895,4.603,4.6209,4.6521,4.6712,4.6917,4.7222,4.6946,4.6461,4.3263,4.3615,4.3864,4.3864,4.4137,4.447,4.4779,4.5147,4.5453,4.5757,4.6059,4.6301,4.6301,4.6301,4.6301,4.6301,4.6301,4.6301,4.6301,4.6301,4.6301,4.6301,4.6301,4.6374,4.6429,4.5841,4.5593,4.5581,4.5033,4.472,4.4668,4.4668,4.4668,4.4668,4.4668,4.4668,4.4613,4.4094,4.3844,4.3789,4.3209,4.2986,4.2911,4.2363,4.2464,4.2951,4.2951,4.3301,4.3992,4.4915,4.5609,4.6007,4.6007,4.6403,4.6843,4.655,4.6634,4.6606,4.5705,4.5416,4.522,4.465,4.4649,4.4808,4.4751,4.4908,4.5138,4.5413,4.5504,4.5595,4.585,4.5285,4.4618,4.4066,4.3369,4.2731,4.2109,4.2051,4.1939,4.1702,4.166,4.1577,4.1396,4.1156,4.0873,4.073,4.0787,4.0815,4.0815,4.1666,4.2092,4.2092,4.298,4.3514,4.3704,4.3762,4.405,4.4642,4.482,4.5227,4.5895,4.5895,4.5895,4.5895,4.5895,4.5895,4.5895,4.594,4.6209,4.6535,4.6609,4.6873,4.7266,4.7266,4.6877,4.6411,4.3615,4.4199,4.457,4.457,4.484,4.5086,4.5208,4.5453,4.5696,4.5757,4.6059,4.6301,4.6301,4.6301,4.6301,4.6301,4.6301,4.6301,4.6301,4.6301,4.6301,4.6301,4.6301,4.6431,4.6688,4.6397,4.6031,4.5581,4.5506,4.5192,4.4668,4.4668,4.4668,4.4668,4.4476,4.4367,4.4367,4.3738,4.3517,4.3462,4.3129,4.2986,4.2861,4.1882,4.1828,4.2309,4.2362,4.2891,4.3808,4.5103,4.5768,4.6007,4.6007,4.6403,4.6925,4.7047,4.6966,4.6801,4.6771,4.6448,4.5942,4.5296,4.5127,4.5062,4.4556,4.4705,4.4908,4.5138,4.5367,4.5595,4.585,4.4966,4.4153,4.4008,4.3021,4.2196,4.1814,4.1785,4.1702,4.148,4.1283,4.1128,4.1085,4.0901,4.0816,4.0916,4.1439,4.1809,4.1953,4.2623,4.3009,4.3009,4.3858,4.4352,4.4396,4.5065,4.5212,4.4864,4.4879,4.5227,4.5895,4.5895,4.5895,4.5895,4.5895,4.5895,4.594,4.609,4.618,4.6314,4.6491,4.6756,4.6975,4.6975,4.7146,4.7267,4.4199,4.4594,4.484,4.5025,4.5208,4.5331,4.5514,4.5696,4.5878,4.5999,4.618,4.6301,4.6301,4.6301,4.6301,4.6301,4.6301,4.6301,4.6301,4.6301,4.6301,4.6301,4.6301,4.6421,4.6806,4.6772,4.6463,4.5805,4.563,4.5268,4.4668,4.4668,4.4668,4.4668,4.4422,4.4313,4.4258,4.3683,4.3381,4.3406,4.3129,4.2986,4.2942,4.2221,4.2011,4.2155,4.265,4.3571,4.4625,4.5502,4.5848,4.6007,4.6007,4.6245,4.6508,4.6821,4.6964,4.7017,4.7041,4.6883,4.6588,4.5942,4.5802,4.5549,4.4621,4.4518,4.4676,4.5046,4.523,4.5413,4.585,4.5082,4.4327,4.4037,4.3166,4.2328,4.1773,4.1702,4.1577,4.1241,4.1085,4.1001,4.1001,4.0873,4.0944,4.1198,4.1767,4.2195,4.2281,4.3327,4.3931,4.3931,4.4787,4.5194,4.5194,4.5676,4.5721,4.5372,4.5372,4.5547,4.5895,4.5895,4.5895,4.594,4.6001,4.6046,4.6046,4.6269,4.6403,4.6403,4.6535,4.6668,4.6756,4.6756,4.6975,4.7219,4.4717,4.4902,4.5086,4.5331,4.5453,4.5574,4.5817,4.5878,4.5999,4.624,4.6301,4.6301,4.6301,4.6301,4.6301,4.6301,4.6301,4.6301,4.6301,4.6301,4.6301,4.6301,4.6301,4.6446,4.6746,4.7053,4.6843,4.5995,4.5835,4.5401,4.4668,4.4668,4.4668,4.4668,4.4422,4.4258,4.4203,4.3628,4.3406,4.3295,4.3073,4.2986,4.2967,4.2713,4.2373,4.2206,4.3145,4.4359,4.5555,4.5848,4.5901,4.5901,4.5901,4.5954,4.606,4.6323,4.6821,4.7229,4.6985,4.7175,4.7207,4.6588,4.6448,4.6139,4.4987,4.465,4.4678,4.5,4.511,4.5276,4.5776,4.5343,4.4734,4.424,4.3602,4.2878,4.2105,4.1977,4.1808,4.1355,4.127,4.1213,4.1213,4.1142,4.1198,4.1438,4.2138,4.2539,4.2582,4.4035,4.4815,4.4815,4.5515,4.5895,4.5895,4.5895,4.5895,4.5895,4.5895,4.5895,4.5895,4.5895,4.5895,4.594,4.609,4.618,4.6225,4.6491,4.6609,4.6609,4.6609,4.6609,4.658,4.6624,4.6756,4.6931,4.4717,4.527,4.5696,4.5696,4.5939,4.618,4.624,4.624,4.624,4.6301,4.6301,4.6301,4.6301,4.6301,4.6301,4.6301,4.6301,4.6301,4.6301,4.6301,4.6301,4.6301,4.6301,4.6301,4.6386,4.6934,4.6843,4.5995,4.6226,4.5794,4.4668,4.4668,4.4668,4.4668,4.4422,4.4148,4.3955,4.3572,4.3295,4.3017,4.3042,4.2986,4.2967,4.2713,4.2373,4.2206,4.3145,4.4251,4.5287,4.5555,4.5662,4.5662,4.5662,4.5795,4.606,4.6323,4.6821,4.7339,4.7513,4.7791,4.7853,4.7235,4.7094,4.6897,4.6195,4.5605,4.5138,4.5086,4.511,4.5276,4.5776,4.5343,4.485,4.4763,4.424,4.3675,4.3155,4.3083,4.2952,4.2688,4.2308,4.2096,4.2096,4.1639,4.1409,4.166,4.2754,4.3502,4.3777,4.5009,4.5705,4.5705,4.5837,4.5895,4.5895,4.5895,4.5895,4.5895,4.5895,4.5895,4.5895,4.5895,4.5895,4.5895,4.594,4.6046,4.6225,4.6491,4.6609,4.6609,4.6609,4.6609,4.6624,4.68,4.6887,4.6931,4.5025,4.5453,4.5878,4.6059,4.618,4.6301,4.6301,4.6301,4.6301,4.6301,4.6301,4.6301,4.6301,4.6301,4.6301,4.6301,4.6301,4.6301,4.6301,4.6301,4.6301,4.6301,4.6301,4.6386,4.6566,4.6688,4.6476,4.5995,4.636,4.5872,4.4668,4.4668,4.4668,4.4668,4.4422,4.4203,4.4094,4.3628,4.3351,4.3184,4.3073,4.2986,4.3017,4.3233,4.3048,4.2723,4.3622,4.4465,4.5234,4.5715,4.5715,4.5662,4.5742,4.5901,4.6007,4.6112,4.6612,4.7133,4.7391,4.7647,4.7847,4.7746,4.7712,4.7544,4.6954,4.6588,4.6208,4.5553,4.5448,4.5474,4.5652,4.5454,4.5181,4.4937,4.4676,4.4269,4.3544,4.3472,4.3384,4.3165,4.2952,4.2911,4.3013,4.2783,4.2725,4.2967,4.382,4.4385,4.4501,4.5372,4.5895,4.5895,4.5895,4.5895,4.5895,4.5895,4.5895,4.5895,4.5895,4.5895,4.5895,4.5895,4.5895,4.594,4.6001,4.6135,4.6225,4.6491,4.6491,4.6358,4.6358,4.6314,4.6225,4.6447,4.6624,4.6756]}]]